ftp/pub/palmer/observations_modified/2019/July/AR190707_BASE.txt

Download

Sample DateTime	Unit Id	WS Avg 2min	WD Avg 2min	WGS 10min	WGD 10min	Air Temp	Rel Humidity	Dew Point	Pyranometer	Quantum	Air Pressure	Snow Level	Rainfall	PW Current	Visibility	CBase 1	CBase 2	CBase 3	Vert Vis
2019/07/07  00:00:01  BASE  1.7934   16   1.93452  14   -3.3  62    -9.6  0     0     1006.4   NA       0.0000   9999     0     0     0    
2019/07/07  00:01:01  BASE  1.71108  22   1.93452  14   -3.4  62    -9.6  0     0     1006.4   NA       0.0000   9999     0     0     0    
2019/07/07  00:02:01  BASE  1.80516  29   2.0286   37   -3.4  62    -9.7  0     0     1006.4   NA       0.0000   9999     0     0     0    
2019/07/07  00:03:01  BASE  1.90512  34   2.0286   37   -3.5  62    -9.7  0     0     1006.5   NA       0.0000   9999     0     0     0    
2019/07/07  00:04:01  BASE  1.80516  33   2.0286   37   -3.5  62    -9.7  0     0     1006.5   NA       0.0000   9999     0     0     0    
2019/07/07  00:05:01  BASE  1.7346   29   2.0286   37   -3.6  62    -9.7  0     0     1006.5   NA       0.0000   9999     0     0     0    
2019/07/07  00:06:01  BASE  1.81692  26   2.0874   22   -3.6  63    -9.7  0     0     1006.5   NA       0.0000   9999     0     0     0    
2019/07/07  00:07:00  BASE  2.05212  21   2.29908  17   -3.6  63    -9.7  0     0     1006.5   NA       0.0000   9999     0     0     0    
2019/07/07  00:08:01  BASE  2.16384  18   2.29908  17   -3.6  63    -9.6  0     0     1006.5   NA       0.0000   9999     0     0     0    
2019/07/07  00:09:01  BASE  2.08152  21   2.29908  17   -3.6  63    -9.5  0     0     1006.6   NA       0.0000   9999     0     0     0    
2019/07/07  00:10:01  BASE  2.05212  22   2.29908  17   -3.6  64    -9.5  0     0     1006.6   NA       0.0000   9999     0     0     0    
2019/07/07  00:11:01  BASE  1.92276  21   2.29908  17   -3.6  64    -9.4  0     0     1006.6   NA       0.0000   9999     0     0     0    
2019/07/07  00:12:01  BASE  1.8522   24   2.29908  17   -3.5  64    -9.4  0     0     1006.6   NA       0.0000   9999     0     0     0    
2019/07/07  00:13:01  BASE  1.86984  27   2.29908  17   -3.4  63    -9.4  0     0     1006.6   NA       0.0000   9999     0     0     0    
2019/07/07  00:14:02  BASE  1.81104  29   2.29908  17   -3.4  63    -9.4  0     0     1006.6   NA       0.0000   9999     0     0     0    
2019/07/07  00:15:01  BASE  1.72872  36   2.29908  17   -3.4  63    -9.5  0     0     1006.6   NA       0.0000   9999     0     0     0    
2019/07/07  00:16:01  BASE  1.5582   41   2.29908  17   -3.3  62    -9.5  0     0     1006.6   NA       0.0000   9999     0     0     0    
2019/07/07  00:17:02  BASE  1.3524   39   2.21088  17   -3.3  62    -9.5  0     0     1006.6   NA       0.0000   9999     0     0     0    
2019/07/07  00:18:01  BASE  1.27008  35   2.1462   19   -3.3  63    -9.4  0     0     1006.6   NA       0.0000   9999     0     0     0    
2019/07/07  00:19:02  BASE  1.06428  13   2.1462   19   -3.2  63    -9.3  0     0     1006.6   NA       0.0000   9999     0     0     0    
2019/07/07  00:20:01  BASE  0.42336  343  2.1168   24   -3.1  63    -9.2  0     0     1006.6   NA       0.0000   9999     0     0     0    
2019/07/07  00:21:01  BASE  0        30   2.1168   24   -3.1  63    -9.2  0     0     1006.6   NA       0.0000   9999     0     0     0    
2019/07/07  00:22:01  BASE  0        129  1.9992   30   -3.0  63    -9.1  0     0     1006.6   NA       0.0000   9999     0     0     0    
2019/07/07  00:23:01  BASE  0.19992  164  1.87572  30   -2.9  62    -9.0  0     0     1006.6   NA       0.0000   9999     0     0     0    
2019/07/07  00:24:01  BASE  0.81144  154  1.78752  37   -2.8  62    -9.1  0     0     1006.6   NA       0.0000   9999     0     0     0    
2019/07/07  00:25:01  BASE  1.21716  123  1.63464  49   -3.0  61    -9.4  0     0     1006.6   NA       0.0000   9999     0     0     0    
2019/07/07  00:26:01  BASE  0.9702   115  1.54056  124  -3.1  61    -9.6  0     0     1006.6   NA       0.0000   9999     0     0     0    
2019/07/07  00:27:02  BASE  0.35868  104  1.54056  124  -3.2  61    -9.7  0     0     1006.6   NA       0.0000   9999     0     0     0    
2019/07/07  00:28:01  BASE  0        93   1.54056  124  -3.3  61    -9.8  0     0     1006.6   NA       0.0000   9999     0     0     0    
2019/07/07  00:29:02  BASE  0.06468  31   1.54056  124  -3.4  62    -9.7  0     0     1006.7   NA       0.0000   9999     0     0     0    
2019/07/07  00:30:01  BASE  0.09408  317  1.54056  124  -3.2  62    -9.5  0     0     1006.7   NA       0.0000   9999     0     0     0    
2019/07/07  00:31:01  BASE  0.0294   273  1.54056  124  -3.0  62    -9.3  0     0     1006.7   NA       0.0000   9999     0     0     0    
2019/07/07  00:32:01  BASE  0        251  1.54056  124  -2.9  61    -9.4  0     0     1006.7   NA       0.0000   9999     0     0     0    
2019/07/07  00:33:01  BASE  0        323  1.54056  124  -2.9  61    -9.5  0     0     1006.7   NA       0.0000   9999     0     0     0    
2019/07/07  00:34:01  BASE  0.07644  27   1.35828  120  -3.0  61    -9.5  0     0     1006.7   NA       0.0000   9999     0     0     0    
2019/07/07  00:35:03  BASE  0.294    29   1.0878   133  -3.1  61    -9.6  0     0     1006.7   NA       0.0000   9999     0     0     0    
2019/07/07  00:36:02  BASE  0.62916  27   0.90552  25   -3.2  61    -9.6  0     0     1006.7   NA       0.0000   9999     0     0     0    
2019/07/07  00:37:02  BASE  0.75852  24   0.90552  20   -3.3  62    -9.5  0     0     1006.7   NA       0.0000   9999     0     0     0    
2019/07/07  00:38:02  BASE  0.34692  25   0.90552  20   -3.4  63    -9.5  0     0     1006.6   NA       0.0000   9999     0     0     0    
2019/07/07  00:39:02  BASE  0        27   0.90552  20   -3.4  63    -9.5  0     0     1006.6   NA       0.0000   9999     0     0     0    
2019/07/07  00:40:02  BASE  0        27   0.90552  20   -3.5  64    -9.4  0     0     1006.6   NA       0.0000   9999     0     0     0    
2019/07/07  00:41:01  BASE  0.09996  27   0.90552  20   -3.5  64    -9.3  0     0     1006.6   NA       0.0000   9999     0     0     0    
2019/07/07  00:42:01  BASE  0.54096  31   1.029    35   -3.5  65    -9.1  0     0     1006.6   NA       0.0000   9999     0     0     0    
2019/07/07  00:43:01  BASE  0.9702   33   1.21128  29   -3.5  65    -9.0  0     0     1006.6   NA       0.0000   9999     0     0     0    
2019/07/07  00:44:02  BASE  1.10544  31   1.27008  28   -3.5  66    -9.0  0     0     1006.6   NA       0.0000   9999     0     0     0    
2019/07/07  00:45:02  BASE  1.0878   33   1.27008  28   -3.5  66    -9.0  0     0     1006.6   NA       0.0000   9999     0     0     0    
2019/07/07  00:46:01  BASE  0.89376  35   1.27008  28   -3.6  66    -9.0  0     0     1006.6   NA       0.0000   9999     0     0     0    
2019/07/07  00:47:01  BASE  0.3822   27   1.27008  28   -3.6  66    -9.0  0     0     1006.6   NA       0.0000   9999     0     0     0    
2019/07/07  00:48:01  BASE  0        19   1.27008  28   -3.6  66    -9.0  0     0     1006.7   NA       0.0000   9999     0     0     0    
2019/07/07  00:49:01  BASE  0.2646   15   1.27008  28   -3.7  67    -9.0  0     0     1006.7   NA       0.0000   9999     0     0     0    
2019/07/07  00:50:01  BASE  0.71736  17   1.27008  28   -3.6  67    -8.9  0     0     1006.7   NA       0.0000   9999     0     0     0    
2019/07/07  00:51:02  BASE  1.10544  29   1.54056  36   -3.6  67    -8.8  0     0     1006.7   NA       0.0000   9999     0     0     0    
2019/07/07  00:52:01  BASE  1.43472  36   1.63464  38   -3.7  67    -8.8  0     0     1006.7   NA       0.0000   9999     0     0     0    
2019/07/07  00:53:02  BASE  1.63464  38   1.78752  41   -3.7  68    -8.8  0     0     1006.7   NA       0.0000   9999     0     0     0    
2019/07/07  00:54:02  BASE  1.65816  40   1.78752  41   -3.8  68    -8.7  0     0     1006.7   NA       0.0000   9999     0     0     0    
2019/07/07  00:55:01  BASE  1.58172  41   1.78752  41   -3.8  69    -8.6  0     0     1006.7   NA       0.0000   9999     0     0     0    
2019/07/07  00:56:02  BASE  1.48764  39   1.78752  41   -3.8  70    -8.5  0     0     1006.7   NA       0.0000   9999     0     0     0    
2019/07/07  00:57:01  BASE  1.4112   35   1.78752  41   -3.7  70    -8.4  0     0     1006.7   NA       0.0000   9999     0     0     0    
2019/07/07  00:58:02  BASE  1.38768  34   1.78752  41   -3.7  70    -8.4  0     0     1006.7   NA       0.0000   9999     0     0     0    
2019/07/07  00:59:02  BASE  1.52292  38   1.81692  47   -3.6  70    -8.4  0     0     1006.7   NA       0.0000   9999     0     0     0    
2019/07/07  01:00:01  BASE  1.56996  45   1.81692  47   -3.6  69    -8.4  0     0     1006.7   NA       0.0000   9999     0     0     0    
2019/07/07  01:01:02  BASE  1.6464   47   1.93452  46   -3.6  69    -8.5  0     0     1006.7   NA       0.0000   9999     0     0     0    
2019/07/07  01:02:01  BASE  1.89924  45   2.0874   42   -3.5  68    -8.5  0     0     1006.7   NA       0.0000   9999     0     0     0    
2019/07/07  01:03:02  BASE  1.9992   41   2.0874   41   -3.5  68    -8.6  0     0     1006.7   NA       0.0000   9999     0     0     0    
2019/07/07  01:04:01  BASE  2.00508  35   2.29908  31   -3.5  68    -8.6  0     0     1006.8   NA       0.0000   9999     0     0     0    
2019/07/07  01:05:02  BASE  2.04036  27   2.29908  31   -3.5  67    -8.7  0     0     1006.8   NA       0.0000   9999     0     0     0    
2019/07/07  01:06:01  BASE  2.07564  18   2.29908  11   -3.5  67    -8.7  0     0     1006.8   NA       0.0000   9999     0     0     0    
2019/07/07  01:07:01  BASE  2.01096  13   2.29908  11   -3.6  67    -8.8  0     0     1006.8   NA       0.0000   9999     0     0     0    
2019/07/07  01:08:02  BASE  1.98156  12   2.29908  11   -3.6  67    -8.9  0     0     1006.8   NA       0.0000   9999     0     0     0    
2019/07/07  01:09:02  BASE  2.1168   12   2.29908  11   -3.7  67    -8.9  0     0     1006.9   NA       0.0000   9999     0     0     0    
2019/07/07  01:10:02  BASE  2.1756   13   2.29908  11   -3.7  67    -8.9  0     0     1006.9   NA       0.0000   9999     0     0     0    
2019/07/07  01:11:02  BASE  2.13444  16   2.29908  11   -3.8  68    -8.9  0     0     1006.9   NA       0.0000   9999     0     0     0    
2019/07/07  01:12:01  BASE  2.18736  19   2.35788  24   -3.8  68    -8.8  0     0     1006.9   NA       0.0000   9999     0     0     0    
2019/07/07  01:13:01  BASE  2.1756   22   2.35788  24   -3.8  69    -8.7  0     0     1006.9   NA       0.0000   9999     0     0     0    
2019/07/07  01:14:01  BASE  2.09916  26   2.35788  24   -3.9  69    -8.7  0     0     1007.0   NA       0.0000   9999     0     0     0    
2019/07/07  01:15:01  BASE  2.22852  28   2.48136  27   -3.9  70    -8.6  0     0     1007.0   NA       0.0000   9999     0     0     0    
2019/07/07  01:16:02  BASE  2.3814   28   2.48136  27   -3.9  70    -8.6  0     0     1007.0   NA       0.0000   9999     0     0     0    
2019/07/07  01:17:01  BASE  2.4108   28   2.81064  25   -4.0  70    -8.5  0     0     1007.0   NA       0.0000   9999     0     0     0    
2019/07/07  01:18:01  BASE  2.46372  28   2.81064  25   -4.0  71    -8.5  0     0     1007.0   NA       0.0000   9999     0     0     0    
2019/07/07  01:19:00  BASE  2.42256  27   2.81064  24   -4.0  71    -8.5  0     0     1007.0   NA       0.0000   9999     0     0     0    
2019/07/07  01:20:00  BASE  2.5578   24   2.90472  19   -4.1  71    -8.6  0     0     1007.1   NA       0.0000   9999     0     0     0    
2019/07/07  01:21:01  BASE  2.68128  23   2.96352  31   -4.1  71    -8.7  0     0     1007.1   NA       0.0000   9999     0     0     0    
2019/07/07  01:22:01  BASE  2.63424  27   2.96352  31   -4.2  71    -8.8  0     0     1007.1   NA       0.0000   9999     0     0     0    
2019/07/07  01:23:01  BASE  2.51076  29   2.96352  31   -4.3  71    -8.8  0     0     1007.1   NA       0.0000   9999     0     0     0    
2019/07/07  01:24:01  BASE  2.41668  30   2.96352  31   -4.3  71    -8.7  0     0     1007.1   NA       0.0000   9999     0     0     0    
2019/07/07  01:25:01  BASE  2.4402   30   2.96352  31   -4.3  71    -8.7  0     0     1007.1   NA       0.0000   9999     0     0     0    
2019/07/07  01:26:02  BASE  2.52252  30   2.96352  31   -4.2  72    -8.5  0     0     1007.1   NA       0.0000   9999     0     0     0    
2019/07/07  01:27:02  BASE  2.69892  29   3.02232  26   -4.1  72    -8.5  0     0     1007.1   NA       0.0000   9999     0     0     0    
2019/07/07  01:28:01  BASE  2.92824  32   3.41628  40   -4.1  72    -8.4  0     0     1007.1   NA       0.0000   9999     0     0     0    
2019/07/07  01:29:02  BASE  3.22224  38   3.75144  33   -4.1  71    -8.5  0     0     1007.1   NA       0.0000   9999     0     0     0    
2019/07/07  01:30:01  BASE  3.19872  41   3.75144  33   -4.1  71    -8.6  0     0     1007.1   NA       0.0000   9999     0     0     0    
2019/07/07  01:31:02  BASE  3.0282   42   3.75144  33   -4.1  71    -8.7  0     0     1007.2   NA       0.0000   9999     0     0     0    
2019/07/07  01:32:02  BASE  2.93412  43   3.75144  33   -4.2  70    -8.8  0     0     1007.2   NA       0.0000   9999     0     0     0    
2019/07/07  01:33:01  BASE  2.9694   45   3.75144  33   -4.3  70    -8.9  0     0     1007.2   NA       0.0000   9999     0     0     0    
2019/07/07  01:34:02  BASE  3.2928   45   3.75144  33   -4.3  70    -9.0  0     0     1007.2   NA       0.0000   9999     0     0     0    
2019/07/07  01:35:03  BASE  3.36336  46   3.75144  33   -4.4  70    -9.0  0     0     1007.2   NA       0.0000   9999     0     0     0    
2019/07/07  01:36:02  BASE  3.18696  49   3.75144  33   -4.5  70    -9.1  0     0     1007.2   NA       0.0000   9999     0     0     0    
2019/07/07  01:37:01  BASE  3.09876  51   3.75144  33   -4.5  71    -9.0  0     0     1007.2   NA       0.0000   9999     0     0     0    
2019/07/07  01:38:01  BASE  2.91648  50   3.75144  33   -4.5  71    -9.0  0     0     1007.2   NA       0.0000   9999     0     0     0    
2019/07/07  01:39:01  BASE  2.95176  46   3.69264  51   -4.5  71    -9.0  0     0     1007.2   NA       0.0000   9999     0     0     0    
2019/07/07  01:40:01  BASE  3.06936  47   3.69264  51   -4.5  71    -9.0  0     0     1007.2   NA       0.0000   9999     0     0     0    
2019/07/07  01:41:01  BASE  3.08112  52   3.69264  51   -4.5  71    -9.0  0     0     1007.2   NA       0.0000   9999     0     0     0    
2019/07/07  01:42:01  BASE  2.92824  57   3.69264  51   -4.4  70    -9.0  0     0     1007.2   NA       0.0000   9999     0     0     0    
2019/07/07  01:43:02  BASE  2.7342   61   3.69264  51   -4.4  70    -9.0  0     0     1007.2   NA       0.0000   9999     0     0     0    
2019/07/07  01:44:01  BASE  2.80476  59   3.69264  51   -4.4  70    -9.0  0     0     1007.2   NA       0.0000   9999     0     0     0    
2019/07/07  01:45:02  BASE  2.85768  60   3.69264  51   -4.3  70    -9.0  0     0     1007.2   NA       0.0000   9999     0     0     0    
2019/07/07  01:46:01  BASE  2.85768  61   3.69264  51   -4.3  70    -8.9  0     0     1007.3   NA       0.0000   9999     0     0     0    
2019/07/07  01:47:01  BASE  2.80476  62   3.69264  51   -4.2  70    -8.9  0     0     1007.3   NA       0.0000   9999     0     0     0    
2019/07/07  01:48:01  BASE  2.76948  64   3.69264  51   -4.1  69    -8.8  0     0     1007.3   NA       0.0000   9999     0     0     0    
2019/07/07  01:49:02  BASE  2.79888  63   3.69264  51   -4.0  69    -8.8  0     0     1007.3   NA       0.0000   9999     0     0     0    
2019/07/07  01:50:02  BASE  2.52252  63   3.69264  51   -3.9  68    -8.8  0     0     1007.3   NA       0.0000   9999     0     0     0    
2019/07/07  01:51:01  BASE  2.21088  63   3.234    65   -3.7  68    -8.8  0     0     1007.3   NA       0.0000   9999     0     0     0    
2019/07/07  01:52:01  BASE  2.36376  60   3.234    65   -3.6  67    -8.8  0     0     1007.3   NA       0.0000   9999     0     0     0    
2019/07/07  01:53:01  BASE  2.5578   57   3.234    65   -3.5  67    -8.8  0     0     1007.3   NA       0.0000   9999     0     0     0    
2019/07/07  01:54:01  BASE  2.62836  55   3.234    65   -3.4  66    -8.8  0     0     1007.3   NA       0.0000   9999     0     0     0    
2019/07/07  01:55:01  BASE  2.44608  47   3.1164   67   -3.3  66    -8.8  0     0     1007.3   NA       0.0000   9999     0     0     0    
2019/07/07  01:56:01  BASE  2.28144  41   3.1164   67   -3.3  66    -8.8  0     0     1007.3   NA       0.0000   9999     0     0     0    
2019/07/07  01:57:02  BASE  2.2638   38   3.1164   67   -3.4  66    -8.9  0     0     1007.3   NA       0.0000   9999     0     0     0    
2019/07/07  01:58:01  BASE  2.205    38   3.1164   67   -3.4  66    -9.0  0     0     1007.2   NA       0.0000   9999     0     0     0    
2019/07/07  01:59:02  BASE  2.33436  40   3.02232  49   -3.5  66    -9.0  0     0     1007.2   NA       0.0000   9999     0     0     0    
2019/07/07  02:00:02  BASE  2.54016  42   3.02232  49   -3.6  66    -9.2  0     0     1007.2   NA       0.0000   9999     0     0     0    
2019/07/07  02:01:02  BASE  2.54604  45   3.02232  49   -3.7  66    -9.2  0     0     1007.2   NA       0.0000   9999     0     0     0    
2019/07/07  02:02:01  BASE  2.49312  46   2.93412  57   -3.8  67    -9.1  0     0     1007.2   NA       0.0000   9999     0     0     0    
2019/07/07  02:03:01  BASE  2.50488  50   2.93412  57   -3.8  67    -9.0  0     0     1007.2   NA       0.0000   9999     0     0     0    
2019/07/07  02:04:01  BASE  2.56368  55   2.84592  58   -3.8  68    -8.9  0     0     1007.2   NA       0.0000   9999     0     0     0    
2019/07/07  02:05:01  BASE  2.42256  56   2.84592  58   -3.7  68    -8.7  0     0     1007.2   NA       0.0000   9999     0     0     0    
2019/07/07  02:06:01  BASE  2.1756   53   2.84592  58   -3.7  68    -8.6  0     0     1007.2   NA       0.0000   9999     0     0     0    
2019/07/07  02:07:02  BASE  2.12268  45   2.84592  58   -3.6  68    -8.6  0     0     1007.2   NA       0.0000   9999     0     0     0    
2019/07/07  02:08:01  BASE  2.09916  42   2.84592  58   -3.6  68    -8.5  0     0     1007.2   NA       0.0000   9999     0     0     0    
2019/07/07  02:09:01  BASE  2.205    43   2.84592  58   -3.5  68    -8.5  0     0     1007.2   NA       0.0000   9999     0     0     0    
2019/07/07  02:10:01  BASE  2.2932   44   2.84592  58   -3.5  68    -8.6  0     0     1007.2   NA       0.0000   9999     0     0     0    
2019/07/07  02:11:01  BASE  2.10504  47   2.84592  58   -3.5  68    -8.6  0     0     1007.2   NA       0.0000   9999     0     0     0    
2019/07/07  02:12:01  BASE  1.92864  47   2.84592  58   -3.5  68    -8.6  0     0     1007.2   NA       0.0000   9999     0     0     0    
2019/07/07  02:13:01  BASE  1.88748  47   2.84592  58   -3.5  68    -8.6  0     0     1007.2   NA       0.0000   9999     0     0     0    
2019/07/07  02:14:01  BASE  1.79928  46   2.63424  58   -3.5  68    -8.5  0     0     1007.2   NA       0.0000   9999     0     0     0    
2019/07/07  02:15:01  BASE  1.71108  45   2.51076  48   -3.4  68    -8.5  0     0     1007.2   NA       0.0000   9999     0     0     0    
2019/07/07  02:16:01  BASE  1.69344  49   2.51076  48   -3.4  68    -8.4  0     0     1007.2   NA       0.0000   9999     0     0     0    
2019/07/07  02:17:01  BASE  1.74048  57   2.51076  48   -3.3  68    -8.3  0     0     1007.2   NA       0.0000   9999     0     0     0    
2019/07/07  02:18:01  BASE  1.78752  62   2.51076  48   -3.3  68    -8.3  0     0     1007.2   NA       0.0000   9999     0     0     0    
2019/07/07  02:19:01  BASE  1.7052   66   2.51076  48   -3.2  68    -8.2  0     0     1007.2   NA       0.0000   9999     0     0     0    
2019/07/07  02:20:02  BASE  1.56408  68   2.058    41   -3.1  68    -8.2  0     0     1007.2   NA       0.0000   9999     0     0     0    
2019/07/07  02:21:01  BASE  1.5288   71   2.0286   45   -3.1  68    -8.2  0     0     1007.2   NA       0.0000   9999     0     0     0    
2019/07/07  02:22:01  BASE  1.43472  71   1.93452  61   -3.0  68    -8.2  0     0     1007.2   NA       0.0000   9999     0     0     0    
2019/07/07  02:23:01  BASE  1.01724  67   1.93452  61   -2.9  67    -8.1  0     0     1007.2   NA       0.0000   9999     0     0     0    
2019/07/07  02:24:01  BASE  0.96432  83   1.93452  61   -2.8  67    -8.1  0     0     1007.2   NA       0.0000   9999     0     0     0    
2019/07/07  02:25:02  BASE  1.28772  92   1.93452  61   -2.8  67    -8.1  0     0     1007.3   NA       0.0000   9999     0     0     0    
2019/07/07  02:26:02  BASE  1.24068  84   1.93452  61   -2.7  66    -8.1  0     0     1007.3   NA       0.0000   9999     0     0     0    
2019/07/07  02:27:02  BASE  0.97608  88   1.87572  65   -2.6  66    -8.1  0     0     1007.3   NA       0.0000   9999     0     0     0    
2019/07/07  02:28:01  BASE  0.4116   118  1.87572  65   -2.6  66    -8.0  0     0     1007.3   NA       0.0000   9999     0     0     0    
2019/07/07  02:29:02  BASE  0        119  1.75224  90   -2.4  66    -7.9  0     0     1007.3   NA       0.0000   9999     0     0     0    
2019/07/07  02:30:01  BASE  0.12348  88   1.75224  90   -2.3  66    -7.8  0     0     1007.3   NA       0.0000   9999     0     0     0    
2019/07/07  02:31:01  BASE  0.4116   93   1.75224  90   -2.2  66    -7.8  0     0     1007.3   NA       0.0000   9999     0     0     0    
2019/07/07  02:32:01  BASE  0.86436  113  1.75224  90   -2.2  65    -7.8  0     0     1007.3   NA       0.0000   9999     0     0     0    
2019/07/07  02:33:01  BASE  1.323    128  1.75224  90   -2.3  65    -8.0  0     0     1007.3   NA       0.0000   9999     0     0     0    
2019/07/07  02:34:01  BASE  1.39356  136  1.75224  90   -2.6  65    -8.2  0     0     1007.3   NA       0.0000   9999     0     0     0    
2019/07/07  02:35:02  BASE  1.19952  149  1.60524  128  -2.8  66    -8.3  0     0     1007.3   NA       0.0000   9999     0     0     0    
2019/07/07  02:36:01  BASE  1.18776  165  1.60524  128  -2.9  66    -8.4  0     0     1007.3   NA       0.0000   9999     0     0     0    
2019/07/07  02:37:01  BASE  1.14072  170  1.60524  128  -3.0  67    -8.3  0     0     1007.3   NA       0.0000   9999     0     0     0    
2019/07/07  02:38:01  BASE  1.13484  166  1.69344  168  -2.9  67    -8.1  0     0     1007.3   NA       0.0000   9999     0     0     0    
2019/07/07  02:39:01  BASE  1.323    170  1.69344  168  -2.8  67    -8.0  0     0     1007.3   NA       0.0000   9999     0     0     0    
2019/07/07  02:40:01  BASE  1.3818   170  1.69344  168  -2.6  67    -7.8  0     0     1007.3   NA       0.0000   9999     0     0     0    
2019/07/07  02:41:02  BASE  1.56408  154  1.87572  145  -2.6  67    -7.9  0     0     1007.3   NA       0.0000   9999     0     0     0    
2019/07/07  02:42:02  BASE  1.7052   146  1.96392  142  -2.6  67    -7.9  0     0     1007.3   NA       0.0000   9999     0     0     0    
2019/07/07  02:43:01  BASE  1.84632  144  2.35788  142  -2.7  67    -8.0  0     0     1007.3   NA       0.0000   9999     0     0     0    
2019/07/07  02:44:01  BASE  2.18148  142  2.51076  142  -2.9  67    -8.2  0     0     1007.4   NA       0.0000   9999     0     0     0    
2019/07/07  02:45:02  BASE  2.40492  146  2.69304  157  -3.1  67    -8.4  0     0     1007.4   NA       0.0000   9999     0     0     0    
2019/07/07  02:46:02  BASE  2.61072  148  3.1752   148  -3.3  68    -8.4  0     0     1007.4   NA       0.0000   9999     0     0     0    
2019/07/07  02:47:01  BASE  2.5578   148  3.1752   148  -3.5  68    -8.5  0     0     1007.4   NA       0.0000   9999     0     0     0    
2019/07/07  02:48:01  BASE  2.54016  148  3.1752   148  -3.7  69    -8.6  0     0     1007.3   NA       0.0000   9999     0     0     0    
2019/07/07  02:49:01  BASE  2.78124  144  3.2046   142  -3.8  70    -8.5  0     0     1007.3   NA       0.0000   9999     0     0     0    
2019/07/07  02:50:02  BASE  2.793    142  3.2046   142  -3.8  70    -8.5  0     0     1007.3   NA       0.0000   9999     0     0     0    
2019/07/07  02:51:02  BASE  2.68716  143  3.2046   142  -3.9  71    -8.4  0     0     1007.3   NA       0.0000   9999     0     0     0    
2019/07/07  02:52:02  BASE  2.54016  142  3.2046   142  -3.9  71    -8.4  0     0     1007.3   NA       0.0000   9999     0     0     0    
2019/07/07  02:53:01  BASE  2.5578   139  3.2046   142  -3.9  71    -8.3  0     0     1007.4   NA       0.0000   9999     0     0     0    
2019/07/07  02:54:01  BASE  2.58132  137  3.2046   142  -3.9  72    -8.2  0     0     1007.4   NA       0.0000   9999     0     0     0    
2019/07/07  02:55:01  BASE  2.3226   133  3.2046   142  -3.8  72    -8.2  0     0     1007.5   NA       0.0000   9999     0     0     0    
2019/07/07  02:56:01  BASE  2.14032  128  3.2046   142  -3.7  72    -8.1  0     0     1007.5   NA       0.0000   9999     0     0     0    
2019/07/07  02:57:01  BASE  2.06976  129  3.2046   142  -3.7  72    -8.0  0     0     1007.5   NA       0.0000   9999     0     0     0    
2019/07/07  02:58:01  BASE  1.92276  134  3.2046   142  -3.6  72    -8.0  0     0     1007.5   NA       0.0000   9999     0     0     0    
2019/07/07  02:59:01  BASE  1.7934   140  2.93412  142  -3.6  72    -7.9  0     0     1007.5   NA       0.0000   9999     0     0     0    
2019/07/07  03:00:02  BASE  1.9404   144  2.93412  142  -3.6  72    -8.0  0     0     1007.6   NA       0.0000   9999     0     0     0    
2019/07/07  03:01:02  BASE  2.1168   141  2.87532  140  -3.6  71    -8.0  0     0     1007.6   NA       0.0000   9999     0     0     0    
2019/07/07  03:02:00  BASE  2.1168   130  2.87532  140  -3.6  71    -8.1  0     0     1007.6   NA       0.0000   9999     0     0     0    
2019/07/07  03:03:02  BASE  2.11092  122  2.75184  135  -3.7  71    -8.2  0     0     1007.6   NA       0.0000   9999     0     0     0    
2019/07/07  03:04:01  BASE  2.24616  121  2.59896  123  -3.7  71    -8.2  0     0     1007.6   NA       0.0000   9999     0     0     0    
2019/07/07  03:05:02  BASE  2.25204  120  2.59896  123  -3.7  71    -8.2  0     0     1007.6   NA       0.0000   9999     0     0     0    
2019/07/07  03:06:01  BASE  2.11092  117  2.59896  123  -3.7  71    -8.2  0     0     1007.6   NA       0.0000   9999     0     0     0    
2019/07/07  03:07:01  BASE  2.1756   113  2.59896  123  -3.7  71    -8.2  0     0     1007.6   NA       0.0000   9999     0     0     0    
2019/07/07  03:08:02  BASE  2.31672  112  2.59896  123  -3.7  71    -8.2  0     0     1007.6   NA       0.0000   9999     0     0     0    
2019/07/07  03:09:01  BASE  2.38728  112  2.75184  102  -3.7  71    -8.1  0     0     1007.6   NA       0.0000   9999     0     0     0    
2019/07/07  03:10:02  BASE  2.19912  113  2.75184  102  -3.7  71    -8.1  0     0     1007.6   NA       0.0000   9999     0     0     0    
2019/07/07  03:11:01  BASE  2.11092  116  2.75184  102  -3.7  72    -8.1  0     0     1007.6   NA       0.0000   9999     0     0     0    
2019/07/07  03:12:01  BASE  2.13444  115  2.75184  102  -3.6  72    -8.0  0     0     1007.6   NA       0.0000   9999     0     0     0    
2019/07/07  03:13:02  BASE  2.1756   113  2.75184  102  -3.6  72    -8.0  0     0     1007.6   NA       0.0000   9999     0     0     0    
2019/07/07  03:14:01  BASE  2.1756   110  2.75184  102  -3.5  72    -7.9  0     0     1007.6   NA       0.0000   9999     0     0     0    
2019/07/07  03:15:01  BASE  2.15208  105  2.75184  102  -3.5  72    -7.8  0     0     1007.6   NA       0.0000   9999     0     0     0    
2019/07/07  03:16:02  BASE  2.19324  103  2.75184  102  -3.4  72    -7.6  0     0     1007.6   NA       0.0000   9999     0     0     0    
2019/07/07  03:17:02  BASE  1.95216  101  2.75184  102  -3.2  72    -7.5  0     0     1007.6   NA       0.0000   9999     0     0     0    
2019/07/07  03:18:02  BASE  1.78164  100  2.75184  102  -3.1  72    -7.4  0     0     1007.6   NA       0.0000   9999     0     0     0    
2019/07/07  03:19:02  BASE  1.80516  102  2.48136  113  -3.0  72    -7.3  0     0     1007.6   NA       0.0000   9999     0     0     0    
2019/07/07  03:20:02  BASE  1.62288  109  2.48136  113  -2.9  72    -7.3  0     0     1007.6   NA       0.0000   9999     0     0     0    
2019/07/07  03:21:01  BASE  1.4994   114  2.48136  113  -2.8  71    -7.3  0     0     1007.6   NA       0.0000   9999     0     0     0    
2019/07/07  03:22:02  BASE  1.58172  111  2.48136  113  -2.8  71    -7.3  0     0     1007.6   NA       0.0000   9999     0     0     0    
2019/07/07  03:23:02  BASE  1.72872  95   2.42256  64   -2.8  70    -7.5  0     0     1007.6   NA       0.0000   9999     0     0     0    
2019/07/07  03:24:01  BASE  2.04624  72   2.48136  63   -2.9  70    -7.7  0     0     1007.6   NA       0.0000   9999     0     0     0    
2019/07/07  03:25:01  BASE  2.2344   61   2.59896  60   -3.0  70    -7.8  0     0     1007.6   NA       0.0000   9999     0     0     0    
2019/07/07  03:26:01  BASE  2.13444  57   2.59896  60   -3.2  70    -7.9  0     0     1007.6   NA       0.0000   9999     0     0     0    
2019/07/07  03:27:01  BASE  2.09916  50   2.59896  60   -3.3  69    -8.1  0     0     1007.6   NA       0.0000   9999     0     0     0    
2019/07/07  03:28:01  BASE  1.95804  47   2.59896  60   -3.3  69    -8.1  0     0     1007.6   NA       0.0000   9999     0     0     0    
2019/07/07  03:29:01  BASE  1.74636  44   2.59896  60   -3.3  70    -8.1  0     0     1007.6   NA       0.0000   9999     0     0     0    
2019/07/07  03:30:02  BASE  1.90512  35   2.59896  60   -3.4  69    -8.2  0     0     1007.6   NA       0.0000   9999     0     0     0    
2019/07/07  03:31:01  BASE  2.06976  30   2.59896  60   -3.5  69    -8.3  0     0     1007.6   NA       0.0000   9999     0     0     0    
2019/07/07  03:32:01  BASE  1.97568  29   2.59896  60   -3.7  70    -8.4  0     0     1007.7   NA       0.0000   9999     0     0     0    
2019/07/07  03:33:01  BASE  1.92864  29   2.59896  60   -3.9  70    -8.6  0     0     1007.7   NA       0.0000   9999     0     0     0    
2019/07/07  03:34:02  BASE  2.2344   30   2.99292  23   -4.1  70    -8.7  0     0     1007.7   NA       0.0000   9999     0     0     0    
2019/07/07  03:35:02  BASE  2.43432  27   2.99292  23   -4.2  71    -8.8  0     0     1007.7   NA       0.0000   9999     0     0     0    
2019/07/07  03:36:01  BASE  2.3226   24   2.99292  23   -4.3  71    -8.8  0     0     1007.7   NA       0.0000   9999     0     0     0    
2019/07/07  03:37:02  BASE  2.14032  26   2.99292  23   -4.3  71    -8.7  0     0     1007.7   NA       0.0000   9999     0     0     0    
2019/07/07  03:38:01  BASE  1.83456  29   2.99292  23   -4.3  72    -8.7  0     0     1007.7   NA       0.0000   9999     0     0     0    
2019/07/07  03:39:01  BASE  1.54056  35   2.99292  23   -4.3  72    -8.6  0     0     1007.8   NA       0.0000   9999     0     0     0    
2019/07/07  03:40:01  BASE  1.54056  38   2.99292  23   -4.2  72    -8.5  0     0     1007.8   NA       0.0000   9999     0     0     0    
2019/07/07  03:41:02  BASE  1.59936  36   2.99292  23   -4.1  72    -8.4  0     0     1007.8   NA       0.0000   9999     0     0     0    
2019/07/07  03:42:01  BASE  1.4112   37   2.99292  23   -4.0  72    -8.3  0     0     1007.8   NA       0.0000   9999     0     0     0    
2019/07/07  03:43:01  BASE  1.12308  41   2.99292  23   -4.0  72    -8.3  0     0     1007.7   NA       0.0000   9999     0     0     0    
2019/07/07  03:44:01  BASE  1.07604  40   2.75184  25   -3.9  72    -8.2  0     0     1007.8   NA       0.0000   9999     0     0     0    
2019/07/07  03:45:01  BASE  1.21128  37   2.42256  22   -3.7  71    -8.2  0     0     1007.8   NA       0.0000   9999     0     0     0    
2019/07/07  03:46:02  BASE  1.34064  35   2.24028  24   -3.7  71    -8.2  0     0     1007.8   NA       0.0000   9999     0     0     0    
2019/07/07  03:47:02  BASE  1.43472  34   1.84632  32   -3.6  71    -8.2  0     0     1007.8   NA       0.0000   9999     0     0     0    
2019/07/07  03:48:01  BASE  1.48176  35   1.84632  32   -3.6  70    -8.2  0     0     1007.8   NA       0.0000   9999     0     0     0    
2019/07/07  03:49:01  BASE  1.39356  35   1.84632  32   -3.7  70    -8.3  0     0     1007.8   NA       0.0000   9999     0     0     0    
2019/07/07  03:50:01  BASE  1.27008  34   1.84632  32   -3.7  70    -8.4  0     0     1007.8   NA       0.0000   9999     0     0     0    
2019/07/07  03:51:01  BASE  1.45236  31   1.75224  32   -3.8  70    -8.5  0     0     1007.8   NA       0.0000   9999     0     0     0    
2019/07/07  03:52:01  BASE  1.64052  30   1.75224  32   -3.9  70    -8.5  0     0     1007.8   NA       0.0000   9999     0     0     0    
2019/07/07  03:53:02  BASE  1.59348  34   1.75224  32   -3.9  70    -8.5  0     0     1007.8   NA       0.0000   9999     0     0     0    
2019/07/07  03:54:01  BASE  1.51116  36   1.75224  32   -4.0  71    -8.5  0     0     1007.8   NA       0.0000   9999     0     0     0    
2019/07/07  03:55:03  BASE  1.49352  39   1.75224  32   -4.0  71    -8.5  0     0     1007.8   NA       0.0000   9999     0     0     0    
2019/07/07  03:56:01  BASE  1.51704  43   1.75224  32   -4.0  71    -8.5  0     0     1007.8   NA       0.0000   9999     0     0     0    
2019/07/07  03:57:02  BASE  1.56408  45   1.75224  32   -4.1  71    -8.5  0     0     1007.8   NA       0.0000   9999     0     0     0    
2019/07/07  03:58:01  BASE  1.54644  48   1.75224  32   -4.1  71    -8.6  0     0     1007.8   NA       0.0000   9999     0     0     0    
2019/07/07  03:59:02  BASE  1.5288   47   1.75224  32   -4.1  71    -8.5  0     0     1007.8   NA       0.0000   9999     0     0     0    
2019/07/07  04:00:01  BASE  1.53468  42   1.75224  32   -4.0  71    -8.6  0     0     1007.8   NA       0.0000   9999     0     0     0    
2019/07/07  04:01:01  BASE  1.55232  42   1.72284  41   -4.0  71    -8.6  0     0     1007.8   NA       0.0000   9999     0     0     0    
2019/07/07  04:02:01  BASE  1.68756  42   1.87572  40   -4.0  70    -8.6  0     0     1007.8   NA       0.0000   9999     0     0     0    
2019/07/07  04:03:01  BASE  1.75224  42   1.87572  40   -4.0  70    -8.6  0     0     1007.8   NA       0.0000   9999     0     0     0    
2019/07/07  04:04:02  BASE  1.83456  45   2.0286   48   -4.0  70    -8.7  0     0     1007.8   NA       0.0000   9999     0     0     0    
2019/07/07  04:05:02  BASE  2.0286   48   2.32848  48   -4.0  70    -8.7  0     0     1007.8   NA       0.0000   9999     0     0     0    
2019/07/07  04:06:01  BASE  2.07564  49   2.32848  48   -4.1  70    -8.7  0     0     1007.8   NA       0.0000   9999     0     0     0    
2019/07/07  04:07:02  BASE  2.15208  48   2.42256  44   -4.1  70    -8.7  0     0     1007.8   NA       0.0000   9999     0     0     0    
2019/07/07  04:08:01  BASE  2.34612  45   2.56956  45   -4.1  70    -8.8  0     0     1007.8   NA       0.0000   9999     0     0     0    
2019/07/07  04:09:01  BASE  2.2932   44   2.56956  45   -4.1  70    -8.8  0     0     1007.8   NA       0.0000   9999     0     0     0    
2019/07/07  04:10:01  BASE  2.15208  43   2.56956  45   -4.1  70    -8.8  0     0     1007.8   NA       0.0000   9999     0     0     0    
2019/07/07  04:11:01  BASE  2.0874   41   2.56956  45   -4.2  70    -8.8  0     0     1007.8   NA       0.0000   9999     0     0     0    
2019/07/07  04:12:01  BASE  1.98744  38   2.56956  45   -4.2  70    -8.8  0     0     1007.9   NA       0.0000   9999     0     0     0    
2019/07/07  04:13:01  BASE  1.89336  38   2.56956  45   -4.2  71    -8.7  0     0     1007.9   NA       0.0000   9999     0     0     0    
2019/07/07  04:14:02  BASE  1.8228   37   2.56956  45   -4.2  71    -8.7  0     0     1007.8   NA       0.0000   9999     0     0     0    
2019/07/07  04:15:01  BASE  1.69344  35   2.56956  45   -4.1  71    -8.7  0     0     1007.8   NA       0.0000   9999     0     0     0    
2019/07/07  04:16:01  BASE  1.60524  35   2.56956  45   -4.1  71    -8.7  0     0     1007.8   NA       0.0000   9999     0     0     0    
2019/07/07  04:17:01  BASE  1.69932  32   2.56956  45   -4.1  70    -8.7  0     0     1007.9   NA       0.0000   9999     0     0     0    
2019/07/07  04:18:01  BASE  1.77576  28   2.24028  44   -4.1  70    -8.7  0     0     1007.8   NA       0.0000   9999     0     0     0    
2019/07/07  04:19:01  BASE  1.77576  29   2.21088  44   -4.1  70    -8.7  0     0     1007.8   NA       0.0000   9999     0     0     0    
2019/07/07  04:20:02  BASE  1.84044  30   2.1756   39   -4.0  70    -8.7  0     0     1007.8   NA       0.0000   9999     0     0     0    
2019/07/07  04:21:02  BASE  1.81692  29   1.9992   38   -4.0  70    -8.7  0     0     1007.8   NA       0.0000   9999     0     0     0    
2019/07/07  04:22:01  BASE  1.68756  32   1.96392  29   -4.0  70    -8.7  0     0     1007.8   NA       0.0000   9999     0     0     0    
2019/07/07  04:23:01  BASE  1.60524  32   1.96392  29   -4.1  70    -8.7  0     0     1007.8   NA       0.0000   9999     0     0     0    
2019/07/07  04:24:02  BASE  1.56996  33   1.96392  29   -4.1  70    -8.7  0     0     1007.8   NA       0.0000   9999     0     0     0    
2019/07/07  04:25:02  BASE  1.48764  33   1.96392  29   -4.1  70    -8.7  0     0     1007.8   NA       0.0000   9999     0     0     0    
2019/07/07  04:26:01  BASE  1.31124  32   1.96392  29   -4.1  70    -8.7  0     0     1007.8   NA       0.0000   9999     0     0     0    
2019/07/07  04:27:01  BASE  1.08192  33   1.96392  29   -4.1  70    -8.7  0     0     1007.8   NA       0.0000   9999     0     0     0    
2019/07/07  04:28:01  BASE  1.02312  31   1.96392  29   -4.0  70    -8.6  0     0     1007.8   NA       0.0000   9999     0     0     0    
2019/07/07  04:29:02  BASE  1.28772  26   1.96392  29   -4.0  70    -8.6  0     0     1007.8   NA       0.0000   9999     0     0     0    
2019/07/07  04:30:02  BASE  1.59348  23   1.87572  28   -3.9  70    -8.6  0     0     1007.9   NA       0.0000   9999     0     0     0    
2019/07/07  04:31:01  BASE  1.72284  25   1.84632  23   -3.9  70    -8.6  0     0     1007.9   NA       0.0000   9999     0     0     0    
2019/07/07  04:32:01  BASE  1.78164  31   1.87572  35   -3.9  69    -8.7  0     0     1007.9   NA       0.0000   9999     0     0     0    
2019/07/07  04:33:01  BASE  1.64052  37   1.87572  35   -3.9  69    -8.7  0     0     1007.9   NA       0.0000   9999     0     0     0    
2019/07/07  04:34:01  BASE  1.38768  40   1.87572  35   -3.9  69    -8.7  0     0     1007.9   NA       0.0000   9999     0     0     0    
2019/07/07  04:35:03  BASE  1.24068  40   1.87572  35   -3.9  69    -8.7  0     0     1007.9   NA       0.0000   9999     0     0     0    
2019/07/07  04:36:01  BASE  1.19952  38   1.87572  35   -3.9  69    -8.7  0     0     1007.9   NA       0.0000   9999     0     0     0    
2019/07/07  04:37:01  BASE  1.21128  43   1.87572  35   -3.8  69    -8.7  0     0     1007.9   NA       0.0000   9999     0     0     0    
2019/07/07  04:38:01  BASE  1.24068  53   1.87572  35   -3.8  69    -8.7  0     0     1007.9   NA       0.0000   9999     0     0     0    
2019/07/07  04:39:01  BASE  1.1466   62   1.87572  35   -3.8  69    -8.7  0     0     1007.9   NA       0.0000   9999     0     0     0    
2019/07/07  04:40:01  BASE  1.00548  68   1.87572  35   -3.8  69    -8.7  0     0     1007.9   NA       0.0000   9999     0     0     0    
2019/07/07  04:41:01  BASE  0.6468   59   1.87572  35   -3.8  69    -8.7  0     0     1007.9   NA       0.0000   9999     0     0     0    
2019/07/07  04:42:02  BASE  0.3822   48   1.66404  43   -3.8  69    -8.6  0     0     1007.9   NA       0.0000   9999     0     0     0    
2019/07/07  04:43:01  BASE  0.34692  42   1.35828  40   -3.7  69    -8.6  0     0     1008.0   NA       0.0000   9999     0     0     0    
2019/07/07  04:44:01  BASE  0.52332  33   1.32888  53   -3.6  69    -8.5  0     0     1008.0   NA       0.0000   9999     0     0     0    
2019/07/07  04:45:02  BASE  0.7938   34   1.32888  53   -3.5  68    -8.5  0     0     1008.0   NA       0.0000   9999     0     0     0    
2019/07/07  04:46:01  BASE  0.92904  40   1.32888  53   -3.5  68    -8.6  0     0     1008.0   NA       0.0000   9999     0     0     0    
2019/07/07  04:47:01  BASE  1.08192  37   1.29948  58   -3.5  68    -8.6  0     0     1008.0   NA       0.0000   9999     0     0     0    
2019/07/07  04:48:01  BASE  1.01724  35   1.21128  33   -3.6  68    -8.7  0     0     1008.0   NA       0.0000   9999     0     0     0    
2019/07/07  04:49:01  BASE  0.8232   37   1.21128  33   -3.7  68    -8.8  0     0     1008.0   NA       0.0000   9999     0     0     0    
2019/07/07  04:50:02  BASE  0.3822   39   1.21128  33   -3.7  68    -8.8  0     0     1008.0   NA       0.0000   9999     0     0     0    
2019/07/07  04:51:02  BASE  0.39984  35   1.21128  33   -3.7  68    -8.7  0     0     1008.0   NA       0.0000   9999     0     0     0    
2019/07/07  04:52:01  BASE  0.97608  23   1.29948  17   -3.7  68    -8.7  0     0     1008.0   NA       0.0000   9999     0     0     0    
2019/07/07  04:53:02  BASE  1.07604  18   1.29948  17   -3.7  68    -8.7  0     0     1008.0   NA       0.0000   9999     0     0     0    
2019/07/07  04:54:02  BASE  0.882    21   1.29948  17   -3.7  68    -8.7  0     0     1008.0   NA       0.0000   9999     0     0     0    
2019/07/07  04:55:02  BASE  0.90552  21   1.29948  17   -3.8  68    -8.9  0     0     1008.0   NA       0.0000   9999     0     0     0    
2019/07/07  04:56:01  BASE  1.03488  20   1.29948  17   -3.9  68    -8.9  0     0     1008.0   NA       0.0000   9999     0     0     0    
2019/07/07  04:57:02  BASE  1.03488  22   1.29948  17   -4.0  68    -9.0  0     0     1008.1   NA       0.0000   9999     0     0     0    
2019/07/07  04:58:01  BASE  0.882    22   1.29948  17   -4.1  69    -9.0  0     0     1008.2   NA       0.0000   9999     0     0     0    
2019/07/07  04:59:01  BASE  0.78792  16   1.29948  17   -4.1  69    -8.9  0     0     1008.2   NA       0.0000   9999     0     0     0    
2019/07/07  05:00:02  BASE  0.79968  12   1.29948  17   -4.2  70    -8.8  0     0     1008.2   NA       0.0000   9999     0     0     0    
2019/07/07  05:01:02  BASE  0.82908  17   1.29948  17   -4.1  70    -8.7  0     0     1008.2   NA       0.0000   9999     0     0     0    
2019/07/07  05:02:02  BASE  0.98196  22   1.24068  22   -4.1  71    -8.7  0     0     1008.2   NA       0.0000   9999     0     0     0    
2019/07/07  05:03:01  BASE  1.12308  22   1.27008  20   -4.1  71    -8.6  0     0     1008.2   NA       0.0000   9999     0     0     0    
2019/07/07  05:04:01  BASE  0.98196  28   1.27008  20   -4.1  71    -8.6  0     0     1008.2   NA       0.0000   9999     0     0     0    
2019/07/07  05:05:01  BASE  0.39984  38   1.27008  20   -4.2  71    -8.6  0     0     1008.2   NA       0.0000   9999     0     0     0    
2019/07/07  05:06:01  BASE  0.24696  38   1.27008  20   -4.2  71    -8.6  0     0     1008.2   NA       0.0000   9999     0     0     0    
2019/07/07  05:07:01  BASE  0.74676  25   1.48176  10   -4.2  71    -8.6  0     0     1008.2   NA       0.0000   9999     0     0     0    
2019/07/07  05:08:01  BASE  1.31124  12   1.75224  5    -4.2  71    -8.6  0     0     1008.2   NA       0.0000   9999     0     0     0    
2019/07/07  05:09:02  BASE  1.5876   5    1.75224  6    -4.2  71    -8.6  0     0     1008.2   NA       0.0000   9999     0     0     0    
2019/07/07  05:10:02  BASE  1.37592  3    1.75224  6    -4.2  71    -8.6  0     0     1008.2   NA       0.0000   9999     0     0     0    
2019/07/07  05:11:02  BASE  1.029    6    1.75224  6    -4.2  71    -8.6  0     0     1008.2   NA       0.0000   9999     0     0     0    
2019/07/07  05:12:01  BASE  0.43512  13   1.75224  6    -4.2  72    -8.6  0     0     1008.2   NA       0.0000   9999     0     0     0    
2019/07/07  05:13:02  BASE  0        20   1.75224  6    -4.2  72    -8.5  0     0     1008.2   NA       0.0000   9999     0     0     0    
2019/07/07  05:14:01  BASE  0        20   1.75224  6    -4.2  72    -8.4  0     0     1008.3   NA       0.0000   9999     0     0     0    
2019/07/07  05:15:01  BASE  0        17   1.75224  6    -4.1  72    -8.4  0     0     1008.3   NA       0.0000   9999     0     0     0    
2019/07/07  05:16:01  BASE  0        17   1.75224  6    -4.1  72    -8.4  0     0     1008.3   NA       0.0000   9999     0     0     0    
2019/07/07  05:17:01  BASE  0        21   1.75224  6    -4.0  72    -8.4  0     0     1008.3   NA       0.0000   9999     0     0     0    
2019/07/07  05:18:01  BASE  0.11172  29   1.75224  6    -3.9  71    -8.4  0     0     1008.3   NA       0.0000   9999     0     0     0    
2019/07/07  05:19:01  BASE  0.11172  29   1.35828  2    -3.9  71    -8.4  0     0     1008.3   NA       0.0000   9999     0     0     0    
2019/07/07  05:20:02  BASE  0        24   1.0584   4    -3.8  70    -8.5  0     0     1008.4   NA       0.0000   9999     0     0     0    
2019/07/07  05:21:01  BASE  0.24108  19   0.75852  18   -3.8  70    -8.5  0     0     1008.4   NA       0.0000   9999     0     0     0    
2019/07/07  05:22:01  BASE  0.68208  15   0.93492  8    -3.8  69    -8.5  0     0     1008.4   NA       0.0000   9999     0     0     0    
2019/07/07  05:23:01  BASE  0.90552  14   0.9702   15   -3.8  69    -8.6  0     0     1008.4   NA       0.0000   9999     0     0     0    
2019/07/07  05:24:02  BASE  0.92904  23   1.029    27   -3.8  69    -8.7  0     0     1008.4   NA       0.0000   9999     0     0     0    
2019/07/07  05:25:01  BASE  0.91728  37   1.029    27   -3.8  69    -8.7  0     0     1008.4   NA       0.0000   9999     0     0     0    
2019/07/07  05:26:01  BASE  0.64092  50   1.029    27   -3.9  69    -8.8  0     0     1008.4   NA       0.0000   9999     0     0     0    
2019/07/07  05:27:02  BASE  0.18228  73   1.029    27   -3.9  69    -8.8  0     0     1008.4   NA       0.0000   9999     0     0     0    
2019/07/07  05:28:01  BASE  0        101  1.029    27   -3.9  69    -8.7  0     0     1008.4   NA       0.0000   9999     0     0     0    
2019/07/07  05:29:01  BASE  0        108  1.029    27   -3.9  70    -8.7  0     0     1008.4   NA       0.0000   9999     0     0     0    
2019/07/07  05:30:01  BASE  0        104  1.029    27   -3.8  70    -8.5  0     0     1008.4   NA       0.0000   9999     0     0     0    
2019/07/07  05:31:01  BASE  0        95   1.029    27   -3.7  70    -8.4  0     0     1008.3   NA       0.0000   9999     0     0     0    
2019/07/07  05:32:01  BASE  0.31752  63   1.29948  41   -3.5  69    -8.3  0     0     1008.3   NA       0.0000   9999     0     0     0    
2019/07/07  05:33:01  BASE  1.0584   38   1.54056  37   -3.5  69    -8.4  0     0     1008.3   NA       0.0000   9999     0     0     0    
2019/07/07  05:34:01  BASE  1.47588  39   1.54056  37   -3.6  68    -8.6  0     0     1008.3   NA       0.0000   9999     0     0     0    
2019/07/07  05:35:03  BASE  1.50528  38   1.57584  36   -3.7  68    -8.7  0     0     1008.3   NA       0.0000   9999     0     0     0    
2019/07/07  05:36:01  BASE  1.5288   36   1.60524  33   -3.9  69    -8.8  0     0     1008.3   NA       0.0000   9999     0     0     0    
2019/07/07  05:37:02  BASE  1.51704  40   1.69344  44   -4.1  69    -8.9  0     0     1008.3   NA       0.0000   9999     0     0     0    
2019/07/07  05:38:02  BASE  1.44648  46   1.69344  44   -4.2  70    -8.8  0     0     1008.3   NA       0.0000   9999     0     0     0    
2019/07/07  05:39:02  BASE  1.42884  52   1.69344  44   -4.2  71    -8.7  0     0     1008.3   NA       0.0000   9999     0     0     0    
2019/07/07  05:40:01  BASE  1.47     58   1.69344  44   -4.1  71    -8.6  0     0     1008.3   NA       0.0000   9999     0     0     0    
2019/07/07  05:41:01  BASE  1.45824  62   1.69344  44   -4.1  71    -8.5  0     0     1008.3   NA       0.0000   9999     0     0     0    
2019/07/07  05:42:01  BASE  1.42884  69   1.69344  44   -4.1  72    -8.5  0     0     1008.3   NA       0.0000   9999     0     0     0    
2019/07/07  05:43:01  BASE  1.43472  74   1.69344  44   -4.1  72    -8.4  0     0     1008.3   NA       0.0000   9999     0     0     0    
2019/07/07  05:44:01  BASE  1.51116  79   1.69344  44   -4.1  72    -8.4  0     0     1008.3   NA       0.0000   9999     0     0     0    
2019/07/07  05:45:02  BASE  1.61112  87   1.78752  102  -4.1  72    -8.4  0     0     1008.4   NA       0.0000   9999     0     0     0    
2019/07/07  05:46:02  BASE  1.74048  99   1.81692  104  -4.1  72    -8.4  0     0     1008.4   NA       0.0000   9999     0     0     0    
2019/07/07  05:47:02  BASE  1.66992  106  1.81692  104  -4.0  72    -8.4  0     0     1008.4   NA       0.0000   9999     0     0     0    
2019/07/07  05:48:01  BASE  1.50528  109  1.81692  104  -3.9  72    -8.3  0     0     1008.3   NA       0.0000   9999     0     0     0    
2019/07/07  05:49:02  BASE  1.5288   118  1.81692  104  -3.9  72    -8.2  0     0     1008.3   NA       0.0000   9999     0     0     0    
2019/07/07  05:50:01  BASE  1.72284  125  2.1168   128  -3.8  71    -8.3  0     0     1008.3   NA       0.0000   9999     0     0     0    
2019/07/07  05:51:02  BASE  1.9404   130  2.1756   133  -3.9  71    -8.4  0     0     1008.3   NA       0.0000   9999     0     0     0    
2019/07/07  05:52:01  BASE  2.0286   135  2.1756   141  -4.0  71    -8.6  0     0     1008.4   NA       0.0000   9999     0     0     0    
2019/07/07  05:53:01  BASE  2.00508  140  2.24028  142  -4.2  71    -8.7  0     0     1008.4   NA       0.0000   9999     0     0     0    
2019/07/07  05:54:01  BASE  1.9698   144  2.24028  144  -4.3  71    -8.8  0     0     1008.4   NA       0.0000   9999     0     0     0    
2019/07/07  05:55:01  BASE  1.95216  145  2.24028  144  -4.3  72    -8.7  0     0     1008.4   NA       0.0000   9999     0     0     0    
2019/07/07  05:56:02  BASE  1.76988  145  2.24028  144  -4.3  72    -8.6  0     0     1008.4   NA       0.0000   9999     0     0     0    
2019/07/07  05:57:02  BASE  1.45236  139  2.24028  144  -4.2  73    -8.4  0     0     1008.4   NA       0.0000   9999     0     0     0    
2019/07/07  05:58:01  BASE  1.19952  126  2.24028  144  -4.2  73    -8.3  0     0     1008.4   NA       0.0000   9999     0     0     0    
2019/07/07  05:59:01  BASE  1.029    112  2.24028  144  -4.1  74    -8.1  0     0     1008.4   NA       0.0000   9999     0     0     0    
2019/07/07  06:00:02  BASE  0.97608  113  2.24028  144  -4.0  74    -8.0  0     0     1008.4   NA       0.0000   9999     0     0     0    
2019/07/07  06:01:02  BASE  0.89376  112  2.24028  144  -3.9  74    -7.8  0     0     1008.4   NA       0.0000   9999     0     0     0    
2019/07/07  06:02:01  BASE  1.12896  81   2.24028  144  -3.7  75    -7.6  0     0     1008.4   NA       0.0000   9999     0     0     0    
2019/07/07  06:03:01  BASE  1.41708  59   2.24028  144  -3.7  75    -7.5  0     0     1008.4   NA       0.0000   9999     0     0     0    
2019/07/07  06:04:01  BASE  1.50528  55   2.0874   149  -3.6  75    -7.5  0     0     1008.4   NA       0.0000   9999     0     0     0    
2019/07/07  06:05:01  BASE  1.39944  51   1.96392  59   -3.6  74    -7.5  0     0     1008.4   NA       0.0000   9999     0     0     0    
2019/07/07  06:06:01  BASE  1.0584   45   1.96392  59   -3.6  74    -7.7  0     0     1008.4   NA       0.0000   9999     0     0     0    
2019/07/07  06:07:01  BASE  0.66444  52   1.96392  59   -3.6  73    -7.8  0     0     1008.4   NA       0.0000   9999     0     0     0    
2019/07/07  06:08:01  BASE  0.27048  53   1.96392  59   -3.6  73    -7.8  0     0     1008.4   NA       0.0000   9999     0     0     0    
2019/07/07  06:09:01  BASE  0.294    35   1.96392  59   -3.6  72    -7.9  0     0     1008.4   NA       0.0000   9999     0     0     0    
2019/07/07  06:10:02  BASE  0.74676  25   1.96392  59   -3.7  72    -8.0  0     0     1008.4   NA       0.0000   9999     0     0     0    
2019/07/07  06:11:01  BASE  1.0878   19   1.96392  59   -3.7  72    -8.1  0     0     1008.4   NA       0.0000   9999     0     0     0    
2019/07/07  06:12:02  BASE  1.0584   18   1.90512  50   -3.8  72    -8.1  0     0     1008.4   NA       0.0000   9999     0     0     0    
2019/07/07  06:13:01  BASE  1.0878   16   1.90512  50   -3.8  72    -8.2  0     0     1008.4   NA       0.0000   9999     0     0     0    
2019/07/07  06:14:01  BASE  1.38768  11   1.69344  4    -3.9  72    -8.2  0     0     1008.4   NA       0.0000   9999     0     0     0    
2019/07/07  06:15:01  BASE  1.62876  7    1.84632  10   -3.9  72    -8.2  0     0     1008.4   NA       0.0000   9999     0     0     0    
2019/07/07  06:16:01  BASE  1.66992  5    1.84632  10   -3.9  72    -8.2  0     0     1008.4   NA       0.0000   9999     0     0     0    
2019/07/07  06:17:02  BASE  1.51116  5    1.84632  10   -3.9  72    -8.2  0     0     1008.4   NA       0.0000   9999     0     0     0    
2019/07/07  06:18:01  BASE  1.30536  8    1.84632  10   -4.0  72    -8.2  0     0     1008.4   NA       0.0000   9999     0     0     0    
2019/07/07  06:19:01  BASE  1.27008  16   1.84632  10   -4.0  72    -8.2  0     0     1008.4   NA       0.0000   9999     0     0     0    
2019/07/07  06:20:02  BASE  1.10544  18   1.84632  10   -4.0  73    -8.2  0     0     1008.4   NA       0.0000   9999     0     0     0    
2019/07/07  06:21:01  BASE  0.98784  9    1.84632  10   -3.9  73    -8.1  0     0     1008.4   NA       0.0000   9999     0     0     0    
2019/07/07  06:22:01  BASE  1.21128  1    1.84632  10   -3.9  73    -8.1  0     0     1008.4   NA       0.0000   9999     0     0     0    
2019/07/07  06:23:02  BASE  1.42884  357  1.84632  10   -3.9  73    -8.1  0     0     1008.3   NA       0.0000   9999     0     0     0    
2019/07/07  06:24:01  BASE  1.47588  358  1.84632  10   -3.9  72    -8.1  0     0     1008.3   NA       0.0000   9999     0     0     0    
2019/07/07  06:25:02  BASE  1.59348  0    1.81692  13   -3.9  72    -8.1  0     0     1008.4   NA       0.0000   9999     0     0     0    
2019/07/07  06:26:02  BASE  1.69344  4    1.81692  13   -3.9  72    -8.2  0     0     1008.4   NA       0.0000   9999     0     0     0    
2019/07/07  06:27:01  BASE  1.7052   12   1.90512  16   -3.9  72    -8.2  0     0     1008.4   NA       0.0000   9999     0     0     0    
2019/07/07  06:28:01  BASE  1.911    23   2.26968  26   -3.9  72    -8.2  0     0     1008.4   NA       0.0000   9999     0     0     0    
2019/07/07  06:29:01  BASE  2.08152  24   2.29908  18   -3.9  72    -8.3  0     0     1008.4   NA       0.0000   9999     0     0     0    
2019/07/07  06:30:02  BASE  2.01096  26   2.29908  18   -4.0  72    -8.3  0     0     1008.4   NA       0.0000   9999     0     0     0    
2019/07/07  06:31:01  BASE  1.99332  37   2.29908  18   -4.1  72    -8.3  0     0     1008.4   NA       0.0000   9999     0     0     0    
2019/07/07  06:32:01  BASE  2.08152  43   2.29908  18   -4.1  73    -8.3  0     0     1008.4   NA       0.0000   9999     0     0     0    
2019/07/07  06:33:01  BASE  2.05212  42   2.29908  18   -4.1  73    -8.3  0     0     1008.4   NA       0.0000   9999     0     0     0    
2019/07/07  06:34:01  BASE  1.911    42   2.29908  18   -4.1  73    -8.2  0     0     1008.4   NA       0.0000   9999     0     0     0    
2019/07/07  06:35:03  BASE  1.87572  47   2.29908  18   -4.1  73    -8.2  0     0     1008.4   NA       0.0000   9999     0     0     0    
2019/07/07  06:36:02  BASE  1.90512  52   2.29908  18   -4.0  73    -8.2  0     0     1008.4   NA       0.0000   9999     0     0     0    
2019/07/07  06:37:01  BASE  2.01096  57   2.29908  18   -4.0  72    -8.2  0     0     1008.4   NA       0.0000   9999     0     0     0    
2019/07/07  06:38:02  BASE  2.04036  60   2.29908  18   -3.9  72    -8.2  0     0     1008.4   NA       0.0000   9999     0     0     0    
2019/07/07  06:39:01  BASE  1.89924  60   2.24028  57   -3.8  71    -8.2  0     0     1008.4   NA       0.0000   9999     0     0     0    
2019/07/07  06:40:02  BASE  1.76988  59   2.24028  57   -3.7  71    -8.2  0     0     1008.4   NA       0.0000   9999     0     0     0    
2019/07/07  06:41:01  BASE  1.45236  55   2.24028  57   -3.6  70    -8.3  0     0     1008.4   NA       0.0000   9999     0     0     0    
2019/07/07  06:42:01  BASE  0.79968  46   2.24028  57   -3.5  69    -8.3  0     0     1008.4   NA       0.0000   9999     0     0     0    
2019/07/07  06:43:02  BASE  0.2646   40   2.24028  57   -3.2  68    -8.3  0     0     1008.4   NA       0.0000   9999     0     0     0    
2019/07/07  06:44:02  BASE  0.25872  40   2.24028  57   -3.0  67    -8.3  0     0     1008.4   NA       0.0000   9999     0     0     0    
2019/07/07  06:45:01  BASE  1.03488  35   2.24028  26   -2.8  66    -8.4  0     0     1008.4   NA       0.0000   9999     0     0     0    
2019/07/07  06:46:02  BASE  2.24028  27   2.87532  34   -2.8  64    -8.6  0     0     1008.4   NA       0.0000   9999     0     0     0    
2019/07/07  06:47:01  BASE  2.74008  26   2.96352  25   -2.9  63    -8.9  0     0     1008.4   NA       0.0000   9999     0     0     0    
2019/07/07  06:48:01  BASE  2.52252  26   2.96352  25   -3.1  63    -9.2  0     0     1008.4   NA       0.0000   9999     0     0     0    
2019/07/07  06:49:01  BASE  2.1168   26   2.96352  25   -3.4  63    -9.4  0     0     1008.4   NA       0.0000   9999     0     0     0    
2019/07/07  06:50:01  BASE  1.81104  30   2.96352  25   -3.7  64    -9.5  0     0     1008.4   NA       0.0000   9999     0     0     0    
2019/07/07  06:51:02  BASE  1.75224  32   2.96352  25   -3.9  65    -9.4  0     0     1008.4   NA       0.0000   9999     0     0     0    
2019/07/07  06:52:01  BASE  1.89336  34   2.96352  25   -3.9  67    -9.2  0     0     1008.4   NA       0.0000   9999     0     0     0    
2019/07/07  06:53:01  BASE  2.02272  35   2.96352  25   -3.9  67    -9.1  0     0     1008.3   NA       0.0000   9999     0     0     0    
2019/07/07  06:54:01  BASE  1.97568  36   2.96352  25   -3.9  68    -9.0  0     0     1008.3   NA       0.0000   9999     0     0     0    
2019/07/07  06:55:01  BASE  1.89924  36   2.96352  25   -3.8  68    -8.9  0     0     1008.3   NA       0.0000   9999     0     0     0    
2019/07/07  06:56:02  BASE  1.911    35   2.96352  25   -3.8  68    -8.8  0     0     1008.3   NA       0.0000   9999     0     0     0    
2019/07/07  06:57:02  BASE  1.93452  33   2.69304  28   -3.7  67    -8.8  0     0     1008.4   NA       0.0000   9999     0     0     0    
2019/07/07  06:58:02  BASE  1.86396  29   2.21088  37   -3.6  67    -8.8  0     0     1008.4   NA       0.0000   9999     0     0     0    
2019/07/07  06:59:01  BASE  1.62876  27   2.21088  37   -3.5  66    -8.9  0     0     1008.4   NA       0.0000   9999     0     0     0    
2019/07/07  07:00:02  BASE  1.39944  28   2.21088  37   -3.4  65    -9.0  0     0     1008.4   NA       0.0000   9999     0     0     0    
2019/07/07  07:01:02  BASE  1.47     28   2.21088  37   -3.3  65    -9.1  0     0     1008.4   NA       0.0000   9999     0     0     0    
2019/07/07  07:02:01  BASE  1.78752  28   2.21088  37   -3.3  64    -9.1  0     0     1008.4   NA       0.0000   9999     0     0     0    
2019/07/07  07:03:01  BASE  2.06388  46   2.42256  79   -3.3  64    -9.2  0     0     1008.4   NA       0.0000   9999     0     0     0    
2019/07/07  07:04:01  BASE  2.1756   67   2.63424  76   -3.3  63    -9.3  0     0     1008.4   NA       0.0000   9999     0     0     0    
2019/07/07  07:05:01  BASE  2.0874   68   2.63424  76   -3.3  63    -9.3  0     0     1008.4   NA       0.0000   9999     0     0     0    
2019/07/07  07:06:01  BASE  1.89336  66   2.63424  76   -3.3  63    -9.3  0     0     1008.4   NA       0.0000   9999     0     0     0    
2019/07/07  07:07:02  BASE  1.75812  67   2.63424  76   -3.2  63    -9.3  0     0     1008.4   NA       0.0000   9999     0     0     0    
2019/07/07  07:08:01  BASE  1.764    64   2.63424  76   -3.1  63    -9.3  0     0     1008.4   NA       0.0000   9999     0     0     0    
2019/07/07  07:09:01  BASE  1.84044  63   2.63424  76   -3.0  62    -9.2  0     0     1008.4   NA       0.0000   9999     0     0     0    
2019/07/07  07:10:01  BASE  1.8228   64   2.63424  76   -2.9  62    -9.2  0     0     1008.4   NA       0.0000   9999     0     0     0    
2019/07/07  07:11:02  BASE  1.65228  72   2.63424  76   -2.9  62    -9.3  0     0     1008.4   NA       0.0000   9999     0     0     0    
2019/07/07  07:12:02  BASE  1.60524  104  2.63424  76   -3.0  62    -9.4  0     0     1008.4   NA       0.0000   9999     0     0     0    
2019/07/07  07:13:01  BASE  1.45236  146  2.63424  76   -3.2  62    -9.5  0     0     1008.4   NA       0.0000   9999     0     0     0    
2019/07/07  07:14:01  BASE  1.38768  164  2.21088  64   -3.2  62    -9.5  0     0     1008.4   NA       0.0000   9999     0     0     0    
2019/07/07  07:15:02  BASE  1.6758   172  2.0874   117  -3.4  63    -9.4  0     0     1008.4   NA       0.0000   9999     0     0     0    
2019/07/07  07:16:01  BASE  1.72872  175  2.0874   117  -3.4  65    -9.1  0     0     1008.4   NA       0.0000   9999     0     0     0    
2019/07/07  07:17:01  BASE  1.66992  174  2.0874   117  -3.4  67    -8.7  0     0     1008.4   NA       0.0000   9999     0     0     0    
2019/07/07  07:18:01  BASE  1.617    171  2.0874   117  -3.4  69    -8.3  0     0     1008.4   NA       0.0000   9999     0     0     0    
2019/07/07  07:19:01  BASE  1.7052   162  2.0874   160  -3.4  70    -8.1  0     0     1008.5   NA       0.0000   9999     0     0     0    
2019/07/07  07:20:02  BASE  1.56996  147  2.0874   160  -3.5  72    -7.9  0     0     1008.5   NA       0.0000   9999     0     0     0    
2019/07/07  07:21:01  BASE  1.28772  138  2.0874   160  -3.5  72    -7.8  0     0     1008.6   NA       0.0000   9999     0     0     0    
2019/07/07  07:22:01  BASE  1.69344  138  2.21088  139  -3.6  73    -7.8  0     0     1008.6   NA       0.0000   9999     0     0     0    
2019/07/07  07:23:02  BASE  1.89336  139  2.21088  139  -3.7  73    -7.9  0     0     1008.6   NA       0.0000   9999     0     0     0    
2019/07/07  07:24:01  BASE  1.84044  131  2.48136  114  -3.9  73    -8.1  0     0     1008.7   NA       0.0000   9999     0     0     0    
2019/07/07  07:25:02  BASE  2.34024  117  4.56876  109  -4.1  73    -8.3  0     0     1008.7   NA       0.0000   9999     0     0     0    
2019/07/07  07:26:01  BASE  3.528    105  4.72164  100  -4.2  72    -8.5  0     0     1008.7   NA       0.0000   9999     0     0     0    
2019/07/07  07:27:01  BASE  4.22772  101  4.72164  100  -4.4  72    -8.6  0     0     1008.7   NA       0.0000   9999     0     0     0    
2019/07/07  07:28:01  BASE  3.75732  103  4.72164  100  -4.4  72    -8.7  0     0     1008.7   NA       0.0000   9999     0     0     0    
2019/07/07  07:29:02  BASE  3.32808  100  4.72164  100  -4.4  72    -8.8  0     0     1008.6   NA       0.0000   9999     0     0     0    
2019/07/07  07:30:01  BASE  3.13992  93   4.72164  100  -4.3  71    -8.7  0     0     1008.6   NA       0.0000   9999     0     0     0    
2019/07/07  07:31:01  BASE  3.6456   80   4.80984  59   -4.2  70    -8.8  0     0     1008.6   NA       0.0000   9999     0     0     0    
2019/07/07  07:32:01  BASE  3.95136  67   4.80984  59   -4.0  70    -8.8  0     0     1008.6   NA       0.0000   9999     0     0     0    
2019/07/07  07:33:01  BASE  2.9106   73   4.80984  59   -3.9  69    -8.8  0     0     1008.5   NA       0.0000   9999     0     0     0    
2019/07/07  07:34:01  BASE  2.058    92   4.80984  59   -3.6  68    -8.7  0     0     1008.4   NA       0.0000   9999     0     0     0    
2019/07/07  07:35:02  BASE  1.84632  108  4.80984  59   -3.6  67    -8.8  0     0     1008.4   NA       0.0000   9999     0     0     0    
2019/07/07  07:36:02  BASE  1.5288   129  4.80984  59   -3.6  67    -8.9  0     0     1008.4   NA       0.0000   9999     0     0     0    
2019/07/07  07:37:02  BASE  1.32888  140  4.80984  59   -3.7  66    -9.1  0     0     1008.4   NA       0.0000   9999     0     0     0    
2019/07/07  07:38:01  BASE  1.47     136  4.80984  59   -3.8  67    -9.1  0     0     1008.4   NA       0.0000   9999     0     0     0    
2019/07/07  07:39:01  BASE  1.8522   132  4.80984  59   -3.8  67    -9.1  0     0     1008.4   NA       0.0000   9999     0     0     0    
2019/07/07  07:40:02  BASE  2.07564  125  4.80984  59   -3.8  67    -9.0  0     0     1008.4   NA       0.0000   9999     0     0     0    
2019/07/07  07:41:01  BASE  1.84632  121  4.41588  56   -3.8  67    -8.9  0     0     1008.5   NA       0.0000   9999     0     0     0    
2019/07/07  07:42:01  BASE  2.98116  114  4.78044  109  -3.9  67    -9.0  0     0     1008.6   NA       0.0000   9999     0     0     0    
2019/07/07  07:43:00  BASE  4.63344  105  5.59776  101  -4.0  68    -9.1  0     0     1008.6   NA       0.0000   9999     0     0     0    
2019/07/07  07:44:01  BASE  4.72164  102  5.59776  101  -4.1  68    -9.1  0     0     1008.5   NA       0.0000   9999     0     0     0    
2019/07/07  07:45:02  BASE  3.89844  102  5.59776  101  -4.2  69    -9.0  0     0     1008.6   NA       0.0000   9999     0     0     0    
2019/07/07  07:46:02  BASE  3.36924  100  5.59776  101  -4.2  70    -8.8  0     0     1008.6   NA       0.0000   9999     0     0     0    
2019/07/07  07:47:01  BASE  3.54564  95   5.59776  101  -4.0  71    -8.5  0     0     1008.6   NA       0.0000   9999     0     0     0    
2019/07/07  07:48:02  BASE  3.97488  91   5.59776  101  -3.8  71    -8.3  0     0     1008.6   NA       0.0000   9999     0     0     0    
2019/07/07  07:49:01  BASE  3.94548  87   5.59776  101  -3.6  71    -8.1  0     0     1008.6   NA       0.0000   9999     0     0     0    
2019/07/07  07:50:01  BASE  3.53976  86   5.59776  101  -3.3  70    -8.0  0     0     1008.6   NA       0.0000   9999     0     0     0    
2019/07/07  07:51:02  BASE  3.92196  81   5.59776  101  -3.0  68    -8.1  0     0     1008.6   NA       0.0000   9999     0     0     0    
2019/07/07  07:52:01  BASE  4.56288  75   5.59776  101  -2.8  66    -8.2  0     0     1008.6   NA       0.0000   9999     0     0     0    
2019/07/07  07:53:01  BASE  4.63932  73   5.2332   103  -2.8  65    -8.5  0     0     1008.6   NA       0.0000   9999     0     0     0    
2019/07/07  07:54:01  BASE  4.05132  66   4.86864  75   -2.8  63    -8.8  0     0     1008.6   NA       0.0000   9999     0     0     0    
2019/07/07  07:55:02  BASE  3.03996  59   4.86864  75   -2.9  62    -9.2  0     0     1008.6   NA       0.0000   9999     0     0     0    
2019/07/07  07:56:02  BASE  2.5284   58   4.86864  75   -3.0  61    -9.4  0     0     1008.6   NA       0.0000   9999     0     0     0    
2019/07/07  07:57:01  BASE  2.7048   61   4.86864  75   -3.0  61    -9.5  0     0     1008.6   NA       0.0000   9999     0     0     0    
2019/07/07  07:58:02  BASE  3.06348  63   4.86864  75   -3.0  61    -9.4  0     0     1008.6   NA       0.0000   9999     0     0     0    
2019/07/07  07:59:01  BASE  2.77536  69   4.86864  75   -3.0  61    -9.4  0     0     1008.6   NA       0.0000   9999     0     0     0    
2019/07/07  08:00:02  BASE  2.11092  71   4.86864  75   -3.0  61    -9.4  0     0     1008.6   NA       0.0000   9999     0     0     0    
2019/07/07  08:01:01  BASE  1.7934   73   4.86864  75   -2.9  61    -9.4  0     0     1008.6   NA       0.0000   9999     0     0     0    
2019/07/07  08:02:00  BASE  2.2638   84   4.86864  75   -2.9  61    -9.5  0     0     1008.6   NA       0.0000   9999     0     0     0    
2019/07/07  08:03:01  BASE  3.32808  94   4.29828  96   -2.9  60    -9.5  0     0     1008.6   NA       0.0000   9999     0     0     0    
2019/07/07  08:04:01  BASE  3.4104   103  4.29828  96   -3.1  60    -9.7  0     0     1008.6   NA       0.0000   9999     0     0     0    
2019/07/07  08:05:00  BASE  2.62836  114  4.29828  96   -3.2  61    -9.7  0     0     1008.7   NA       0.0000   9999     0     0     0    
2019/07/07  08:06:01  BASE  2.39904  111  4.29828  96   -3.4  61    -9.8  0     0     1008.7   NA       0.0000   9999     0     0     0    
2019/07/07  08:07:01  BASE  1.9698   111  4.29828  96   -3.4  62    -9.6  0     0     1008.7   NA       0.0000   9999     0     0     0    
2019/07/07  08:08:01  BASE  1.4112   121  4.29828  96   -3.4  62    -9.5  0     0     1008.7   NA       0.0000   9999     0     0     0    
2019/07/07  08:09:01  BASE  1.38768  121  4.29828  96   -3.3  63    -9.4  0     0     1008.7   NA       0.0000   9999     0     0     0    
2019/07/07  08:10:01  BASE  1.22892  126  4.29828  96   -3.2  62    -9.4  0     0     1008.6   NA       0.0000   9999     0     0     0    
2019/07/07  08:11:01  BASE  1.13484  135  4.29828  96   -3.1  62    -9.3  0     0     1008.6   NA       0.0000   9999     0     0     0    
2019/07/07  08:12:01  BASE  1.32888  125  4.29828  96   -3.3  62    -9.5  0     0     1008.7   NA       0.0000   9999     0     0     0    
2019/07/07  08:13:01  BASE  1.77576  114  4.2042   93   -3.4  62    -9.6  0     0     1008.7   NA       0.0000   9999     0     0     0    
2019/07/07  08:14:01  BASE  1.72872  113  2.84592  104  -3.5  62    -9.7  0     0     1008.7   NA       0.0000   9999     0     0     0    
2019/07/07  08:15:01  BASE  1.35828  104  2.84592  104  -3.5  63    -9.6  0     0     1008.7   NA       0.0000   9999     0     0     0    
2019/07/07  08:16:00  BASE  1.71696  94   2.54016  101  -3.5  63    -9.6  0     0     1008.7   NA       0.0000   9999     0     0     0    
2019/07/07  08:17:01  BASE  2.22264  92   2.93412  107  -3.4  63    -9.5  0     0     1008.7   NA       0.0000   9999     0     0     0    
2019/07/07  08:18:01  BASE  2.31084  94   2.93412  107  -3.2  63    -9.4  0     0     1008.7   NA       0.0000   9999     0     0     0    
2019/07/07  08:19:01  BASE  2.12268  87   2.93412  107  -3.1  62    -9.3  0     0     1008.7   NA       0.0000   9999     0     0     0    
2019/07/07  08:20:01  BASE  1.78752  89   2.93412  107  -2.9  62    -9.2  0     0     1008.7   NA       0.0000   9999     0     0     0    
2019/07/07  08:21:01  BASE  1.84632  87   2.93412  107  -2.8  61    -9.2  0     0     1008.8   NA       0.0000   9999     0     0     0    
2019/07/07  08:22:01  BASE  2.30496  71   2.93412  107  -2.6  60    -9.2  0     0     1008.8   NA       0.0000   9999     0     0     0    
2019/07/07  08:23:01  BASE  2.54604  66   2.93412  107  -2.5  60    -9.2  0     0     1008.8   NA       0.0000   9999     0     0     0    
2019/07/07  08:24:01  BASE  2.69304  66   3.26928  63   -2.5  60    -9.3  0     0     1008.8   NA       0.0000   9999     0     0     0    
2019/07/07  08:25:01  BASE  2.86944  70   3.26928  71   -2.5  59    -9.4  0     0     1008.8   NA       0.0000   9999     0     0     0    
2019/07/07  08:26:01  BASE  2.7636   72   3.26928  71   -2.6  59    -9.5  0     0     1008.8   NA       0.0000   9999     0     0     0    
2019/07/07  08:27:01  BASE  2.54604  70   3.26928  71   -2.6  59    -9.5  0     0     1008.8   NA       0.0000   9999     0     0     0    
2019/07/07  08:28:01  BASE  2.3814   75   3.26928  71   -2.6  59    -9.5  0     0     1008.8   NA       0.0000   9999     0     0     0    
2019/07/07  08:29:01  BASE  2.06388  80   3.26928  71   -2.5  59    -9.4  0     0     1008.8   NA       0.0000   9999     0     0     0    
2019/07/07  08:30:01  BASE  1.8816   85   3.26928  71   -2.4  59    -9.3  0     0     1008.8   NA       0.0000   9999     0     0     0    
2019/07/07  08:31:01  BASE  1.93452  90   3.26928  71   -2.2  58    -9.3  0     0     1008.8   NA       0.0000   9999     0     0     0    
2019/07/07  08:32:01  BASE  1.7934   103  3.26928  71   -2.0  58    -9.2  0     0     1008.8   NA       0.0000   9999     0     0     0    
2019/07/07  08:33:01  BASE  1.55232  117  3.26928  71   -1.9  57    -9.2  0     0     1008.8   NA       0.0000   9999     0     0     0    
2019/07/07  08:34:01  BASE  1.5876   118  3.26928  71   -2.0  57    -9.3  0     0     1008.8   NA       0.0000   9999     0     0     0    
2019/07/07  08:35:02  BASE  1.45236  121  2.81064  69   -2.0  57    -9.5  0     0     1008.8   NA       0.0000   9999     0     0     0    
2019/07/07  08:36:01  BASE  0.7644   123  2.69304  69   -2.2  57    -9.5  0     0     1008.8   NA       0.0000   9999     0     0     0    
2019/07/07  08:37:01  BASE  0.1764   121  2.45196  79   -2.2  57    -9.6  0     0     1008.8   NA       0.0000   9999     0     0     0    
2019/07/07  08:38:01  BASE  0        93   2.24028  97   -2.2  58    -9.4  0     0     1008.8   NA       0.0000   9999     0     0     0    
2019/07/07  08:39:01  BASE  0        45   2.24028  97   -2.0  58    -9.3  0     0     1008.8   NA       0.0000   9999     0     0     0    
2019/07/07  08:40:00  BASE  0.71736  31   2.058    95   -1.9  57    -9.2  0     0     1008.9   NA       0.0000   9999     0     0     0    
2019/07/07  08:41:02  BASE  1.65228  34   1.9992   34   -1.9  57    -9.3  0     0     1008.9   NA       0.0000   9999     0     0     0    
2019/07/07  08:42:01  BASE  1.92864  28   2.29908  2    -2.0  57    -9.5  0     0     1008.9   NA       0.0000   9999     0     0     0    
2019/07/07  08:43:01  BASE  1.7346   13   2.29908  2    -2.2  57    -9.6  0     0     1008.9   NA       0.0000   9999     0     0     0    
2019/07/07  08:44:01  BASE  1.34064  352  2.29908  2    -2.5  58    -9.7  0     0     1008.9   NA       0.0000   9999     0     0     0    
2019/07/07  08:45:02  BASE  1.19952  319  2.29908  2    -2.8  59    -9.7  0     0     1008.9   NA       0.0000   9999     0     0     0    
2019/07/07  08:46:01  BASE  1.45824  301  2.29908  2    -3.0  61    -9.5  0     0     1009.0   NA       0.0000   9999     0     0     0    
2019/07/07  08:47:01  BASE  1.65816  303  2.29908  2    -3.1  63    -9.1  0     0     1008.9   NA       0.0000   9999     0     0     0    
2019/07/07  08:48:01  BASE  1.62876  315  2.29908  2    -3.2  65    -8.8  0     0     1008.9   NA       0.0000   9999     0     0     0    
2019/07/07  08:49:01  BASE  1.59936  336  2.29908  2    -3.3  67    -8.5  0     0     1009.0   NA       0.0000   9999     0     0     0    
2019/07/07  08:50:01  BASE  1.72284  352  2.29908  2    -3.3  69    -8.2  0     0     1009.0   NA       0.0000   9999     0     0     0    
2019/07/07  08:51:01  BASE  1.68168  352  2.29908  2    -3.3  71    -7.9  0     0     1009.0   NA       0.0000   9999     0     0     0    
2019/07/07  08:52:01  BASE  1.21128  354  2.1462   355  -3.3  71    -7.7  0     0     1009.0   NA       0.0000   9999     0     0     0    
2019/07/07  08:53:01  BASE  0.57036  353  2.1462   355  -3.2  71    -7.7  0     0     1009.0   NA       0.0000   9999     0     0     0    
2019/07/07  08:54:01  BASE  0.27636  306  2.1462   355  -3.3  71    -7.8  0     0     1009.0   NA       0.0000   9999     0     0     0    
2019/07/07  08:55:01  BASE  0.64092  184  2.1462   355  -3.4  71    -8.0  0     0     1009.0   NA       0.0000   9999     0     0     0    
2019/07/07  08:56:02  BASE  0.50568  202  2.1462   355  -3.6  70    -8.2  0     0     1009.1   NA       0.0000   9999     0     0     0    
2019/07/07  08:57:01  BASE  0.294    258  2.1462   355  -3.8  70    -8.4  0     0     1009.1   NA       0.0000   9999     0     0     0    
2019/07/07  08:58:01  BASE  0.441    296  2.1462   355  -3.9  71    -8.4  0     0     1009.1   NA       0.0000   9999     0     0     0    
2019/07/07  08:59:01  BASE  0.2058   321  2.1462   355  -3.9  71    -8.3  0     0     1009.1   NA       0.0000   9999     0     0     0    
2019/07/07  09:00:01  BASE  0.25872  326  1.75224  344  -3.6  71    -8.1  0     0     1009.0   NA       0.0000   9999     0     0     0    
2019/07/07  09:01:01  BASE  0.5292   316  1.27008  360  -3.4  71    -7.9  0     0     1009.1   NA       0.0000   9999     0     0     0    
2019/07/07  09:02:01  BASE  0.294    295  1.18188  146  -3.3  71    -7.7  0     0     1009.1   NA       0.0000   9999     0     0     0    
2019/07/07  09:03:01  BASE  0.11172  262  1.18188  146  -3.2  71    -7.8  0     0     1009.1   NA       0.0000   9999     0     0     0    
2019/07/07  09:04:01  BASE  0.08232  196  1.18188  146  -3.2  70    -8.0  0     0     1009.1   NA       0.0000   9999     0     0     0    
2019/07/07  09:05:02  BASE  0        137  0.9702   297  -3.5  69    -8.3  0     0     1009.1   NA       0.0000   9999     0     0     0    
2019/07/07  09:06:02  BASE  0        120  0.9702   297  -3.7  69    -8.6  0     0     1009.1   NA       0.0000   9999     0     0     0    
2019/07/07  09:07:01  BASE  0        101  0.84672  311  -3.8  69    -8.7  0     0     1009.1   NA       0.0000   9999     0     0     0    
2019/07/07  09:08:01  BASE  0        53   0.84672  311  -3.8  69    -8.6  0     0     1009.1   NA       0.0000   9999     0     0     0    
2019/07/07  09:09:01  BASE  0        12   0.84672  311  -3.7  70    -8.5  0     0     1009.1   NA       0.0000   9999     0     0     0    
2019/07/07  09:10:01  BASE  0        353  0.84672  311  -3.5  70    -8.2  0     0     1009.1   NA       0.0000   9999     0     0     0    
2019/07/07  09:11:02  BASE  0        353  0.66444  238  -3.3  70    -8.0  0     0     1009.1   NA       0.0000   9999     0     0     0    
2019/07/07  09:12:01  BASE  0        348  0.66444  238  -3.2  70    -7.9  0     0     1009.1   NA       0.0000   9999     0     0     0    
2019/07/07  09:13:01  BASE  0        288  0        M    -3.1  69    -7.9  0     0     1009.1   NA       0.0000   9999     0     0     0    
2019/07/07  09:14:01  BASE  0        192  0        M    -3.1  69    -8.0  0     0     1009.1   NA       0.0000   9999     0     0     0    
2019/07/07  09:15:02  BASE  0        106  0        M    -3.2  69    -8.2  0     0     1009.1   NA       0.0000   9999     0     0     0    
2019/07/07  09:16:02  BASE  0        93   0        M    -3.3  68    -8.2  0     0     1009.1   NA       0.0000   9999     0     0     0    
2019/07/07  09:17:01  BASE  0        85   0        M    -3.3  68    -8.3  0     0     1009.1   NA       0.0000   9999     0     0     0    
2019/07/07  09:18:01  BASE  0        84   0        M    -3.3  68    -8.3  0     0     1009.1   NA       0.0000   9999     0     0     0    
2019/07/07  09:19:01  BASE  0        91   0        M    -3.2  68    -8.2  0     0     1009.1   NA       0.0000   9999     0     0     0    
2019/07/07  09:20:00  BASE  0        93   0        M    -3.2  68    -8.2  0     0     1009.1   NA       0.0000   9999     0     0     0    
2019/07/07  09:21:01  BASE  0        92   0        M    -3.1  68    -8.1  0     0     1009.1   NA       0.0000   9999     0     0     0    
2019/07/07  09:22:01  BASE  0        62   0        M    -3.0  68    -8.0  0     0     1009.1   NA       0.0000   9999     0     0     0    
2019/07/07  09:23:01  BASE  0        31   0        M    -2.9  67    -8.1  0     0     1009.1   NA       0.0000   9999     0     0     0    
2019/07/07  09:24:01  BASE  0        21   0        M    -2.9  67    -8.2  0     0     1009.1   NA       0.0000   9999     0     0     0    
2019/07/07  09:25:00  BASE  0        11   0        M    -2.9  67    -8.2  0     0     1009.1   NA       0.0000   9999     0     0     0    
2019/07/07  09:26:01  BASE  0        14   0        M    -3.0  67    -8.3  0     0     1009.1   NA       0.0000   9999     0     0     0    
2019/07/07  09:27:01  BASE  0        22   0        M    -3.1  67    -8.4  0     0     1009.1   NA       0.0000   9999     0     0     0    
2019/07/07  09:28:01  BASE  0        21   0        M    -3.1  67    -8.4  0     0     1009.1   NA       0.0000   9999     0     0     0    
2019/07/07  09:29:01  BASE  0        2    0        M    -3.1  67    -8.4  0     0     1009.1   NA       0.0000   9999     0     0     0    
2019/07/07  09:30:02  BASE  0        343  0        M    -3.1  67    -8.4  0     0     1009.1   NA       0.0000   9999     0     0     0    
2019/07/07  09:31:01  BASE  0.18228  346  0.63504  354  -3.1  67    -8.3  0     0     1009.1   NA       0.0000   9999     0     0     0    
2019/07/07  09:32:01  BASE  0.5292   356  0.72324  2    -3.0  67    -8.3  0     0     1009.1   NA       0.0000   9999     0     0     0    
2019/07/07  09:33:01  BASE  0.84672  20   1.29948  47   -3.1  67    -8.4  0     0     1009.1   NA       0.0000   9999     0     0     0    
2019/07/07  09:34:02  BASE  1.05252  39   1.42296  40   -3.2  66    -8.6  0     0     1009.1   NA       0.0000   9999     0     0     0    
2019/07/07  09:35:03  BASE  1.09956  46   1.42296  40   -3.3  66    -8.6  0     0     1009.1   NA       0.0000   9999     0     0     0    
2019/07/07  09:36:01  BASE  1.05252  51   1.42296  40   -3.4  66    -8.7  0     0     1009.1   NA       0.0000   9999     0     0     0    
2019/07/07  09:37:01  BASE  1.12308  49   1.42296  40   -3.4  67    -8.8  0     0     1009.1   NA       0.0000   9999     0     0     0    
2019/07/07  09:38:01  BASE  1.34064  53   1.57584  54   -3.5  67    -8.7  0     0     1009.1   NA       0.0000   9999     0     0     0    
2019/07/07  09:39:01  BASE  1.39944  55   1.57584  54   -3.4  67    -8.6  0     0     1009.1   NA       0.0000   9999     0     0     0    
2019/07/07  09:40:01  BASE  1.09956  52   1.57584  54   -3.4  67    -8.6  0     0     1009.1   NA       0.0000   9999     0     0     0    
2019/07/07  09:41:01  BASE  0.68796  46   1.57584  54   -3.4  68    -8.5  0     0     1009.1   NA       0.0000   9999     0     0     0    
2019/07/07  09:42:01  BASE  0.64092  51   1.57584  54   -3.3  68    -8.5  0     0     1009.1   NA       0.0000   9999     0     0     0    
2019/07/07  09:43:01  BASE  0.88788  63   1.57584  54   -3.3  68    -8.4  0     0     1009.1   NA       0.0000   9999     0     0     0    
2019/07/07  09:44:01  BASE  0.84672  72   1.57584  54   -3.2  67    -8.4  0     0     1009.1   NA       0.0000   9999     0     0     0    
2019/07/07  09:45:01  BASE  0.7644   76   1.57584  54   -3.2  67    -8.4  0     0     1009.1   NA       0.0000   9999     0     0     0    
2019/07/07  09:46:02  BASE  0.58212  72   1.57584  54   -3.1  67    -8.5  0     0     1009.1   NA       0.0000   9999     0     0     0    
2019/07/07  09:47:01  BASE  0.24696  64   1.57584  54   -3.1  66    -8.5  0     0     1009.1   NA       0.0000   9999     0     0     0    
2019/07/07  09:48:01  BASE  0.07644  53   1.57584  54   -3.0  66    -8.5  0     0     1009.1   NA       0.0000   9999     0     0     0    
2019/07/07  09:49:01  BASE  0.05292  33   1.18188  58   -3.0  66    -8.5  0     0     1009.1   NA       0.0000   9999     0     0     0    
2019/07/07  09:50:01  BASE  0.3822   23   1.18188  58   -3.0  65    -8.6  0     0     1009.1   NA       0.0000   9999     0     0     0    
2019/07/07  09:51:04  BASE  0.7644   27   1.18188  58   -3.1  65    -8.7  0     0     1009.2   NA       0.0000   9999     0     0     0    
2019/07/07  09:52:01  BASE  0.91728  35   1.1466   67   -3.1  65    -8.7  0     0     1009.2   NA       0.0000   9999     0     0     0    
2019/07/07  09:53:01  BASE  0.9996   47   1.18188  48   -3.2  66    -8.7  0     0     1009.2   NA       0.0000   9999     0     0     0    
2019/07/07  09:54:01  BASE  1.27596  58   1.72284  61   -3.2  66    -8.8  0     0     1009.2   NA       0.0000   9999     0     0     0    
2019/07/07  09:55:01  BASE  1.53468  62   1.81692  61   -3.2  66    -8.7  0     0     1009.2   NA       0.0000   9999     0     0     0    
2019/07/07  09:56:01  BASE  1.50528  58   1.81692  62   -3.1  65    -8.7  0     0     1009.2   NA       0.0000   9999     0     0     0    
2019/07/07  09:57:02  BASE  1.39356  55   1.81692  62   -3.1  65    -8.8  0     0     1009.2   NA       0.0000   9999     0     0     0    
2019/07/07  09:58:01  BASE  0.94668  51   1.81692  62   -3.1  64    -8.9  0     0     1009.2   NA       0.0000   9999     0     0     0    
2019/07/07  09:59:01  BASE  0.81144  46   1.81692  62   -3.2  64    -9.0  0     0     1009.3   NA       0.0000   9999     0     0     0    
2019/07/07  10:00:01  BASE  0.88788  42   1.81692  62   -3.2  64    -9.0  0     0     1009.3   NA       0.0000   9999     0     0     0    
2019/07/07  10:01:01  BASE  0.7938   40   1.81692  62   -3.2  64    -9.0  0     0     1009.4   NA       0.0000   9999     0     0     0    
2019/07/07  10:02:01  BASE  0.7938   8    1.81692  62   -3.2  64    -8.9  0     0     1009.4   NA       0.0000   9999     0     0     0    
2019/07/07  10:03:01  BASE  0.5586   343  1.81692  62   -3.1  65    -8.9  0     0     1009.4   NA       0.0000   9999     0     0     0    
2019/07/07  10:04:01  BASE  0.92316  22   1.81692  62   -3.2  65    -8.9  0     0     1009.4   NA       0.0000   9999     0     0     0    
2019/07/07  10:05:01  BASE  1.40532  39   1.81692  62   -3.2  64    -9.0  0     0     1009.4   NA       0.0000   9999     0     0     0    
2019/07/07  10:06:01  BASE  1.33476  43   1.63464  43   -3.3  65    -9.0  0     0     1009.4   NA       0.0000   9999     0     0     0    
2019/07/07  10:07:01  BASE  1.03488  35   1.63464  43   -3.4  65    -9.1  0     0     1009.4   NA       0.0000   9999     0     0     0    
2019/07/07  10:08:01  BASE  0.37632  2    1.63464  43   -3.4  65    -9.1  0     0     1009.4   NA       0.0000   9999     0     0     0    
2019/07/07  10:09:01  BASE  0        340  1.63464  43   -3.5  65    -9.1  0     0     1009.4   NA       0.0000   9999     0     0     0    
2019/07/07  10:10:01  BASE  0        332  1.63464  43   -3.5  66    -9.0  0     0     1009.4   NA       0.0000   9999     0     0     0    
2019/07/07  10:11:01  BASE  0.02352  314  1.63464  43   -3.4  66    -8.8  0     0     1009.4   NA       0.0000   9999     0     0     0    
2019/07/07  10:12:01  BASE  0.21168  322  1.63464  43   -3.3  66    -8.7  0     0     1009.4   NA       0.0000   9999     0     0     0    
2019/07/07  10:13:01  BASE  0.3822   348  1.63464  43   -3.3  66    -8.7  0     0     1009.4   NA       0.0000   9999     0     0     0    
2019/07/07  10:14:01  BASE  0.24696  349  1.48176  47   -3.2  66    -8.7  0     0     1009.3   NA       0.0000   9999     0     0     0    
2019/07/07  10:15:01  BASE  0.05292  15   1.42296  46   -3.2  66    -8.7  0     0     1009.3   NA       0.0000   9999     0     0     0    
2019/07/07  10:16:01  BASE  0.32928  23   1.24068  30   -3.2  66    -8.7  0     0     1009.2   NA       0.0000   9999     0     0     0    
2019/07/07  10:17:01  BASE  0.71148  27   1.32888  23   -3.2  65    -8.8  0     0     1009.2   NA       0.0000   9999     0     0     0    
2019/07/07  10:18:00  BASE  0.4116   33   1.32888  23   -3.1  65    -8.7  0     0     1009.3   NA       0.0000   9999     0     0     0    
2019/07/07  10:19:01  BASE  0.0294   8    1.32888  23   -3.0  65    -8.6  0     0     1009.4   NA       0.0000   9999     0     0     0    
2019/07/07  10:20:01  BASE  0        181  1.32888  23   -2.9  65    -8.6  0     0     1009.4   NA       0.0000   9999     0     0     0    
2019/07/07  10:21:01  BASE  0        85   1.32888  23   -2.8  65    -8.5  0     0     1009.4   NA       0.0000   9999     0     0     0    
2019/07/07  10:22:01  BASE  0        67   1.32888  23   -2.7  64    -8.5  0     0     1009.4   NA       0.0000   9999     0     0     0    
2019/07/07  10:23:01  BASE  0.1176   59   1.32888  23   -2.6  64    -8.4  0     0     1009.4   NA       0.0000   9999     0     0     0    
2019/07/07  10:24:01  BASE  0.33516  49   1.32888  23   -2.6  64    -8.4  0     0     1009.4   NA       0.0000   9999     0     0     0    
2019/07/07  10:25:01  BASE  0.27048  27   1.32888  23   -2.5  64    -8.4  0     0     1009.4   NA       0.0000   9999     0     0     0    
2019/07/07  10:26:01  BASE  0.05292  4    1.32888  23   -2.5  64    -8.4  0     0     1009.4   NA       0.0000   9999     0     0     0    
2019/07/07  10:27:01  BASE  0        359  0.75852  62   -2.5  64    -8.4  0     0     1009.4   NA       0.0000   9999     0     0     0    
2019/07/07  10:28:01  BASE  0        0    0.75852  62   -2.5  64    -8.4  0     0     1009.5   NA       0.0000   9999     0     0     0    
2019/07/07  10:29:01  BASE  0        8    0.75852  62   -2.5  64    -8.4  0     0     1009.5   NA       0.0000   9999     0     0     0    
2019/07/07  10:30:01  BASE  0        358  0.75852  62   -2.5  64    -8.4  0     0     1009.5   NA       0.0000   9999     0     0     0    
2019/07/07  10:31:01  BASE  0        354  0.75852  62   -2.6  64    -8.4  0     0     1009.4   NA       0.0000   9999     0     0     0    
2019/07/07  10:32:01  BASE  0.31164  20   0.90552  31   -2.7  64    -8.5  0     0     1009.4   NA       0.0000   9999     0     0     0    
2019/07/07  10:33:01  BASE  0.48804  24   0.9702   49   -2.8  64    -8.6  0     0     1009.4   NA       0.0000   9999     0     0     0    
2019/07/07  10:34:01  BASE  0.72912  24   1.27008  29   -2.9  64    -8.7  0     0     1009.4   NA       0.0000   9999     0     0     0    
2019/07/07  10:35:02  BASE  1.30536  39   1.81692  52   -3.1  64    -8.9  0     0     1009.4   NA       0.0000   9999     0     0     0    
2019/07/07  10:36:02  BASE  1.61112  52   1.81692  60   -3.2  64    -9.0  0     0     1009.4   NA       0.0000   9999     0     0     0    
2019/07/07  10:37:01  BASE  1.68756  64   1.81692  62   -3.3  65    -9.0  0     0     1009.4   NA       0.0000   9999     0     0     0    
2019/07/07  10:38:01  BASE  1.50528  74   1.81692  62   -3.4  65    -9.0  0     0     1009.4   NA       0.0000   9999     0     0     0    
2019/07/07  10:39:01  BASE  1.29948  86   1.81692  62   -3.4  66    -8.9  0     0     1009.4   NA       0.0000   9999     0     0     0    
2019/07/07  10:40:01  BASE  1.07604  101  1.81692  62   -3.3  66    -8.7  0     0     1009.4   NA       0.0000   9999     0     0     0    
2019/07/07  10:41:01  BASE  0.85848  118  1.81692  62   -3.2  67    -8.5  0     0     1009.4   NA       0.0000   9999     0     0     0    
2019/07/07  10:42:01  BASE  0.87612  137  1.81692  62   -3.1  67    -8.4  0     0     1009.4   NA       0.0000   9999     0     0     0    
2019/07/07  10:43:01  BASE  1.00548  143  1.81692  62   -3.0  67    -8.4  0     0     1009.5   NA       0.0000   9999     0     0     0    
2019/07/07  10:44:01  BASE  1.06428  148  1.81692  62   -3.1  66    -8.5  0     0     1009.5   NA       0.0000   9999     0     0     0    
2019/07/07  10:45:01  BASE  1.09956  163  1.81692  62   -3.2  66    -8.6  0     0     1009.5   NA       0.0000   9999     0     0     0    
2019/07/07  10:46:01  BASE  1.07604  172  1.81692  62   -3.2  66    -8.6  0     0     1009.5   NA       0.0000   9999     0     0     0    
2019/07/07  10:47:01  BASE  0.91728  176  1.63464  75   -3.3  67    -8.6  0     0     1009.5   NA       0.0000   9999     0     0     0    
2019/07/07  10:48:01  BASE  0.67032  179  1.48176  90   -3.2  67    -8.5  0     0     1009.5   NA       0.0000   9999     0     0     0    
2019/07/07  10:49:01  BASE  0.441    183  1.21128  175  -3.1  67    -8.3  0     0     1009.5   NA       0.0000   9999     0     0     0    
2019/07/07  10:50:01  BASE  0.1764   189  1.21128  175  -2.9  67    -8.3  0     0     1009.5   NA       0.0000   9999     0     0     0    
2019/07/07  10:51:01  BASE  0        210  1.21128  175  -2.8  67    -8.1  0     0     1009.5   NA       0.0000   9999     5450  0     0    
2019/07/07  10:52:01  BASE  0        230  1.21128  175  -2.7  67    -8.1  0     0     1009.5   NA       0.0000   9999     5480  0     0    
2019/07/07  10:53:01  BASE  0        232  1.21128  175  -2.7  67    -8.1  0     0     1009.5   NA       0.0000   9999     5350  0     0    
2019/07/07  10:54:01  BASE  0        176  1.21128  175  -2.7  67    -8.0  0     0     1009.5   NA       0.0000   9999     0     0     0    
2019/07/07  10:55:01  BASE  0        89   1.0878   173  -2.6  67    -8.0  0     0     1009.5   NA       0.0000   9999     0     0     0    
2019/07/07  10:56:02  BASE  0        60   0.90552  173  -2.6  67    -7.9  0     0     1009.6   NA       0.0000   9999     5380  0     0    
2019/07/07  10:57:01  BASE  0        35   0.81732  179  -2.6  67    -7.9  0     0     1009.6   NA       0.0000   9999     5350  0     0    
2019/07/07  10:58:01  BASE  0.45276  22   1.1466   24   -2.6  67    -8.0  0     0     1009.6   NA       0.0000   9999     5320  0     0    
2019/07/07  10:59:01  BASE  1.01136  21   1.24068  16   -2.8  67    -8.1  0     0     1009.6   NA       0.0000   9999     5280  0     0    
2019/07/07  11:00:01  BASE  1.2642   27   1.57584  32   -2.9  67    -8.2  0     0     1009.6   NA       0.0000   9999     5280  0     0    
2019/07/07  11:01:01  BASE  1.4994   31   1.69344  33   -3.1  67    -8.3  0     0     1009.6   NA       0.0000   9999     5350  0     0    
2019/07/07  11:02:01  BASE  1.55232  33   1.69344  33   -3.3  67    -8.5  0     0     1009.6   NA       0.0000   9999     5350  0     0    
2019/07/07  11:03:01  BASE  1.41708  35   1.69344  33   -3.4  68    -8.5  0     0     1009.6   NA       0.0000   9999     5320  0     0    
2019/07/07  11:04:01  BASE  1.31712  38   1.69344  33   -3.5  69    -8.5  0     0     1009.7   NA       0.0000   9999     0     0     0    
2019/07/07  11:05:01  BASE  1.27008  39   1.69344  33   -3.6  69    -8.4  0     0     1009.7   NA       0.0000   9999     0     0     0    
2019/07/07  11:06:01  BASE  1.21716  38   1.69344  33   -3.7  70    -8.4  0     0     1009.7   NA       0.0000   9999     5350  0     0    
2019/07/07  11:07:01  BASE  1.2936   38   1.69344  33   -3.7  71    -8.3  0     0     1009.7   NA       0.0000   9999     5250  0     0    
2019/07/07  11:08:00  BASE  1.33476  37   1.69344  33   -3.7  71    -8.2  0     0     1009.7   NA       0.0000   9999     5280  0     0    
2019/07/07  11:09:02  BASE  1.29948  33   1.69344  33   -3.7  72    -8.1  0     0     1009.7   NA       0.0000   9999     5320  0     0    
2019/07/07  11:10:01  BASE  1.18776  32   1.69344  33   -3.6  72    -8.0  0     0     1009.7   NA       0.0000   9999     0     0     0    
2019/07/07  11:11:01  BASE  0.98784  34   1.63464  28   -3.6  72    -7.9  0     0     1009.7   NA       0.0000   9999     0     0     0    
2019/07/07  11:12:01  BASE  0.6174   33   1.63464  28   -3.5  72    -7.8  0     0     1009.7   NA       0.0000   9999     0     0     0    
2019/07/07  11:13:01  BASE  0.1764   31   1.45236  41   -3.4  72    -7.8  0     0     1009.7   NA       0.0000   9999     0     0     0    
2019/07/07  11:14:00  BASE  0        31   1.45236  41   -3.2  71    -7.7  0     0     1009.7   NA       0.0000   9999     0     0     0    
2019/07/07  11:15:01  BASE  0        32   1.42296  39   -3.1  71    -7.7  0     0     1009.7   NA       0.0000   9999     0     0     0    
2019/07/07  11:16:01  BASE  0.2352   38   1.42296  39   -3.1  70    -7.7  0     0     1009.7   NA       0.0000   9999     0     0     0    
2019/07/07  11:17:01  BASE  0.4704   47   1.39356  31   -3.0  70    -7.7  0     0     1009.7   NA       0.0000   9999     0     0     0    
2019/07/07  11:18:01  BASE  0.84672  50   1.48176  52   -3.0  69    -7.8  0     0     1009.7   NA       0.0000   9999     0     0     0    
2019/07/07  11:19:01  BASE  1.66404  53   2.51076  60   -3.0  69    -7.9  0     0     1009.7   NA       0.0000   9999     0     0     0    
2019/07/07  11:20:01  BASE  2.39316  59   2.81064  59   -3.1  69    -8.0  0     0     1009.7   NA       0.0000   9999     0     0     0    
2019/07/07  11:21:01  BASE  2.56368  59   2.81064  59   -3.2  69    -8.0  0     0     1009.7   NA       0.0000   9999     0     0     0    
2019/07/07  11:22:01  BASE  2.42256  58   2.81064  59   -3.4  70    -8.1  0     0     1009.7   NA       0.0000   9999     0     0     0    
2019/07/07  11:23:01  BASE  2.26968  56   2.81064  59   -3.5  71    -8.1  0     0     1009.7   NA       0.0000   9999     0     0     0    
2019/07/07  11:24:01  BASE  2.15796  53   2.81064  59   -3.6  71    -8.1  0     0     1009.7   NA       0.0000   9999     0     0     0    
2019/07/07  11:25:01  BASE  2.04036  51   2.81064  59   -3.6  72    -8.0  0     0     1009.7   NA       0.0000   9999     0     0     0    
2019/07/07  11:26:01  BASE  1.78752  48   2.81064  59   -3.6  72    -8.0  0     0     1009.7   NA       0.0000   9999     0     0     0    
2019/07/07  11:27:01  BASE  1.71108  48   2.81064  59   -3.6  72    -7.9  0     0     1009.7   NA       0.0000   9999     0     0     0    
2019/07/07  11:28:01  BASE  1.80516  49   2.81064  59   -3.6  73    -7.8  0     0     1009.7   NA       0.0000   9999     0     0     0    
2019/07/07  11:29:01  BASE  1.79928  51   2.81064  59   -3.6  73    -7.8  0     0     1009.7   NA       0.0000   9999     0     0     0    
2019/07/07  11:30:00  BASE  1.81692  52   2.66364  60   -3.6  73    -7.8  0     0     1009.7   NA       0.0000   9999     0     0     0    
2019/07/07  11:31:01  BASE  1.79928  53   2.54016  57   -3.6  73    -7.8  0     0     1009.7   NA       0.0000   9999     0     0     0    
2019/07/07  11:32:00  BASE  1.82868  51   2.35788  57   -3.7  73    -7.8  0     0     1009.7   NA       0.0000   9999     0     0     0    
2019/07/07  11:33:01  BASE  1.764    51   2.24028  54   -3.7  73    -7.8  0     0     1009.7   NA       0.0000   9999     0     0     0    
2019/07/07  11:34:00  BASE  1.54056  49   2.0286   51   -3.7  73    -7.8  0     0     1009.7   NA       0.0000   9999     0     0     0    
2019/07/07  11:35:02  BASE  1.4112   49   1.96392  51   -3.6  73    -7.8  0     0     1009.7   NA       0.0000   9999     0     0     0    
2019/07/07  11:36:00  BASE  1.37592  50   1.96392  51   -3.6  73    -7.7  0     0     1009.7   NA       0.0000   9999     0     0     0    
2019/07/07  11:37:01  BASE  1.39944  50   1.96392  51   -3.5  73    -7.7  0     0     1009.7   NA       0.0000   9999     0     0     0    
2019/07/07  11:38:01  BASE  1.37004  47   1.96392  51   -3.5  73    -7.6  0     0     1009.7   NA       0.0000   9999     0     0     0    
2019/07/07  11:39:00  BASE  1.25244  46   1.96392  51   -3.4  73    -7.6  0     0     1009.8   NA       0.0000   9999     0     0     0    
2019/07/07  11:40:01  BASE  1.14072  47   1.96392  51   -3.4  73    -7.6  0     0     1009.8   NA       0.0000   9999     0     0     0    
2019/07/07  11:41:01  BASE  1.14072  48   1.96392  51   -3.4  72    -7.6  0     0     1009.8   NA       0.0000   9999     0     0     0    
2019/07/07  11:42:01  BASE  1.07604  55   1.90512  51   -3.3  72    -7.6  0     0     1009.8   NA       0.0000   9999     0     0     0    
2019/07/07  11:43:01  BASE  1.12896  65   1.54056  49   -3.3  72    -7.6  0     0     1009.8   NA       0.0000   9999     0     0     0    
2019/07/07  11:44:00  BASE  1.09368  70   1.54056  49   -3.2  72    -7.5  0     0     1009.8   NA       0.0000   9999     0     0     0    
2019/07/07  11:45:01  BASE  1.03488  70   1.54056  49   -3.1  72    -7.4  0     0     1009.8   NA       0.0000   9999     0     0     0    
2019/07/07  11:46:00  BASE  1.11132  78   1.54056  49   -3.0  71    -7.4  0     0     1009.8   NA       0.0000   9999     0     0     0    
2019/07/07  11:47:01  BASE  0.99372  84   1.45236  43   -2.9  71    -7.4  0     0     1009.8   NA       0.0000   9999     0     0     0    
2019/07/07  11:48:00  BASE  0.9114   82   1.35828  72   -2.8  71    -7.4  0     0     1009.7   NA       0.0000   9999     0     0     0    
2019/07/07  11:49:01  BASE  0.84672  91   1.35828  72   -2.7  70    -7.5  0     0     1009.7   NA       0.0000   9999     0     0     0    
2019/07/07  11:50:01  BASE  0.51156  102  1.35828  72   -2.7  70    -7.5  0     0     1009.7   NA       0.0000   9999     0     0     0    
2019/07/07  11:51:01  BASE  0.3528   106  1.35828  72   -2.6  69    -7.5  0     0     1009.7   NA       0.0000   9999     0     0     0    
2019/07/07  11:52:00  BASE  0.2352   107  1.35828  72   -2.6  69    -7.4  0     0     1009.7   NA       0.0000   9999     0     0     0    
2019/07/07  11:53:01  BASE  0        102  1.21128  75   -2.5  69    -7.4  0     0     1009.7   NA       0.0000   9999     0     0     0    
2019/07/07  11:54:01  BASE  0.02352  95   1.21128  75   -2.4  69    -7.3  0     0     1009.8   NA       0.0000   9999     0     0     0    
2019/07/07  11:55:01  BASE  0.02352  91   1.21128  75   -2.3  69    -7.2  0     0     1009.8   NA       0.0000   9999     0     0     0    
2019/07/07  11:56:01  BASE  0        85   1.0878   86   -2.3  69    -7.2  0     0     1009.8   NA       0.0000   9999     0     0     0    
2019/07/07  11:57:01  BASE  0        81   1.0584   87   -2.3  69    -7.2  0     0     1009.8   NA       0.0000   9999     0     0     0    
2019/07/07  11:58:01  BASE  0        93   1.0584   87   -2.3  69    -7.1  0     0     1009.8   NA       0.0000   9999     0     0     0    
2019/07/07  11:59:02  BASE  0        108  0.78792  102  -2.3  69    -7.1  0     0     1009.8   NA       0.0000   9999     0     0     0    
2019/07/07  12:00:00  BASE  0        117  0.78792  102  -2.3  70    -7.1  0     0     1009.8   NA       0.0000   9999     0     0     0    
2019/07/07  12:01:01  BASE  0        123  0.60564  96   -2.4  70    -7.2  0     0     1009.8   NA       0.0000   9999     0     0     0    
2019/07/07  12:02:01  BASE  0        134  0.60564  96   -2.5  70    -7.3  0     0     1009.8   NA       0.0000   9999     0     0     0    
2019/07/07  12:03:01  BASE  0        147  0.60564  96   -2.5  70    -7.3  0     0     1009.8   NA       0.0000   9999     0     0     0    
2019/07/07  12:04:01  BASE  0        179  0        M    -2.6  70    -7.2  0     0     1009.8   NA       0.0000   9999     0     0     0    
2019/07/07  12:05:01  BASE  0        214  0        M    -2.5  70    -7.2  0     0     1009.8   NA       0.0000   9999     0     0     0    
2019/07/07  12:06:01  BASE  0.07644  222  0.60564  226  -2.5  71    -7.1  0     0     1009.8   NA       0.0000   9999     0     0     0    
2019/07/07  12:07:01  BASE  0.2058   245  0.84672  294  -2.4  71    -7.0  0     0     1009.9   NA       0.0000   9999     0     0     0    
2019/07/07  12:08:01  BASE  0.13524  311  0.84672  294  -2.5  70    -7.2  0     0     1010.0   NA       0.0000   9999     0     0     0    
2019/07/07  12:09:01  BASE  0        20   0.84672  294  -2.7  70    -7.5  0     0     1010.0   NA       0.0000   9999     0     0     0    
2019/07/07  12:10:01  BASE  0.0294   23   0.84672  294  -2.9  70    -7.7  0     0     1010.0   NA       0.0000   9999     0     0     0    
2019/07/07  12:11:01  BASE  0.11172  37   0.84672  294  -3.2  70    -7.8  0     0     1010.0   NA       0.0000   9999     0     0     0    
2019/07/07  12:12:01  BASE  0.08232  85   0.84672  294  -3.3  71    -7.9  0     0     1010.0   NA       0.0000   9999     0     0     0    
2019/07/07  12:13:01  BASE  0        139  0.84672  294  -3.3  71    -7.7  0     0     1010.0   NA       0.0000   9999     0     0     0    
2019/07/07  12:14:02  BASE  0        180  0.84672  294  -3.2  72    -7.6  0     0     1010.0   NA       0.0000   9999     0     0     0    
2019/07/07  12:15:01  BASE  0        190  0.84672  294  -3.1  72    -7.5  0     0     1010.1   NA       0.0000   9999     0     0     0    
2019/07/07  12:16:01  BASE  0        166  0.84672  294  -3.1  72    -7.5  0     0     1010.1   NA       0.0000   9999     0     0     0    
2019/07/07  12:17:01  BASE  0        145  0.69384  27   -3.1  72    -7.4  0     0     1010.1   NA       0.0000   9999     0     0     0    
2019/07/07  12:18:01  BASE  0        154  0.69384  27   -3.0  72    -7.3  0     0     1010.2   NA       0.0000   9999     0     0     0    
2019/07/07  12:19:01  BASE  0        150  0.69384  27   -3.0  73    -7.3  0     0     1010.1   NA       0.0000   9999     0     0     0    
2019/07/07  12:20:00  BASE  0        133  0.69384  27   -3.0  73    -7.2  0     0     1010.1   NA       0.0000   9999     0     0     0    
2019/07/07  12:21:01  BASE  0        133  0        M    -3.0  73    -7.1  0     0     1010.1   NA       0.0000   9999     0     0     0    
2019/07/07  12:22:01  BASE  0        135  0        M    -3.0  73    -7.1  0     0     1010.1   NA       0.0000   9999     0     0     0    
2019/07/07  12:23:01  BASE  0        131  0        M    -2.9  73    -7.1  0     0     1010.1   NA       0.0000   9999     0     0     0    
2019/07/07  12:24:01  BASE  0        130  0        M    -2.9  73    -7.1  0     0     1010.1   NA       0.0000   9999     0     0     0    
2019/07/07  12:25:00  BASE  0        110  0        M    -2.9  73    -7.1  0     0     1010.1   NA       0.0000   9999     0     0     0    
2019/07/07  12:26:01  BASE  0        89   0        M    -2.9  73    -7.2  0     0     1010.1   NA       0.0000   9999     0     0     0    
2019/07/07  12:27:01  BASE  0        86   0        M    -3.0  72    -7.3  0     0     1010.1   NA       0.0000   9999     0     0     0    
2019/07/07  12:28:01  BASE  0        102  0        M    -3.2  72    -7.4  0     0     1010.1   NA       0.0000   9999     0     0     0    
2019/07/07  12:29:02  BASE  0        104  0        M    -3.3  73    -7.5  0     0     1010.1   NA       0.0000   9999     0     0     0    
2019/07/07  12:30:00  BASE  0        71   0        M    -3.4  73    -7.6  0     0     1010.1   NA       0.0000   9999     0     0     0    
2019/07/07  12:31:01  BASE  0        41   0        M    -3.5  73    -7.6  0     0     1010.1   NA       0.0000   9999     0     0     0    
2019/07/07  12:32:00  BASE  0        19   0        M    -3.5  74    -7.5  0     0     1010.1   NA       0.0000   9999     0     0     0    
2019/07/07  12:33:01  BASE  0        353  0        M    -3.4  74    -7.4  0     0     1010.1   NA       0.0000   9999     0     0     0    
2019/07/07  12:34:01  BASE  0        334  0        M    -3.4  74    -7.3  0     0     1010.1   NA       0.0000   9999     0     0     0    
2019/07/07  12:35:02  BASE  0        274  0        M    -3.3  74    -7.3  0     0     1010.1   NA       0.0000   9999     0     0     0    
2019/07/07  12:36:01  BASE  0        216  0        M    -3.2  74    -7.2  0     0     1010.1   NA       0.0000   9999     0     0     0    
2019/07/07  12:37:01  BASE  0        203  0        M    -3.2  74    -7.1  0     0     1010.2   NA       0.0000   9999     0     0     0    
2019/07/07  12:38:01  BASE  0        199  0        M    -3.1  74    -7.1  0     0     1010.2   NA       0.0000   9999     6370  0     0    
2019/07/07  12:39:02  BASE  0        199  0        M    -3.1  74    -7.1  0     0     1010.2   NA       0.0000   9999     6330  0     0    
2019/07/07  12:40:01  BASE  0.10584  262  0.66444  2    -3.1  74    -7.1  0     0     1010.2   NA       0.0000   9999     6330  0     0    
2019/07/07  12:41:01  BASE  0.3822   359  0.81732  5    -3.1  74    -7.1  0     0     1010.2   NA       0.0000   9999     6330  0     0    
2019/07/07  12:42:01  BASE  0.735    13   1.029    27   -3.1  74    -7.1  0     0     1010.3   NA       0.0000   9999     6330  0     0    
2019/07/07  12:43:01  BASE  0.95844  31   1.29948  51   -3.2  74    -7.1  0     0     1010.3   NA       0.0000   9999     6330  0     0    
2019/07/07  12:44:01  BASE  1.0878   45   1.35828  49   -3.3  74    -7.2  0     0     1010.3   NA       0.0000   9999     6300  0     0    
2019/07/07  12:45:01  BASE  1.16424  45   1.35828  36   -3.4  74    -7.4  0     0     1010.3   NA       0.0000   9999     6300  0     0    
2019/07/07  12:46:02  BASE  1.01136  38   1.35828  36   -3.5  74    -7.5  0     0     1010.3   NA       0.0000   9999     6270  0     0    
2019/07/07  12:47:01  BASE  1.0878   34   1.48176  35   -3.7  74    -7.6  0     0     1010.3   NA       0.0000   9999     0     0     0    
2019/07/07  12:48:01  BASE  1.45824  37   1.75224  41   -3.8  74    -7.7  0     0     1010.3   NA       0.0000   9999     0     0     0    
2019/07/07  12:49:01  BASE  1.66404  39   1.81692  44   -3.8  74    -7.7  0     0     1010.3   NA       0.0000   9999     0     0     0    
2019/07/07  12:50:00  BASE  1.64052  39   1.81692  44   -3.8  74    -7.7  0     0     1010.3   NA       0.0000   9999     0     0     0    
2019/07/07  12:51:01  BASE  1.45824  39   1.81692  44   -3.9  75    -7.7  0     0     1010.3   NA       0.0000   9999     0     0     0    
2019/07/07  12:52:01  BASE  1.12896  32   1.81692  44   -3.9  75    -7.7  0     0     1010.3   NA       0.0000   9999     0     0     0    
2019/07/07  12:53:01  BASE  0.75852  22   1.81692  44   -3.9  76    -7.6  0     0     1010.3   NA       0.0000   9999     6370  0     0    
2019/07/07  12:54:01  BASE  0.294    15   1.81692  44   -3.9  76    -7.5  0     0     1010.3   NA       0.0000   9999     0     0     0    
2019/07/07  12:55:01  BASE  0        9    1.81692  44   -3.8  77    -7.4  0     0     1010.3   NA       0.0000   9999     0     0     0    
2019/07/07  12:56:01  BASE  0        10   1.81692  44   -3.8  77    -7.3  0     0     1010.3   NA       0.0000   9999     0     0     0    
2019/07/07  12:57:01  BASE  0.24696  5    1.81692  44   -3.7  77    -7.2  0     0     1010.3   NA       0.0000   9999     0     0     0    
2019/07/07  12:58:02  BASE  0.68208  358  1.81692  44   -3.7  77    -7.1  0     0     1010.3   NA       0.0000   9999     0     0     0    
2019/07/07  12:59:02  BASE  0.96432  2    1.66404  37   -3.6  77    -7.1  0     0     1010.3   NA       0.0000   9999     0     0     0    
2019/07/07  13:00:02  BASE  1.07604  16   1.57584  44   -3.6  77    -7.1  0     0     1010.3   NA       0.0000   9999     0     0     0    
2019/07/07  13:01:02  BASE  1.08192  30   1.21128  25   -3.6  77    -7.1  0     0     1010.3   NA       0.0000   9999     0     0     0    
2019/07/07  13:02:01  BASE  0.98196  37   1.21128  25   -3.6  77    -7.1  0     0     1010.3   NA       0.0000   9999     0     0     0    
2019/07/07  13:03:02  BASE  0.6468   33   1.21128  25   -3.6  77    -7.2  0     0     1010.2   NA       0.0000   9999     0     0     0    
2019/07/07  13:04:01  BASE  0.19992  16   1.21128  25   -3.6  77    -7.1  0     0     1010.2   NA       0.0000   9999     0     0     0    
2019/07/07  13:05:01  BASE  0.15876  360  1.21128  25   -3.6  77    -7.1  0     0     1010.3   NA       0.0000   9999     0     0     0    
2019/07/07  13:06:01  BASE  0.58212  353  1.21128  25   -3.6  77    -7.1  0     0     1010.3   NA       0.0000   9999     0     0     0    
2019/07/07  13:07:01  BASE  0.84672  353  1.21128  25   -3.5  77    -7.0  0     0     1010.3   NA       0.0000   9999     0     0     0    
2019/07/07  13:08:01  BASE  0.7644   355  1.21128  25   -3.5  77    -6.9  0     0     1010.3   NA       0.0000   9999     0     0     0    
2019/07/07  13:09:01  BASE  0.34104  360  1.21128  25   -3.5  77    -6.9  0     0     1010.3   NA       0.0000   9999     0     0     0    
2019/07/07  13:10:01  BASE  0        11   1.1466   33   -3.5  77    -6.9  0     0     1010.2   NA       0.0000   9999     0     0     0    
2019/07/07  13:11:01  BASE  0        21   1.0584   39   -3.4  77    -6.9  0     0     1010.3   NA       0.0000   9999     0     0     0    
2019/07/07  13:12:01  BASE  0.39984  24   1.24068  26   -3.4  77    -6.9  0     0     1010.3   NA       0.0000   9999     0     0     0    
2019/07/07  13:13:00  BASE  1.18776  27   1.75224  34   -3.4  77    -6.9  0     0     1010.3   NA       0.0000   9999     0     0     0    
2019/07/07  13:14:01  BASE  1.65228  31   1.87572  26   -3.5  77    -7.0  0     0     1010.3   NA       0.0000   9999     0     0     0    
2019/07/07  13:15:02  BASE  1.5288   28   1.87572  26   -3.6  76    -7.1  0     0     1010.3   NA       0.0000   9999     0     0     0    
2019/07/07  13:16:01  BASE  1.25244  26   1.87572  26   -3.6  76    -7.2  0     0     1010.3   NA       0.0000   9999     0     0     0    
2019/07/07  13:17:02  BASE  1.11132  21   1.87572  26   -3.7  76    -7.3  0     0     1010.2   NA       0.0000   9999     0     0     0    
2019/07/07  13:18:02  BASE  1.22892  19   1.87572  26   -3.8  77    -7.3  1     0     1010.2   NA       0.0000   9999     0     0     0    
2019/07/07  13:19:01  BASE  1.71696  21   2.26968  18   -3.8  77    -7.3  1     0     1010.3   NA       0.0000   9999     0     0     0    
2019/07/07  13:20:01  BASE  2.21088  23   2.66364  26   -3.8  77    -7.3  1     0     1010.2   NA       0.0000   9999     0     0     0    
2019/07/07  13:21:01  BASE  2.39904  27   2.66364  26   -3.9  77    -7.4  1     0     1010.3   NA       0.0000   9999     0     0     0    
2019/07/07  13:22:01  BASE  2.352    28   2.66364  26   -4.0  77    -7.5  1     0     1010.3   NA       0.0000   9999     0     0     0    
2019/07/07  13:23:00  BASE  2.27556  24   2.66364  26   -4.2  77    -7.7  1     0     1010.3   NA       0.0000   9999     0     0     0    
2019/07/07  13:24:01  BASE  2.22852  21   2.66364  26   -4.2  77    -7.6  1     0     1010.3   NA       0.0000   9999     0     0     0    
2019/07/07  13:25:01  BASE  2.08152  21   2.66364  26   -4.2  77    -7.6  1     0     1010.3   NA       0.0000   9999     0     0     0    
2019/07/07  13:26:01  BASE  2.01684  25   2.66364  26   -4.2  77    -7.6  1     0     1010.3   NA       0.0000   9999     0     0     0    
2019/07/07  13:27:01  BASE  2.06976  32   2.66364  26   -4.2  78    -7.5  2     0     1010.3   NA       0.0000   9999     0     0     0    
2019/07/07  13:28:01  BASE  2.06976  33   2.66364  26   -4.2  78    -7.5  2     0     1010.3   NA       0.0000   9999     0     0     0    
2019/07/07  13:29:01  BASE  2.09328  29   2.66364  26   -4.3  78    -7.5  2     0     1010.3   NA       0.0000   9999     0     0     0    
2019/07/07  13:30:01  BASE  2.1462   29   2.56956  29   -4.3  78    -7.6  2     0     1010.3   NA       0.0000   9999     0     0     0    
2019/07/07  13:31:02  BASE  2.24616  34   2.48136  27   -4.3  78    -7.6  2     0     1010.3   NA       0.0000   9999     0     0     0    
2019/07/07  13:32:00  BASE  2.38728  36   2.56956  33   -4.3  78    -7.5  2     0     1010.3   NA       0.0000   9999     0     0     0    
2019/07/07  13:33:01  BASE  2.52252  38   2.75184  39   -4.3  78    -7.5  2     0     1010.3   NA       0.0000   9999     0     0     0    
2019/07/07  13:34:01  BASE  2.51076  38   2.75184  39   -4.3  79    -7.5  3     0     1010.3   NA       0.0000   9999     0     0     0    
2019/07/07  13:35:02  BASE  2.44608  33   2.75184  39   -4.3  79    -7.4  3     0     1010.3   NA       0.0000   9999     0     0     0    
2019/07/07  13:36:01  BASE  2.41668  31   2.75184  39   -4.3  79    -7.4  3     0     1010.3   NA       0.0000   9999     0     0     0    
2019/07/07  13:37:00  BASE  2.38728  32   2.75184  39   -4.3  79    -7.4  3     0     1010.3   NA       0.0000   9999     0     0     0    
2019/07/07  13:38:00  BASE  2.38728  31   2.75184  39   -4.3  79    -7.4  3     0     1010.3   NA       0.0000   9999     0     0     0    
2019/07/07  13:39:01  BASE  2.37552  32   2.75184  39   -4.2  79    -7.3  3     0     1010.3   NA       0.0000   9999     0     0     0    
2019/07/07  13:40:01  BASE  2.29908  37   2.75184  39   -4.2  79    -7.3  3     0     1010.3   NA       0.0000   9999     0     0     0    
2019/07/07  13:41:00  BASE  2.14032  40   2.75184  39   -4.2  79    -7.3  3     0     1010.3   NA       0.0000   9999     0     0     0    
2019/07/07  13:42:00  BASE  2.00508  42   2.75184  39   -4.3  79    -7.4  4     0     1010.3   NA       0.0000   9999     0     0     0    
2019/07/07  13:43:00  BASE  1.83456  44   2.63424  27   -4.3  79    -7.4  4     0     1010.3   NA       0.0000   9999     0     0     0    
2019/07/07  13:44:01  BASE  1.7934   40   2.63424  27   -4.3  79    -7.3  4     0     1010.3   NA       0.0000   9999     0     0     0    
2019/07/07  13:45:00  BASE  1.9404   33   2.63424  27   -4.3  80    -7.3  4     0     1010.3   NA       0.0000   9999     0     0     0    
2019/07/07  13:46:01  BASE  1.99332  31   2.63424  27   -4.3  80    -7.2  4     0     1010.3   NA       0.0000   9999     0     0     0    
2019/07/07  13:47:00  BASE  1.98156  32   2.48136  36   -4.3  80    -7.2  5     0     1010.3   NA       0.0000   9999     0     0     0    
2019/07/07  13:48:00  BASE  1.9698   30   2.48136  36   -4.2  80    -7.2  5     0     1010.3   NA       0.0000   9999     0     0     0    
2019/07/07  13:49:01  BASE  1.98156  27   2.48136  36   -4.2  80    -7.2  5     0     1010.3   NA       0.0000   9999     0     0     0    
2019/07/07  13:50:00  BASE  1.99332  28   2.29908  41   -4.2  80    -7.2  5     0     1010.3   NA       0.0000   9999     0     0     0    
2019/07/07  13:51:00  BASE  1.98156  31   2.24028  35   -4.3  80    -7.2  5     0     1010.3   NA       0.0000   9999     0     0     0    
2019/07/07  13:52:00  BASE  2.15796  36   2.35788  40   -4.3  80    -7.2  5     0     1010.4   NA       0.0000   9999     0     0     0    
2019/07/07  13:53:01  BASE  2.22852  39   2.35788  40   -4.3  80    -7.2  5     0     1010.4   NA       0.0000   9999     0     0     0    
2019/07/07  13:54:00  BASE  2.09916  37   2.35788  40   -4.3  80    -7.2  5     0     1010.4   NA       0.0000   9999     0     0     0    
2019/07/07  13:55:01  BASE  1.9992   33   2.35788  40   -4.3  80    -7.2  5     0     1010.4   NA       0.0000   9999     0     0     0    
2019/07/07  13:56:01  BASE  2.0874   36   2.35788  33   -4.3  80    -7.2  5     0     1010.5   NA       0.0000   9999     0     0     0    
2019/07/07  13:57:01  BASE  2.31084  38   2.51076  37   -4.3  80    -7.2  5     0     1010.6   NA       0.0000   9999     0     0     0    
2019/07/07  13:58:00  BASE  2.31084  33   2.51076  39   -4.3  80    -7.3  5     0     1010.6   NA       0.0000   9999     0     0     0    
2019/07/07  13:59:01  BASE  2.19912  31   2.51076  39   -4.4  80    -7.3  5     0     1010.6   NA       0.0000   9999     0     0     0    
2019/07/07  14:00:01  BASE  2.1168   29   2.51076  39   -4.4  80    -7.3  5     0     1010.6   NA       0.0000   9999     0     0     0    
2019/07/07  14:01:01  BASE  2.10504  25   2.51076  39   -4.3  80    -7.2  5     0     1010.7   NA       0.0000   9999     0     0     0    
2019/07/07  14:02:01  BASE  2.05212  25   2.51076  39   -4.3  80    -7.2  5     0     1010.7   NA       0.0000   9999     0     0     0    
2019/07/07  14:03:00  BASE  1.9404   25   2.51076  39   -4.3  80    -7.2  5     0     1010.7   NA       0.0000   9999     0     0     0    
2019/07/07  14:04:00  BASE  1.9404   26   2.51076  39   -4.2  80    -7.1  5     0     1010.7   NA       0.0000   9999     0     0     0    
2019/07/07  14:05:01  BASE  1.91688  31   2.51076  39   -4.2  80    -7.1  5     0     1010.7   NA       0.0000   9999     0     0     0    
2019/07/07  14:06:01  BASE  1.84044  34   2.51076  39   -4.2  80    -7.1  5     0     1010.7   NA       0.0000   9999     0     0     0    
2019/07/07  14:07:01  BASE  1.89336  40   2.51076  39   -4.2  80    -7.1  5     0     1010.7   NA       0.0000   9999     0     0     0    
2019/07/07  14:08:00  BASE  1.93452  44   2.35788  33   -4.2  81    -7.0  5     0     1010.7   NA       0.0000   9999     0     0     0    
2019/07/07  14:09:00  BASE  1.76988  39   2.29908  22   -4.2  81    -7.0  5     0     1010.7   NA       0.0000   9999     0     0     0    
2019/07/07  14:10:01  BASE  1.65228  37   2.29908  22   -4.1  81    -6.9  5     0     1010.7   NA       0.0000   9999     0     0     0    
2019/07/07  14:11:00  BASE  1.6464   34   2.0874   44   -4.0  81    -6.8  6     0     1010.7   NA       0.0000   9999     0     0     0    
2019/07/07  14:12:00  BASE  1.66404  31   2.0874   44   -3.9  81    -6.7  6     0     1010.7   NA       0.0000   9999     0     0     0    
2019/07/07  14:13:01  BASE  1.74636  31   2.1462   28   -3.9  81    -6.7  6     0     1010.7   NA       0.0000   9999     0     0     0    
2019/07/07  14:14:00  BASE  1.87572  33   2.1462   28   -3.9  80    -6.8  6     0     1010.7   NA       0.0000   9999     0     0     0    
2019/07/07  14:15:01  BASE  1.97568  34   2.1462   43   -4.0  80    -6.9  6     0     1010.6   NA       0.0000   9999     0     0     0    
2019/07/07  14:16:01  BASE  1.9698   38   2.1462   43   -4.1  80    -7.0  6     0     1010.6   NA       0.0000   9999     0     0     0    
2019/07/07  14:17:01  BASE  2.02272  44   2.32848  40   -4.1  81    -7.0  7     0     1010.6   NA       0.0000   9999     0     0     0    
2019/07/07  14:18:00  BASE  2.13444  45   2.32848  40   -4.2  81    -7.0  7     0     1010.6   NA       0.0000   9999     0     0     0    
2019/07/07  14:19:00  BASE  2.0874   46   2.32848  40   -4.1  81    -6.9  7     0     1010.6   NA       0.0000   9999     0     0     0    
2019/07/07  14:20:01  BASE  1.9992   46   2.32848  40   -4.1  81    -6.8  7     0     1010.6   NA       0.0000   9999     0     0     0    
2019/07/07  14:21:00  BASE  1.93452  49   2.32848  40   -4.0  81    -6.8  7     0     1010.6   NA       0.0000   9999     0     0     0    
2019/07/07  14:22:00  BASE  1.9698   51   2.32848  40   -4.0  81    -6.8  7     0     1010.6   NA       0.0000   9999     0     0     0    
2019/07/07  14:23:01  BASE  2.06388  53   2.35788  52   -4.0  81    -6.7  8     0     1010.6   NA       0.0000   9999     0     0     0    
2019/07/07  14:24:01  BASE  2.058    54   2.35788  52   -3.9  81    -6.7  8     0     1010.6   NA       0.0000   9999     0     0     0    
2019/07/07  14:25:00  BASE  2.01684  51   2.35788  52   -3.9  81    -6.6  8     0     1010.6   NA       0.0000   9999     0     0     0    
2019/07/07  14:26:00  BASE  1.87572  46   2.35788  52   -3.9  82    -6.6  8     0     1010.6   NA       0.0000   9999     0     0     0    
2019/07/07  14:27:01  BASE  1.75812  42   2.35788  52   -3.8  82    -6.5  9     0     1010.6   NA       0.0000   9999     0     0     0    
2019/07/07  14:28:01  BASE  1.78752  41   2.35788  52   -3.8  82    -6.5  9     0     1010.6   NA       0.0000   9999     0     0     0    
2019/07/07  14:29:00  BASE  1.83456  43   2.35788  52   -3.9  82    -6.5  9     0     1010.7   NA       0.0000   9999     0     0     0    
2019/07/07  14:30:00  BASE  1.81692  42   2.35788  52   -3.9  82    -6.5  10    0     1010.7   NA       0.0000   9999     0     0     0    
2019/07/07  14:31:01  BASE  1.63464  42   2.35788  52   -3.9  82    -6.6  10    0     1010.7   NA       0.0000   9999     0     0     0    
2019/07/07  14:32:00  BASE  1.4994   46   2.35788  52   -3.9  82    -6.6  10    0     1010.6   NA       0.0000   9999     0     0     0    
2019/07/07  14:33:01  BASE  1.58172  47   2.21088  47   -3.9  82    -6.6  10    0     1010.6   NA       0.0000   9999     0     0     0    
2019/07/07  14:34:00  BASE  1.58172  40   2.0874   52   -3.9  82    -6.5  11    0     1010.7   NA       0.0000   9999     0     0     0    
2019/07/07  14:35:02  BASE  1.65228  39   1.9992   44   -3.9  82    -6.5  11    0     1010.7   NA       0.0000   9999     0     0     0    
2019/07/07  14:36:01  BASE  1.83456  42   1.9992   41   -3.9  82    -6.5  11    0     1010.7   NA       0.0000   9999     0     0     0    
2019/07/07  14:37:01  BASE  1.88748  42   1.9992   41   -3.9  82    -6.5  12    0     1010.7   NA       0.0000   9999     0     0     0    
2019/07/07  14:38:01  BASE  1.86396  39   1.9992   41   -3.9  82    -6.5  12    0     1010.7   NA       0.0000   9999     0     0     0    
2019/07/07  14:39:01  BASE  1.8816   37   2.0874   37   -3.9  82    -6.5  12    0     1010.7   NA       0.0000   9999     0     0     0    
2019/07/07  14:40:01  BASE  1.9698   34   2.0874   33   -4.0  83    -6.5  12    0     1010.7   NA       0.0000   9999     0     0     0    
2019/07/07  14:41:01  BASE  2.01096  32   2.0874   29   -4.0  83    -6.5  13    0     1010.8   NA       0.0000   9999     0     0     0    
2019/07/07  14:42:00  BASE  1.95804  35   2.0874   33   -4.0  83    -6.5  13    0     1010.8   NA       0.0000   9999     0     0     0    
2019/07/07  14:43:01  BASE  1.89336  42   2.0874   33   -4.0  83    -6.5  13    0     1010.8   NA       0.0000   9999     0     0     0    
2019/07/07  14:44:01  BASE  1.8522   49   2.0874   33   -4.0  83    -6.5  14    0     1010.8   NA       0.0000   9999     0     0     0    
2019/07/07  14:45:01  BASE  1.79928  49   2.0874   33   -4.0  83    -6.5  14    0     1010.8   NA       0.0000   9999     0     0     0    
2019/07/07  14:46:01  BASE  1.79928  48   2.0874   33   -4.0  83    -6.5  14    0     1010.8   NA       0.0000   9999     0     0     0    
2019/07/07  14:47:00  BASE  1.92864  47   2.1462   54   -4.0  83    -6.4  14    0     1010.8   NA       0.0000   9999     0     0     0    
2019/07/07  14:48:00  BASE  1.9404   46   2.1462   54   -4.0  83    -6.4  14    0     1010.8   NA       0.0000   9999     0     0     0    
2019/07/07  14:49:01  BASE  1.94628  45   2.1462   48   -4.0  84    -6.4  14    0     1010.8   NA       0.0000   9999     0     0     0    
2019/07/07  14:50:02  BASE  2.00508  47   2.1462   48   -4.0  84    -6.3  15    0     1010.8   NA       0.0000   9999     0     0     0    
2019/07/07  14:51:01  BASE  2.04624  56   2.29908  57   -4.0  84    -6.3  15    0     1010.8   NA       0.0000   9999     0     0     0    
2019/07/07  14:52:01  BASE  2.11092  65   2.29908  57   -4.0  84    -6.3  15    0     1010.8   NA       0.0000   9999     0     0     0    
2019/07/07  14:53:01  BASE  1.9992   68   2.29908  57   -4.0  84    -6.3  15    0     1010.8   NA       0.0000   9999     0     0     0    
2019/07/07  14:54:01  BASE  1.81104  65   2.29908  57   -4.0  84    -6.3  15    0     1010.8   NA       0.0000   9999     0     0     0    
2019/07/07  14:55:00  BASE  1.68756  61   2.29908  57   -3.9  84    -6.2  15    0     1010.8   NA       0.0000   9999     0     0     0    
2019/07/07  14:56:01  BASE  1.8228   56   2.29908  57   -3.9  84    -6.1  15    0     1010.8   NA       0.0000   9999     0     0     0    
2019/07/07  14:57:01  BASE  2.04624  52   2.29908  57   -3.8  84    -6.0  15    0     1010.8   NA       0.0000   9999     0     0     0    
2019/07/07  14:58:00  BASE  2.08152  50   2.29908  57   -3.8  84    -6.0  16    0     1010.8   NA       0.0000   9999     0     0     0    
2019/07/07  14:59:01  BASE  2.0874   47   2.29908  57   -3.8  84    -6.0  16    0     1010.8   NA       0.0000   9999     0     0     0    
2019/07/07  15:00:01  BASE  2.06388  47   2.29908  57   -3.8  84    -6.1  16    0     1010.9   NA       0.0000   9999     0     0     0    
2019/07/07  15:01:01  BASE  2.11092  51   2.24028  50   -3.8  84    -6.1  16    0     1010.8   NA       0.0000   9999     0     0     0    
2019/07/07  15:02:00  BASE  2.21088  52   2.32848  52   -3.9  84    -6.1  16    0     1010.9   NA       0.0000   9999     0     0     0    
2019/07/07  15:03:01  BASE  2.24028  55   2.32848  55   -3.9  85    -6.1  16    0     1010.9   NA       0.0000   9999     0     0     0    
2019/07/07  15:04:01  BASE  2.26968  57   2.32848  57   -3.9  85    -6.1  16    0     1010.9   NA       0.0000   9999     0     0     0    
2019/07/07  15:05:01  BASE  2.25204  59   2.32848  57   -3.8  85    -6.0  16    0     1010.9   NA       0.0000   9999     0     0     0    
2019/07/07  15:06:00  BASE  2.0874   62   2.32848  57   -3.8  85    -6.0  16    0     1010.9   NA       0.0000   9999     0     0     0    
2019/07/07  15:07:01  BASE  1.71696  67   2.32848  57   -3.8  85    -5.9  16    0     1010.9   NA       0.0000   9999     0     0     0    
2019/07/07  15:08:01  BASE  1.50528  69   2.32848  57   -3.7  85    -5.9  17    0     1010.9   NA       0.0000   9999     0     0     0    
2019/07/07  15:09:01  BASE  1.9404   70   2.54016  68   -3.7  85    -5.8  17    0     1010.9   NA       0.0000   9999     0     0     0    
2019/07/07  15:10:00  BASE  2.29908  73   2.54016  68   -3.6  85    -5.7  17    0     1010.9   NA       0.0000   9999     0     0     0    
2019/07/07  15:11:01  BASE  1.7934   82   2.54016  68   -3.6  86    -5.6  17    0     1010.9   NA       0.0000   9999     0     0     0    
2019/07/07  15:12:00  BASE  1.11132  95   2.54016  68   -3.5  86    -5.6  17    0     1010.9   NA       0.0000   9999     0     0     0    
2019/07/07  15:13:01  BASE  0.43512  107  2.54016  68   -3.5  86    -5.5  17    0     1010.9   NA       0.0000   9999     0     0     0    
2019/07/07  15:14:02  BASE  0        98   2.54016  68   -3.4  86    -5.3  17    0     1010.9   NA       0.0000   9999     0     0     0    
2019/07/07  15:15:02  BASE  0.34104  80   2.54016  68   -3.2  86    -5.2  17    0     1010.9   NA       0.0000   9999     0     0     0    
2019/07/07  15:16:01  BASE  0.56448  71   2.54016  68   -3.1  87    -5.0  17    0     1010.9   NA       0.0000   9999     0     0     0    
2019/07/07  15:17:01  BASE  0.57624  76   2.54016  68   -2.9  87    -4.8  17    0     1010.9   NA       0.0000   9999     0     0     0    
2019/07/07  15:18:02  BASE  0.65856  91   2.54016  68   -2.9  87    -4.7  17    0     1010.9   NA       0.0000   9999     0     0     0    
2019/07/07  15:19:02  BASE  0.65856  101  2.51076  71   -2.8  87    -4.7  17    0     1010.9   NA       0.0000   9999     0     0     0    
2019/07/07  15:20:01  BASE  0.79968  103  1.72284  79   -2.8  87    -4.6  17    0     1010.9   NA       0.0000   9999     0     0     0    
2019/07/07  15:21:01  BASE  0.98196  97   1.0878   93   -2.8  87    -4.7  17    0     1010.9   NA       0.0000   9999     0     0     0    
2019/07/07  15:22:02  BASE  0.98196  94   1.0878   93   -2.8  87    -4.7  17    0     1010.9   NA       0.0000   9999     0     0     0    
2019/07/07  15:23:02  BASE  0.91728  102  1.0878   93   -2.8  87    -4.7  17    0     1010.9   NA       0.0000   9999     0     0     0    
2019/07/07  15:24:01  BASE  1.01136  122  1.18188  138  -2.9  87    -4.8  17    0     1010.9   NA       0.0000   9999     0     0     0    
2019/07/07  15:25:02  BASE  1.08192  138  1.21128  141  -3.0  87    -4.9  17    0     1010.9   NA       0.0000   9999     0     0     0    
2019/07/07  15:26:01  BASE  0.98196  140  1.21128  141  -3.1  87    -5.0  17    0     1010.9   NA       0.0000   9999     0     0     0    
2019/07/07  15:27:01  BASE  0.84084  138  1.21128  141  -3.3  87    -5.1  17    0     1010.9   NA       0.0000   9999     0     0     0    
2019/07/07  15:28:01  BASE  0.84672  136  1.21128  141  -3.4  87    -5.2  17    0     1010.9   NA       0.0000   9999     0     0     0    
2019/07/07  15:29:02  BASE  0.97608  138  1.29948  144  -3.4  88    -5.2  17    0     1010.9   NA       0.0000   9999     0     0     0    
2019/07/07  15:30:03  BASE  1.28184  144  1.63464  148  -3.5  88    -5.2  17    0     1010.9   NA       0.0000   9999     0     0     0    
2019/07/07  15:31:01  BASE  1.5288   149  1.66404  151  -3.4  88    -5.1  17    0     1010.9   NA       0.0000   9999     0     0     0    
2019/07/07  15:32:01  BASE  1.55232  146  1.66404  140  -3.4  89    -5.0  17    0     1010.9   NA       0.0000   9999     0     0     0    
2019/07/07  15:33:02  BASE  1.59348  140  1.75224  141  -3.5  89    -5.0  17    0     1010.9   NA       0.0000   9999     0     0     0    
2019/07/07  15:34:02  BASE  1.59348  141  1.75224  141  -3.5  89    -5.0  17    0     1010.9   NA       0.0000   9999     0     0     0    
2019/07/07  15:35:04  BASE  1.61112  140  1.75224  141  -3.5  89    -5.0  17    0     1010.9   NA       0.0000   9999     0     0     0    
2019/07/07  15:36:01  BASE  1.63464  140  1.75224  141  -3.6  89    -5.1  17    0     1010.9   NA       0.0000   9999     0     0     0    
2019/07/07  15:37:02  BASE  1.50528  139  1.75224  141  -3.6  90    -5.1  17    0     1010.9   NA       0.0000   9999     0     0     0    
2019/07/07  15:38:02  BASE  1.3818   126  1.75224  141  -3.5  90    -5.0  17    0     1010.9   NA       0.0000   9999     0     0     0    
2019/07/07  15:39:02  BASE  1.3818   119  1.75224  141  -3.5  90    -4.8  17    0     1010.9   NA       0.0000   9999     0     0     0    
2019/07/07  15:40:01  BASE  1.38768  120  1.75224  141  -3.4  91    -4.7  17    0     1010.9   NA       0.0000   9999     0     0     0    
2019/07/07  15:41:02  BASE  1.39356  125  1.75224  141  -3.4  91    -4.7  17    0     1010.9   NA       0.0000   9999     0     0     0    
2019/07/07  15:42:02  BASE  1.38768  134  1.75224  141  -3.4  91    -4.7  17    0     1010.9   NA       0.0000   9999     0     0     0    
2019/07/07  15:43:01  BASE  1.43472  143  1.72284  140  -3.5  91    -4.7  17    0     1010.9   NA       0.0000   9999     0     0     0    
2019/07/07  15:44:01  BASE  1.5582   148  1.75224  155  -3.6  91    -4.8  17    0     1010.9   NA       0.0000   9999     0     0     0    
2019/07/07  15:45:02  BASE  1.76988  146  2.1462   151  -3.7  92    -4.9  17    0     1010.9   NA       0.0000   9999     0     0     0    
2019/07/07  15:46:02  BASE  1.89336  142  2.1462   151  -3.8  92    -4.9  17    0     1010.9   NA       0.0000   9999     0     0     0    
2019/07/07  15:47:02  BASE  1.65816  135  2.1462   151  -3.8  92    -5.0  17    0     1010.9   NA       0.0000   9000     0     0     0    
2019/07/07  15:48:02  BASE  1.48176  119  2.1462   151  -3.9  92    -5.0  17    0     1010.9   NA       0.0000   9999     0     0     0    
2019/07/07  15:49:02  BASE  1.47     104  2.1462   151  -3.9  93    -4.9  17    0     1010.9   NA       0.0000   9999     0     0     0    
2019/07/07  15:50:02  BASE  1.4994   93   2.1462   151  -3.8  93    -4.7  17    0     1010.9   NA       0.0000   9999     0     0     0    
2019/07/07  15:51:02  BASE  1.62288  92   2.1756   88   -3.7  94    -4.5  17    0     1010.9   NA       0.0000   9999     0     0     0    
2019/07/07  15:52:02  BASE  1.81104  91   2.1756   88   -3.5  94    -4.3  17    0     1010.9   NA       0.0000   9000     0     0     0    
2019/07/07  15:53:01  BASE  2.07564  92   2.38728  99   -3.5  94    -4.4  17    0     1010.9   NA       0.0000   BR       9000  0     0    
2019/07/07  15:54:01  BASE  2.14032  97   2.38728  99   -3.6  94    -4.5  17    0     1010.9   NA       0.0000   BR       9999  0     0    
2019/07/07  15:55:02  BASE  2.03448  93   2.51076  93   -3.7  94    -4.6  17    0     1010.9   NA       0.0000   BR       9999  0     0    
2019/07/07  15:56:01  BASE  1.86984  86   2.51076  93   -3.8  94    -4.6  17    0     1010.9   NA       0.0000   BR       9999  0     0    
2019/07/07  15:57:01  BASE  1.7052   81   2.51076  93   -3.8  94    -4.6  17    0     1010.9   NA       0.0000   BR       9999  0     0    
2019/07/07  15:58:01  BASE  1.61112  78   2.51076  93   -3.6  95    -4.4  17    0     1010.9   NA       0.0000   BR       9999  0     0    
2019/07/07  15:59:01  BASE  1.41708  78   2.51076  93   -3.5  95    -4.2  17    0     1010.9   NA       0.0000   BR       9999  0     0    
2019/07/07  16:00:01  BASE  1.28184  80   2.51076  93   -3.4  95    -4.0  17    0     1010.9   NA       0.0000   BR       9999  0     0    
2019/07/07  16:01:02  BASE  1.58172  75   2.51076  93   -3.3  95    -4.0  17    0     1010.9   NA       0.0000   BR       9999  0     0    
2019/07/07  16:02:01  BASE  2.01096  61   2.51076  93   -3.3  95    -4.0  17    0     1010.9   NA       0.0000   9999     0     0     0    
2019/07/07  16:03:01  BASE  2.21088  54   2.51076  93   -3.4  95    -4.1  17    0     1010.9   NA       0.0000   9999     0     0     0    
2019/07/07  16:04:01  BASE  2.18736  55   2.51076  93   -3.5  95    -4.2  18    0     1010.9   NA       0.0000   9999     0     0     0    
2019/07/07  16:05:02  BASE  1.99332  56   2.45196  58   -3.5  95    -4.2  18    0     1010.9   NA       0.0000   9999     0     0     0    
2019/07/07  16:06:02  BASE  1.75224  57   2.45196  58   -3.6  95    -4.2  18    0     1010.9   NA       0.0000   9999     0     0     0    
2019/07/07  16:07:02  BASE  1.58172  60   2.45196  58   -3.5  95    -4.2  18    0     1010.9   NA       0.0000   9999     0     0     0    
2019/07/07  16:08:02  BASE  1.54644  62   2.45196  58   -3.5  95    -4.1  18    0     1010.9   NA       0.0000   9999     0     0     0    
2019/07/07  16:09:02  BASE  1.71696  64   2.45196  58   -3.4  96    -4.0  18    0     1010.9   NA       0.0000   9999     0     0     0    
2019/07/07  16:10:02  BASE  1.92276  61   2.45196  58   -3.4  96    -4.0  17    0     1011.0   NA       0.0000   9999     0     0     0    
2019/07/07  16:11:01  BASE  1.72284  58   2.45196  58   -3.5  96    -4.1  17    0     1011.1   NA       0.0000   9999     0     0     0    
2019/07/07  16:12:02  BASE  1.49352  57   2.45196  58   -3.5  96    -4.2  17    0     1011.1   NA       0.0000   9999     0     0     0    
2019/07/07  16:13:01  BASE  1.42296  53   2.24028  60   -3.6  96    -4.2  17    0     1011.1   NA       0.0000   9999     0     0     0    
2019/07/07  16:14:01  BASE  1.47588  46   2.1756   56   -3.6  96    -4.2  17    0     1011.1   NA       0.0000   9999     0     0     0    
2019/07/07  16:15:01  BASE  1.9404   42   2.59896  39   -3.6  96    -4.2  17    0     1011.1   NA       0.0000   9999     0     0     0    
2019/07/07  16:16:02  BASE  2.44608  41   2.81064  43   -3.7  96    -4.2  17    0     1011.1   NA       0.0000   9999     0     0     0    
2019/07/07  16:17:01  BASE  2.55192  37   2.81064  43   -3.8  96    -4.4  17    0     1011.1   NA       0.0000   9999     0     0     0    
2019/07/07  16:18:01  BASE  2.34612  34   2.81064  43   -4.0  95    -4.6  17    0     1011.1   NA       0.0000   9999     0     0     0    
2019/07/07  16:19:01  BASE  2.10504  35   2.81064  43   -4.1  95    -4.7  17    0     1011.1   NA       0.0000   9999     0     0     0    
2019/07/07  16:20:01  BASE  1.85808  35   2.81064  43   -4.3  95    -4.9  17    0     1011.1   NA       0.0000   9999     0     0     0    
2019/07/07  16:21:01  BASE  1.55232  31   2.81064  43   -4.3  96    -4.9  17    0     1011.1   NA       0.0000   9999     0     0     0    
2019/07/07  16:22:01  BASE  1.18188  22   2.81064  43   -4.2  96    -4.8  18    0     1011.1   NA       0.0000   9999     0     0     0    
2019/07/07  16:23:00  BASE  0.53508  10   2.81064  43   -4.2  96    -4.7  18    0     1011.1   NA       0.0000   9999     4690  0     0    
2019/07/07  16:24:00  BASE  0.29988  16   2.81064  43   -4.1  96    -4.6  18    0     1011.1   NA       0.0000   9999     4660  0     0    
2019/07/07  16:25:00  BASE  0.87024  36   2.81064  43   -4.0  96    -4.5  18    0     1011.1   NA       0.0000   9000     4630  0     0    
2019/07/07  16:26:00  BASE  1.5582   48   2.69304  35   -3.9  96    -4.5  18    0     1011.1   NA       0.0000   9000     4720  0     0    
2019/07/07  16:27:01  BASE  2.06976  56   2.69304  35   -3.9  96    -4.4  18    0     1011.1   NA       0.0000   9999     4760  0     0    
2019/07/07  16:28:01  BASE  2.34612  63   2.45196  67   -3.8  96    -4.4  18    0     1011.1   NA       0.0000   9999     0     0     0    
2019/07/07  16:29:01  BASE  2.2932   67   2.45196  67   -3.8  96    -4.4  19    0     1011.2   NA       0.0000   9999     4560  0     0    
2019/07/07  16:30:01  BASE  2.15796  70   2.45196  67   -3.8  95    -4.4  19    0     1011.2   NA       0.0000   9999     4530  0     0    
2019/07/07  16:31:01  BASE  2.10504  71   2.45196  67   -3.8  95    -4.4  19    0     1011.1   NA       0.0000   9999     4530  0     0    
2019/07/07  16:32:01  BASE  2.00508  71   2.45196  67   -3.7  95    -4.4  19    0     1011.1   NA       0.0000   9999     4660  0     0    
2019/07/07  16:33:01  BASE  1.79928  70   2.45196  67   -3.6  95    -4.3  19    0     1011.1   NA       0.0000   9999     4490  0     0    
2019/07/07  16:34:01  BASE  1.51704  70   2.45196  67   -3.4  95    -4.1  19    0     1011.1   NA       0.0000   9999     4490  0     0    
2019/07/07  16:35:02  BASE  1.41708  74   2.45196  67   -3.3  95    -4.0  19    0     1011.1   NA       0.0000   9999     4430  0     0    
2019/07/07  16:36:01  BASE  1.50528  77   2.45196  67   -3.2  95    -3.9  18    0     1011.1   NA       0.0000   9000     4690  0     0    
2019/07/07  16:37:01  BASE  1.32888  82   2.45196  67   -3.1  95    -3.9  18    0     1011.1   NA       0.0000   9999     4630  0     0    
2019/07/07  16:38:01  BASE  0.588    91   2.29908  69   -3.1  95    -3.9  18    0     1011.1   NA       0.0000   9999     4760  0     0    
2019/07/07  16:39:01  BASE  0.0294   95   2.21088  69   -3.1  94    -3.9  18    0     1011.1   NA       0.0000   9999     4760  0     0    
2019/07/07  16:40:01  BASE  0.12936  94   2.1462   72   -3.1  94    -3.9  19    0     1011.1   NA       0.0000   9999     4360  0     0    
2019/07/07  16:41:00  BASE  0.60564  92   2.0286   71   -3.1  94    -3.9  19    0     1011.1   NA       0.0000   9999     4400  0     0    
2019/07/07  16:42:00  BASE  1.05252  100  1.84632  68   -3.1  94    -3.9  19    0     1011.1   NA       0.0000   9999     4400  0     0    
2019/07/07  16:43:00  BASE  0.93492  112  1.63464  77   -3.1  94    -3.9  20    0     1011.1   NA       0.0000   9999     4360  0     0    
2019/07/07  16:44:00  BASE  0.35868  121  1.63464  77   -3.1  94    -3.9  20    0     1011.1   NA       0.0000   9000     4360  0     0    
2019/07/07  16:45:01  BASE  0        126  1.63464  77   -3.1  94    -3.9  21    0     1011.1   NA       0.0000   9999     4330  0     0    
2019/07/07  16:46:01  BASE  0        114  1.39356  80   -3.1  94    -3.9  22    0     1011.2   NA       0.0000   9999     4300  0     0    
2019/07/07  16:47:01  BASE  0.71736  78   2.51076  55   -3.0  94    -3.9  23    0     1011.3   NA       0.0000   9999     4270  0     0    
2019/07/07  16:48:01  BASE  1.92276  53   2.78124  51   -3.1  94    -4.0  23    0     1011.3   NA       0.0000   9999     4300  0     0    
2019/07/07  16:49:01  BASE  2.01096  39   2.78124  51   -3.1  93    -4.1  24    0     1011.1   NA       0.0000   9999     4300  0     0    
2019/07/07  16:50:00  BASE  1.45824  23   2.78124  51   -3.3  93    -4.2  24    0     1011.1   NA       0.0000   9000     4270  0     0    
2019/07/07  16:51:01  BASE  1.60524  28   2.78124  51   -3.4  93    -4.4  24    0     1011.1   NA       0.0000   BR       9000  4230  0    
2019/07/07  16:52:01  BASE  2.34612  48   3.0576   59   -3.6  93    -4.6  24    0     1011.1   NA       0.0000   BR       9999  4200  0    
2019/07/07  16:53:00  BASE  2.43432  63   3.0576   59   -3.7  93    -4.6  22    0     1011.1   NA       0.0000   BR       9999  4270  0    
2019/07/07  16:54:00  BASE  1.2936   88   3.0576   59   -3.7  93    -4.7  22    0     1011.0   NA       0.0000   9999     4270  0     0    
2019/07/07  16:55:01  BASE  0.37044  103  3.0576   59   -3.7  93    -4.6  21    0     1011.0   NA       0.0000   9999     4270  0     0    
2019/07/07  16:56:01  BASE  0.8232   85   3.0576   59   -3.7  93    -4.6  21    0     1011.1   NA       0.0000   9999     4270  0     0    
2019/07/07  16:57:01  BASE  1.28772  81   3.0576   59   -3.6  94    -4.5  21    0     1011.1   NA       0.0000   9999     4270  0     0    
2019/07/07  16:58:00  BASE  1.03488  120  3.0576   59   -3.5  94    -4.3  22    0     1011.0   NA       0.0000   BR       9999  4230  0    
2019/07/07  16:59:00  BASE  0.61152  154  3.0576   59   -3.4  94    -4.2  23    0     1010.9   NA       0.0000   9999     4230  0     0    
2019/07/07  17:00:01  BASE  0.15876  162  3.0576   59   -3.3  94    -4.2  24    0     1011.1   NA       0.0000   9999     4230  0     0    
2019/07/07  17:01:02  BASE  0        162  3.0576   59   -3.2  94    -4.1  24    0     1011.1   NA       0.0000   9999     4230  0     0    
2019/07/07  17:02:01  BASE  0        162  2.90472  64   -3.2  94    -4.0  24    0     1011.1   NA       0.0000   9999     4200  0     0    
2019/07/07  17:03:01  BASE  0        162  1.69344  64   -3.1  94    -3.9  24    0     1011.1   NA       0.0000   9999     4200  0     0    
2019/07/07  17:04:01  BASE  0.3822   116  1.69344  64   -3.0  94    -3.9  24    0     1011.1   NA       0.0000   9999     4200  0     0    
2019/07/07  17:05:00  BASE  1.07016  26   1.69344  64   -3.0  94    -3.9  22    0     1011.1   NA       0.0000   9999     4200  0     0    
2019/07/07  17:06:01  BASE  1.3818   18   1.57584  73   -3.1  93    -4.0  21    0     1011.1   NA       0.0000   9999     4200  0     0    
2019/07/07  17:07:01  BASE  1.37592  20   1.48176  23   -3.2  93    -4.2  20    0     1011.1   NA       0.0000   9999     4170  0     0    
2019/07/07  17:08:00  BASE  1.27008  28   1.48176  23   -3.4  93    -4.4  20    0     1011.1   NA       0.0000   9999     4200  0     0    
2019/07/07  17:09:01  BASE  1.09368  37   1.48176  23   -3.5  93    -4.5  19    0     1011.1   NA       0.0000   9999     4200  0     0    
2019/07/07  17:10:01  BASE  0.90552  52   1.48176  23   -3.5  93    -4.5  18    0     1011.1   NA       0.0000   9999     4430  0     0    
2019/07/07  17:11:00  BASE  0.81144  62   1.48176  23   -3.5  93    -4.4  17    0     1011.1   NA       0.0000   9999     4720  0     0    
2019/07/07  17:12:00  BASE  0.4998   62   1.48176  23   -3.5  94    -4.3  17    0     1011.1   NA       0.0000   9999     4820  0     0    
2019/07/07  17:13:00  BASE  0.6174   51   1.48176  23   -3.4  94    -4.2  16    0     1011.2   NA       0.0000   9999     4430  0     0    
2019/07/07  17:14:00  BASE  1.22892  34   1.48176  23   -3.3  94    -4.2  16    0     1011.2   NA       0.0000   9999     0     0     0    
2019/07/07  17:15:01  BASE  1.4112   29   1.48176  23   -3.3  94    -4.1  16    0     1011.3   NA       0.0000   9999     4860  0     0    
2019/07/07  17:16:00  BASE  1.4112   40   1.51116  54   -3.3  94    -4.2  16    0     1011.3   NA       0.0000   9999     4720  0     0    
2019/07/07  17:17:01  BASE  1.53468  56   1.72284  68   -3.3  94    -4.2  16    0     1011.3   NA       0.0000   9999     5020  0     0    
2019/07/07  17:18:01  BASE  1.66404  66   1.72284  69   -3.4  94    -4.2  16    0     1011.3   NA       0.0000   9999     0     0     0    
2019/07/07  17:19:01  BASE  1.91688  67   2.35788  60   -3.4  94    -4.2  16    0     1011.3   NA       0.0000   9999     5090  0     0    
2019/07/07  17:20:00  BASE  2.39904  62   2.78124  62   -3.4  94    -4.3  16    0     1011.3   NA       0.0000   9999     4920  0     0    
2019/07/07  17:21:00  BASE  2.61072  55   2.84592  50   -3.5  93    -4.5  16    0     1011.3   NA       0.0000   9999     5150  0     0    
2019/07/07  17:22:01  BASE  2.49312  53   2.84592  64   -3.7  93    -4.7  16    0     1011.3   NA       0.0000   9999     5280  0     0    
2019/07/07  17:23:01  BASE  2.09916  55   2.84592  64   -3.8  92    -4.9  15    0     1011.3   NA       0.0000   9999     5150  0     0    
2019/07/07  17:24:01  BASE  1.65816  59   2.84592  64   -3.8  92    -5.0  15    0     1011.3   NA       0.0000   9999     4790  0     0    
2019/07/07  17:25:01  BASE  1.5288   58   2.84592  64   -3.8  91    -5.1  14    0     1011.4   NA       0.0000   9999     5090  0     0    
2019/07/07  17:26:01  BASE  1.66404  61   2.84592  64   -3.7  90    -5.1  14    0     1011.4   NA       0.0000   9999     4890  0     0    
2019/07/07  17:27:01  BASE  2.01096  69   2.84592  64   -3.6  89    -5.1  14    0     1011.3   NA       0.0000   9999     4690  0     0    
2019/07/07  17:28:00  BASE  1.96392  73   2.84592  64   -3.5  89    -5.1  14    0     1011.3   NA       0.0000   9999     4560  0     0    
2019/07/07  17:29:01  BASE  1.66404  76   2.84592  64   -3.4  88    -5.1  13    0     1011.3   NA       0.0000   9999     4530  0     0    
2019/07/07  17:30:00  BASE  1.53468  82   2.84592  64   -3.3  87    -5.1  13    0     1011.3   NA       0.0000   9999     4920  0     0    
2019/07/07  17:31:01  BASE  1.74048  87   2.84592  64   -3.2  87    -5.1  13    0     1011.3   NA       0.0000   9999     4920  0     0    
2019/07/07  17:32:00  BASE  2.00508  91   2.54016  71   -3.1  86    -5.2  13    0     1011.3   NA       0.0000   9999     4890  0     0    
2019/07/07  17:33:01  BASE  1.84044  95   2.54016  71   -3.2  85    -5.3  13    0     1011.3   NA       0.0000   9999     4790  0     0    
2019/07/07  17:34:00  BASE  1.81104  91   2.54016  71   -3.2  84    -5.5  13    0     1011.3   NA       0.0000   9999     4590  5250  0    
2019/07/07  17:35:02  BASE  1.99332  85   2.54016  71   -3.2  83    -5.6  13    0     1011.3   NA       0.0000   9999     4720  0     0    
2019/07/07  17:36:00  BASE  1.53468  79   2.54016  71   -3.1  82    -5.7  13    0     1011.3   NA       0.0000   9999     4590  0     0    
2019/07/07  17:37:00  BASE  1.12896  59   2.42256  89   -3.0  81    -5.7  13    0     1011.3   NA       0.0000   9999     4560  0     0    
2019/07/07  17:38:00  BASE  1.43472  43   2.42256  89   -3.0  81    -5.9  13    0     1011.3   NA       0.0000   9999     4530  0     0    
2019/07/07  17:39:01  BASE  1.38768  41   2.42256  89   -3.0  80    -6.0  13    0     1011.2   NA       0.0000   9999     4530  0     0    
2019/07/07  17:40:01  BASE  1.04076  50   2.42256  89   -3.1  79    -6.2  13    0     1011.1   NA       0.0000   9999     4490  0     0    
2019/07/07  17:41:00  BASE  0.89964  68   2.42256  89   -3.2  78    -6.4  13    0     1011.1   NA       0.0000   9999     4560  0     0    
2019/07/07  17:42:00  BASE  1.11132  95   2.42256  89   -3.3  78    -6.6  13    0     1011.1   NA       0.0000   9999     4690  0     0    
2019/07/07  17:43:00  BASE  1.57584  108  2.42256  89   -3.4  78    -6.7  13    0     1011.1   NA       0.0000   9999     4490  0     0    
2019/07/07  17:44:00  BASE  2.058    95   2.56956  93   -3.4  78    -6.7  13    0     1011.1   NA       0.0000   9999     4720  0     0    
2019/07/07  17:45:01  BASE  2.4402   93   2.72244  99   -3.4  78    -6.7  13    0     1011.1   NA       0.0000   9999     4760  0     0    
2019/07/07  17:46:01  BASE  2.56368  98   2.93412  94   -3.5  78    -6.8  13    0     1011.1   NA       0.0000   9999     4690  0     0    
2019/07/07  17:47:00  BASE  2.25204  104  2.93412  94   -3.6  79    -6.7  13    0     1011.1   NA       0.0000   9999     4630  0     0    
2019/07/07  17:48:00  BASE  1.91688  106  2.93412  94   -3.6  80    -6.6  13    0     1011.1   NA       0.0000   9999     4990  0     0    
2019/07/07  17:49:02  BASE  2.01096  95   2.93412  94   -3.6  80    -6.5  14    0     1011.1   NA       0.0000   9999     4490  0     0    
2019/07/07  17:50:00  BASE  2.24616  86   2.93412  94   -3.6  80    -6.5  14    0     1011.1   NA       0.0000   9999     4460  0     0    
2019/07/07  17:51:00  BASE  1.92276  74   2.93412  94   -3.5  81    -6.3  14    0     1011.1   NA       0.0000   9999     4720  0     0    
2019/07/07  17:52:02  BASE  1.2642   66   2.93412  94   -3.4  81    -6.1  15    0     1011.1   NA       0.0000   9999     5050  0     0    
2019/07/07  17:53:02  BASE  1.15836  71   2.93412  94   -3.3  81    -6.0  15    0     1011.1   NA       0.0000   9999     4590  0     0    
2019/07/07  17:54:01  BASE  1.2348   80   2.93412  94   -3.3  82    -6.0  16    0     1011.1   NA       0.0000   9999     4660  0     0    
2019/07/07  17:55:00  BASE  1.69932  91   2.93412  94   -3.3  82    -5.9  16    0     1011.1   NA       0.0000   9999     4560  0     0    
2019/07/07  17:56:01  BASE  2.37552  101  2.84592  86   -3.3  82    -6.0  17    0     1011.1   NA       0.0000   9999     4490  4950  0    
2019/07/07  17:57:02  BASE  2.7342   102  3.29868  101  -3.5  82    -6.2  18    0     1011.1   NA       0.0000   9999     4720  0     0    
2019/07/07  17:58:01  BASE  3.03996  106  3.38688  117  -3.7  82    -6.3  18    0     1011.1   NA       0.0000   9999     4690  0     0    
2019/07/07  17:59:01  BASE  3.04584  118  3.38688  117  -3.9  82    -6.4  17    0     1011.1   NA       0.0000   9999     4590  0     0    
2019/07/07  18:00:02  BASE  2.77536  120  3.38688  117  -3.9  83    -6.4  17    0     1011.1   NA       0.0000   9999     4460  5120  0    
2019/07/07  18:01:03  BASE  2.44608  116  3.38688  117  -3.9  84    -6.3  16    0     1011.1   NA       0.0000   9999     4760  0     0    
2019/07/07  18:02:03  BASE  2.25792  117  3.38688  117  -3.8  84    -6.1  16    0     1011.1   NA       0.0000   9999     4820  0     0    
2019/07/07  18:03:02  BASE  2.12268  121  3.38688  117  -3.7  85    -5.9  15    0     1011.1   NA       0.0000   9999     4990  0     0    
2019/07/07  18:04:02  BASE  1.87572  121  3.38688  117  -3.6  85    -5.8  14    0     1011.1   NA       0.0000   9999     4950  0     0    
2019/07/07  18:05:02  BASE  1.55232  118  3.38688  117  -3.5  85    -5.7  14    0     1011.1   NA       0.0000   9999     4920  0     0    
2019/07/07  18:06:02  BASE  1.28772  123  3.38688  117  -3.4  85    -5.6  13    0     1011.1   NA       0.0000   9999     4790  0     0    
2019/07/07  18:07:02  BASE  0.87024  133  3.38688  117  -3.3  85    -5.5  12    0     1011.1   NA       0.0000   9999     4790  0     0    
2019/07/07  18:08:02  BASE  0.25284  127  3.32808  126  -3.3  85    -5.4  11    0     1011.1   NA       0.0000   9999     4690  0     0    
2019/07/07  18:09:01  BASE  0        109  3.0576   115  -3.2  85    -5.4  11    0     1011.1   NA       0.0000   9999     4820  0     0    
2019/07/07  18:10:02  BASE  0.07056  98   2.54016  116  -3.1  85    -5.3  11    0     1011.1   NA       0.0000   9999     4720  0     0    
2019/07/07  18:11:02  BASE  0.81732  99   2.48136  120  -3.1  85    -5.3  10    0     1011.1   NA       0.0000   9999     4720  0     0    
2019/07/07  18:12:02  BASE  1.01724  108  2.1462   110  -3.2  85    -5.4  10    0     1011.1   NA       0.0000   9999     4720  0     0    
2019/07/07  18:13:01  BASE  0.29988  124  2.0874   114  -3.1  85    -5.4  10    0     1011.1   NA       0.0000   9999     5050  0     0    
2019/07/07  18:14:01  BASE  0.0294   134  1.81692  90   -3.1  85    -5.3  10    0     1011.1   NA       0.0000   9999     5220  0     0    
2019/07/07  18:15:02  BASE  0        96   1.81692  90   -3.1  85    -5.3  10    0     1011.1   NA       0.0000   9999     4790  0     0    
2019/07/07  18:16:02  BASE  0        32   1.81692  90   -3.0  85    -5.2  10    0     1011.1   NA       0.0000   9999     4720  0     0    
2019/07/07  18:17:02  BASE  0        25   1.81692  90   -2.9  85    -5.1  10    0     1011.1   NA       0.0000   9999     4860  0     0    
2019/07/07  18:18:02  BASE  0        26   1.81692  90   -2.9  85    -5.0  10    0     1011.1   NA       0.0000   9999     4860  0     0    
2019/07/07  18:19:01  BASE  0        57   1.81692  90   -2.8  85    -5.0  10    0     1011.1   NA       0.0000   9999     5090  0     0    
2019/07/07  18:20:02  BASE  0.37044  97   1.81692  90   -2.8  85    -5.0  10    0     1011.1   NA       0.0000   9999     4990  0     0    
2019/07/07  18:21:01  BASE  0.97608  102  1.39356  88   -2.8  85    -5.0  10    0     1011.1   NA       0.0000   9999     5090  0     0    
2019/07/07  18:22:01  BASE  1.19364  93   1.39356  68   -2.9  85    -5.1  10    0     1011.1   NA       0.0000   9999     5090  0     0    
2019/07/07  18:23:02  BASE  1.58172  80   2.93412  69   -3.0  85    -5.2  10    0     1011.1   NA       0.0000   9999     5050  0     0    
2019/07/07  18:24:02  BASE  1.8522   78   2.93412  69   -3.1  84    -5.3  10    0     1011.1   NA       0.0000   9999     4990  0     0    
2019/07/07  18:25:01  BASE  1.764    86   2.93412  69   -3.1  84    -5.4  10    0     1011.1   NA       0.0000   9999     5020  0     0    
2019/07/07  18:26:02  BASE  1.5288   92   2.93412  69   -3.1  84    -5.5  9     0     1011.1   NA       0.0000   9999     4920  0     0    
2019/07/07  18:27:01  BASE  1.11132  106  2.93412  69   -3.1  84    -5.5  9     0     1011.1   NA       0.0000   9999     4990  0     0    
2019/07/07  18:28:02  BASE  1.04076  124  2.93412  69   -3.0  84    -5.4  9     0     1011.1   NA       0.0000   9999     5180  0     0    
2019/07/07  18:29:02  BASE  1.05252  129  2.93412  69   -3.0  83    -5.5  9     0     1011.2   NA       0.0000   9999     5250  0     0    
2019/07/07  18:30:01  BASE  1.54056  104  2.93412  69   -3.1  82    -5.7  9     0     1011.3   NA       0.0000   9999     5120  0     0    
2019/07/07  18:31:02  BASE  1.92864  83   2.93412  69   -3.2  82    -5.8  9     0     1011.3   NA       0.0000   9999     5150  0     0    
2019/07/07  18:32:02  BASE  1.6464   76   2.93412  69   -3.2  82    -5.9  9     0     1011.3   NA       0.0000   9999     5250  0     0    
2019/07/07  18:33:02  BASE  1.39944  64   2.35788  86   -3.3  82    -5.9  9     0     1011.3   NA       0.0000   9999     5250  0     0    
2019/07/07  18:34:01  BASE  0.92316  60   2.35788  86   -3.2  82    -5.9  9     0     1011.2   NA       0.0000   9999     4790  5280  0    
2019/07/07  18:35:03  BASE  0.28224  68   2.35788  86   -3.1  82    -5.8  9     0     1011.1   NA       0.0000   9999     4760  5350  0    
2019/07/07  18:36:01  BASE  0        77   2.35788  86   -3.0  81    -5.7  8     0     1011.1   NA       0.0000   9999     4760  0     0    
2019/07/07  18:37:02  BASE  0.19992  60   2.35788  86   -2.9  81    -5.8  8     0     1011.1   NA       0.0000   9999     4990  5540  0    
2019/07/07  18:38:02  BASE  0.65856  44   2.35788  86   -2.9  80    -5.9  8     0     1011.2   NA       0.0000   9999     4820  5350  0    
2019/07/07  18:39:01  BASE  0.8526   45   2.35788  86   -3.0  80    -6.0  8     0     1011.3   NA       0.0000   9999     5540  0     0    
2019/07/07  18:40:01  BASE  0.39984  59   2.35788  86   -3.0  79    -6.1  8     0     1011.3   NA       0.0000   9999     5540  0     0    
2019/07/07  18:41:02  BASE  0.4704   127  1.60524  64   -3.1  79    -6.1  8     0     1011.3   NA       0.0000   9999     5250  0     0    
2019/07/07  18:42:01  BASE  1.06428  161  1.51116  62   -3.1  80    -6.2  7     0     1011.3   NA       0.0000   9999     5410  0     0    
2019/07/07  18:43:02  BASE  1.39356  139  1.84632  107  -3.2  80    -6.2  7     0     1011.3   NA       0.0000   9999     4820  0     0    
2019/07/07  18:44:02  BASE  1.55232  116  1.87572  110  -3.3  80    -6.2  7     0     1011.3   NA       0.0000   9999     4950  5380  0    
2019/07/07  18:45:01  BASE  1.33476  114  1.87572  110  -3.4  80    -6.3  7     0     1011.3   NA       0.0000   9999     5510  0     0    
2019/07/07  18:46:02  BASE  1.39356  132  1.93452  151  -3.4  81    -6.3  6     0     1011.3   NA       0.0000   9999     4790  5610  0    
2019/07/07  18:47:02  BASE  1.58172  142  1.93452  151  -3.4  81    -6.2  6     0     1011.3   NA       0.0000   9999     4690  5640  0    
2019/07/07  18:48:02  BASE  1.71108  133  2.1756   123  -3.4  81    -6.2  6     0     1011.4   NA       0.0000   9999     4560  5680  0    
2019/07/07  18:49:01  BASE  1.9404   137  2.32848  150  -3.4  81    -6.2  6     0     1011.3   NA       0.0000   9999     5770  0     0    
2019/07/07  18:50:03  BASE  2.28144  156  2.81064  165  -3.5  81    -6.3  5     0     1011.3   NA       0.0000   9999     5580  0     0    
2019/07/07  18:51:02  BASE  2.28144  157  2.81064  165  -3.6  81    -6.4  5     0     1011.3   NA       0.0000   9999     5640  0     0    
2019/07/07  18:52:01  BASE  1.76988  138  2.81064  165  -3.8  81    -6.5  5     0     1011.3   NA       0.0000   9999     5710  0     0    
2019/07/07  18:53:02  BASE  1.34064  122  2.81064  165  -3.9  82    -6.6  5     0     1011.3   NA       0.0000   9999     5770  0     0    
2019/07/07  18:54:02  BASE  0.87612  124  2.81064  165  -3.9  82    -6.5  4     0     1011.4   NA       0.0000   9999     5770  0     0    
2019/07/07  18:55:01  BASE  0.9996   137  2.81064  165  -3.9  83    -6.3  4     0     1011.3   NA       0.0000   9999     5770  0     0    
2019/07/07  18:56:02  BASE  1.62876  150  2.81064  165  -3.8  83    -6.2  4     0     1011.3   NA       0.0000   9999     4720  5740  0    
2019/07/07  18:57:01  BASE  1.98156  162  2.81064  165  -3.6  84    -6.0  4     0     1011.3   NA       0.0000   9999     4630  0     0    
2019/07/07  18:58:01  BASE  2.04624  167  2.81064  165  -3.5  84    -5.8  4     0     1011.3   NA       0.0000   9999     4560  0     0    
2019/07/07  18:59:01  BASE  2.08152  169  2.81064  165  -3.3  84    -5.7  4     0     1011.3   NA       0.0000   9999     4590  0     0    
2019/07/07  19:00:02  BASE  2.24028  174  2.54016  169  -3.3  84    -5.6  3     0     1011.3   NA       0.0000   9999     4560  0     0    
2019/07/07  19:01:01  BASE  2.52252  179  2.93412  178  -3.3  84    -5.6  3     0     1011.3   NA       0.0000   9999     4460  0     0    
2019/07/07  19:02:01  BASE  2.71656  179  2.93412  182  -3.3  84    -5.7  3     0     1011.3   NA       0.0000   9999     4530  0     0    
2019/07/07  19:03:01  BASE  2.54604  177  2.93412  182  -3.4  84    -5.7  3     0     1011.3   NA       0.0000   9999     4530  0     0    
2019/07/07  19:04:01  BASE  2.37552  174  2.93412  182  -3.4  84    -5.7  3     0     1011.3   NA       0.0000   9999     4460  0     0    
2019/07/07  19:05:02  BASE  2.35788  172  2.93412  182  -3.4  85    -5.7  3     0     1011.3   NA       0.0000   9999     4430  0     0    
2019/07/07  19:06:01  BASE  2.01096  165  2.93412  182  -3.5  85    -5.6  3     0     1011.4   NA       0.0000   9999     4430  0     0    
2019/07/07  19:07:01  BASE  1.6758   143  2.93412  182  -3.5  85    -5.7  3     0     1011.4   NA       0.0000   9999     4360  0     0    
2019/07/07  19:08:01  BASE  1.78164  117  2.93412  182  -3.6  85    -5.7  3     0     1011.4   NA       0.0000   9999     4590  0     0    
2019/07/07  19:09:01  BASE  1.9992   115  2.93412  182  -3.6  86    -5.7  2     0     1011.4   NA       0.0000   9999     4490  0     0    
2019/07/07  19:10:01  BASE  2.24028  135  2.93412  182  -3.5  86    -5.5  2     0     1011.3   NA       0.0000   9999     4460  0     0    
2019/07/07  19:11:02  BASE  2.56368  143  3.087    129  -3.4  86    -5.4  2     0     1011.3   NA       0.0000   9999     4460  0     0    
2019/07/07  19:12:02  BASE  2.646    142  3.087    129  -3.3  87    -5.2  2     0     1011.3   NA       0.0000   9999     4330  0     0    
2019/07/07  19:13:02  BASE  2.64012  141  3.087    129  -3.3  86    -5.2  2     0     1011.4   NA       0.0000   9999     4460  0     0    
2019/07/07  19:14:01  BASE  2.7636   135  3.26928  126  -3.3  86    -5.3  2     0     1011.3   NA       0.0000   9999     4530  0     0    
2019/07/07  19:15:02  BASE  2.87532  130  3.26928  126  -3.4  86    -5.5  2     0     1011.3   NA       0.0000   9999     4490  0     0    
2019/07/07  19:16:02  BASE  3.06936  137  3.48096  144  -3.6  86    -5.6  2     0     1011.3   NA       0.0000   9999     4400  5410  0    
2019/07/07  19:17:01  BASE  3.03996  137  3.48096  144  -3.7  86    -5.7  2     0     1011.3   NA       0.0000   9999     4660  0     0    
2019/07/07  19:18:01  BASE  3.19284  131  3.65736  132  -3.8  86    -5.8  2     0     1011.3   NA       0.0000   9999     5280  0     0    
2019/07/07  19:19:02  BASE  3.51036  139  3.65736  132  -3.7  86    -5.7  1     0     1011.3   NA       0.0000   9999     5250  0     0    
2019/07/07  19:20:02  BASE  3.53976  150  3.78084  153  -3.7  87    -5.6  1     0     1011.3   NA       0.0000   9999     4490  5510  0    
2019/07/07  19:21:01  BASE  3.58092  153  3.96312  155  -3.6  87    -5.5  1     0     1011.3   NA       0.0000   9999     4460  0     0    
2019/07/07  19:22:01  BASE  3.61032  150  4.32768  155  -3.6  87    -5.4  1     0     1011.3   NA       0.0000   9999     4490  0     0    
2019/07/07  19:23:01  BASE  4.01016  149  4.96272  140  -3.6  88    -5.4  1     0     1011.2   NA       0.0000   9999     4530  5380  0    
2019/07/07  19:24:02  BASE  4.36884  148  4.96272  140  -3.6  88    -5.4  1     0     1011.2   NA       0.0000   9999     4430  5450  0    
2019/07/07  19:25:02  BASE  4.56288  147  5.10972  148  -3.7  88    -5.4  1     0     1011.2   NA       0.0000   9999     4400  5510  0    
2019/07/07  19:26:01  BASE  4.6746   148  5.10972  148  -3.7  88    -5.3  1     0     1011.3   NA       0.0000   9999     4460  0     0    
2019/07/07  19:27:01  BASE  3.92784  147  5.10972  148  -3.6  88    -5.3  1     0     1011.3   NA       0.0000   9999     4460  0     0    
2019/07/07  19:28:01  BASE  2.69304  137  5.10972  148  -3.6  89    -5.2  1     0     1011.3   NA       0.0000   9999     4660  5450  0    
2019/07/07  19:29:02  BASE  1.76988  117  5.10972  148  -3.5  89    -5.1  1     0     1011.3   NA       0.0000   9999     4630  0     0    
2019/07/07  19:30:02  BASE  1.2348   101  5.10972  148  -3.5  89    -5.1  1     0     1011.3   NA       0.0000   9999     4660  0     0    
2019/07/07  19:31:02  BASE  1.42884  96   5.10972  148  -3.5  89    -5.1  1     0     1011.4   NA       0.0000   9999     4660  0     0    
2019/07/07  19:32:02  BASE  1.48764  113  5.10972  148  -3.5  89    -5.0  1     0     1011.4   NA       0.0000   9999     4630  0     0    
2019/07/07  19:33:02  BASE  0.81144  118  5.10972  148  -3.5  89    -5.0  0     0     1011.3   NA       0.0000   9999     4590  0     0    
2019/07/07  19:34:02  BASE  0.2352   77   5.10972  148  -3.5  90    -4.9  0     0     1011.3   NA       0.0000   9999     4660  0     0    
2019/07/07  19:35:03  BASE  0.0882   63   4.99212  149  -3.4  90    -4.9  0     0     1011.3   NA       0.0000   9999     4690  5410  0    
2019/07/07  19:36:01  BASE  0.36456  39   3.78084  150  -3.4  90    -4.8  0     0     1011.3   NA       0.0000   9999     4660  0     0    
2019/07/07  19:37:02  BASE  0.32928  11   2.63424  98   -3.4  90    -4.8  0     0     1011.3   NA       0.0000   9999     4590  5580  0    
2019/07/07  19:38:01  BASE  0.1764   6    2.63424  98   -3.3  90    -4.7  0     0     1011.3   NA       0.0000   9999     4660  0     0    
2019/07/07  19:39:02  BASE  0.2352   20   2.63424  98   -3.3  90    -4.7  0     0     1011.3   NA       0.0000   9999     4560  0     0    
2019/07/07  19:40:01  BASE  0.294    45   2.63424  98   -3.4  90    -4.8  0     0     1011.3   NA       0.0000   9999     4590  0     0    
2019/07/07  19:41:01  BASE  0.49392  67   1.35828  146  -3.4  90    -4.8  0     0     1011.3   NA       0.0000   9999     4690  0     0    
2019/07/07  19:42:01  BASE  0.43512  107  1.35828  146  -3.4  90    -4.8  0     0     1011.2   NA       0.0000   9999     4590  0     0    
2019/07/07  19:43:01  BASE  0.74088  126  1.78752  117  -3.4  90    -4.8  0     0     1011.2   NA       0.0000   9999     4560  0     0    
2019/07/07  19:44:01  BASE  1.69344  111  2.81064  114  -3.5  90    -4.8  0     0     1011.2   NA       0.0000   9999     4460  0     0    
2019/07/07  19:45:02  BASE  2.4696   97   3.234    78   -3.5  90    -4.9  0     0     1011.3   NA       0.0000   9999     4400  0     0    
2019/07/07  19:46:01  BASE  2.45784  82   3.234    78   -3.6  90    -4.9  0     0     1011.2   NA       0.0000   9999     4590  0     0    
2019/07/07  19:47:02  BASE  1.8816   85   3.234    78   -3.6  90    -5.0  0     0     1011.1   NA       0.0000   9999     4560  0     0    
2019/07/07  19:48:01  BASE  1.34652  84   3.234    78   -3.6  90    -5.1  0     0     1011.1   NA       0.0000   9999     4490  0     0    
2019/07/07  19:49:02  BASE  1.22892  65   3.234    78   -3.6  89    -5.1  0     0     1011.1   NA       0.0000   9999     4460  0     0    
2019/07/07  19:50:02  BASE  1.5582   48   3.234    78   -3.5  89    -5.1  0     0     1011.2   NA       0.0000   9999     4490  0     0    
2019/07/07  19:51:02  BASE  1.76988  37   3.234    78   -3.4  88    -5.1  0     0     1011.3   NA       0.0000   9999     4590  0     0    
2019/07/07  19:52:01  BASE  1.80516  17   3.234    78   -3.4  87    -5.2  0     0     1011.3   NA       0.0000   9999     4490  0     0    
2019/07/07  19:53:02  BASE  1.6464   354  3.234    78   -3.4  87    -5.3  0     0     1011.3   NA       0.0000   9999     4490  0     0    
2019/07/07  19:54:01  BASE  1.37004  342  3.234    78   -3.5  86    -5.4  0     0     1011.3   NA       0.0000   9999     4360  0     0    
2019/07/07  19:55:02  BASE  1.09956  335  2.63424  67   -3.5  87    -5.4  0     0     1011.3   NA       0.0000   9999     4430  0     0    
2019/07/07  19:56:02  BASE  0.95256  334  2.24028  99   -3.5  87    -5.3  0     0     1011.3   NA       0.0000   9999     4230  0     0    
2019/07/07  19:57:01  BASE  1.08192  337  2.1756   56   -3.4  87    -5.2  0     0     1011.3   NA       0.0000   9999     4490  0     0    
2019/07/07  19:58:01  BASE  1.74048  334  2.84592  337  -3.4  88    -5.1  0     0     1011.3   NA       0.0000   9999     4460  0     0    
2019/07/07  19:59:02  BASE  2.7636   333  3.53976  333  -3.4  88    -5.1  0     0     1011.2   NA       0.0000   9999     4490  0     0    
2019/07/07  20:00:01  BASE  3.22224  333  3.53976  333  -3.5  88    -5.2  0     0     1011.2   NA       0.0000   9999     4360  0     0    
2019/07/07  20:01:01  BASE  2.86944  328  3.53976  333  -3.5  88    -5.2  0     0     1011.3   NA       0.0000   9999     4460  0     0    
2019/07/07  20:02:01  BASE  2.39904  324  3.53976  333  -3.6  88    -5.2  0     0     1011.3   NA       0.0000   9999     4530  0     0    
2019/07/07  20:03:01  BASE  2.14032  325  3.53976  333  -3.6  89    -5.2  0     0     1011.3   NA       0.0000   9999     4330  0     0    
2019/07/07  20:04:02  BASE  2.16972  329  3.53976  333  -3.6  89    -5.1  0     0     1011.3   NA       0.0000   9999     4430  0     0    
2019/07/07  20:05:02  BASE  2.3226   332  3.53976  333  -3.5  89    -5.0  0     0     1011.3   NA       0.0000   9999     4400  0     0    
2019/07/07  20:06:02  BASE  2.34024  331  3.53976  333  -3.5  90    -5.0  0     0     1011.3   NA       0.0000   9999     4400  0     0    
2019/07/07  20:07:01  BASE  2.45196  331  3.53976  333  -3.5  90    -5.0  0     0     1011.3   NA       0.0000   9999     4530  0     0    
2019/07/07  20:08:01  BASE  2.68716  331  3.53976  333  -3.6  90    -5.0  0     0     1011.3   NA       0.0000   9999     4630  0     0    
2019/07/07  20:09:01  BASE  2.75772  331  3.41628  330  -3.6  90    -5.0  0     0     1011.4   NA       0.0000   9999     4660  0     0    
2019/07/07  20:10:01  BASE  2.61072  331  2.87532  329  -3.6  90    -5.0  0     0     1011.4   NA       0.0000   9999     4690  0     0    
2019/07/07  20:11:02  BASE  2.34612  326  2.87532  329  -3.6  90    -5.0  0     0     1011.4   NA       0.0000   9999     4590  0     0    
2019/07/07  20:12:01  BASE  2.21676  329  2.87532  329  -3.6  91    -4.9  0     0     1011.4   NA       0.0000   9999     4590  0     0    
2019/07/07  20:13:01  BASE  2.51076  339  2.96352  344  -3.6  91    -4.9  0     0     1011.4   NA       0.0000   9999     4590  0     0    
2019/07/07  20:14:01  BASE  2.92236  343  3.234    346  -3.6  91    -4.9  0     0     1011.4   NA       0.0000   9999     4760  0     0    
2019/07/07  20:15:01  BASE  2.89884  342  3.234    346  -3.6  91    -4.8  0     0     1011.5   NA       0.0000   9999     4720  0     0    
2019/07/07  20:16:02  BASE  2.42844  340  3.234    346  -3.6  91    -4.8  0     0     1011.5   NA       0.0000   9999     4790  0     0    
2019/07/07  20:17:02  BASE  1.90512  340  3.234    346  -3.6  92    -4.7  0     0     1011.5   NA       0.0000   9999     4790  0     0    
2019/07/07  20:18:01  BASE  1.74048  345  3.234    346  -3.6  92    -4.7  0     0     1011.5   NA       0.0000   9999     4860  0     0    
2019/07/07  20:19:02  BASE  2.0286   352  3.234    346  -3.5  92    -4.7  0     0     1011.5   NA       0.0000   9999     4820  0     0    
2019/07/07  20:20:02  BASE  2.31672  350  3.234    346  -3.5  92    -4.7  0     0     1011.5   NA       0.0000   9999     4860  0     0    
2019/07/07  20:21:01  BASE  2.16384  354  3.234    346  -3.5  92    -4.6  0     0     1011.5   NA       0.0000   9999     4660  0     0    
2019/07/07  20:22:01  BASE  1.81104  4    3.234    346  -3.5  92    -4.6  0     0     1011.5   NA       0.0000   9999     4760  0     0    
2019/07/07  20:23:02  BASE  1.53468  6    3.234    346  -3.5  92    -4.6  0     0     1011.5   NA       0.0000   9999     4790  0     0    
2019/07/07  20:24:02  BASE  1.39356  3    2.99292  339  -3.4  92    -4.6  0     0     1011.5   NA       0.0000   9999     4660  0     0    
2019/07/07  20:25:02  BASE  1.32888  1    2.54016  3    -3.4  92    -4.5  0     0     1011.5   NA       0.0000   9999     4530  0     0    
2019/07/07  20:26:02  BASE  1.43472  358  2.54016  3    -3.4  92    -4.5  0     0     1011.5   NA       0.0000   9999     4690  0     0    
2019/07/07  20:27:02  BASE  1.51704  353  2.54016  3    -3.4  92    -4.5  0     0     1011.5   NA       0.0000   9999     4790  0     0    
2019/07/07  20:28:02  BASE  1.34064  352  2.54016  3    -3.4  92    -4.5  0     0     1011.5   NA       0.0000   9999     4790  0     0    
2019/07/07  20:29:01  BASE  1.14072  1    2.54016  3    -3.3  92    -4.5  0     0     1011.5   NA       0.0000   9999     4820  0     0    
2019/07/07  20:30:01  BASE  0.9702   13   2.1462   2    -3.3  91    -4.5  0     0     1011.5   NA       0.0000   9999     4630  0     0    
2019/07/07  20:31:01  BASE  0.82908  16   1.84632  4    -3.3  91    -4.5  0     0     1011.5   NA       0.0000   9999     4720  0     0    
2019/07/07  20:32:01  BASE  0.48216  12   1.69344  343  -3.2  91    -4.5  0     0     1011.5   NA       0.0000   9999     4820  0     0    
2019/07/07  20:33:01  BASE  0.54684  359  1.69344  343  -3.2  91    -4.5  0     0     1011.5   NA       0.0000   9999     4820  0     0    
2019/07/07  20:34:02  BASE  1.04076  345  1.69344  343  -3.2  91    -4.5  0     0     1011.5   NA       0.0000   9999     4820  0     0    
2019/07/07  20:35:03  BASE  1.25832  340  1.69344  343  -3.1  90    -4.5  0     0     1011.5   NA       0.0000   9999     4860  0     0    
2019/07/07  20:36:02  BASE  1.3524   339  1.51116  352  -3.1  90    -4.5  0     0     1011.6   NA       0.0000   9999     5120  5940  0    
2019/07/07  20:37:02  BASE  1.49352  339  1.75224  342  -3.1  89    -4.6  0     0     1011.6   NA       0.0000   9999     4820  6100  0    
2019/07/07  20:38:02  BASE  1.66992  341  1.84632  343  -3.1  89    -4.7  0     0     1011.6   NA       0.0000   9999     4860  0     0    
2019/07/07  20:39:02  BASE  1.82868  344  2.0874   343  -3.2  89    -4.7  0     0     1011.6   NA       0.0000   9999     4920  0     0    
2019/07/07  20:40:01  BASE  2.01684  345  2.24028  346  -3.2  89    -4.8  0     0     1011.6   NA       0.0000   9999     4920  0     0    
2019/07/07  20:41:02  BASE  2.06976  351  2.26968  350  -3.3  89    -4.8  0     0     1011.6   NA       0.0000   9999     4950  0     0    
2019/07/07  20:42:01  BASE  1.95216  351  2.26968  350  -3.3  89    -4.8  0     0     1011.6   NA       0.0000   9999     4990  0     0    
2019/07/07  20:43:02  BASE  2.1756   344  2.59896  340  -3.4  90    -4.8  0     0     1011.6   NA       0.0000   9999     4890  0     0    
2019/07/07  20:44:02  BASE  2.53428  340  2.78124  337  -3.4  90    -4.8  0     0     1011.6   NA       0.0000   9999     4950  0     0    
2019/07/07  20:45:02  BASE  2.68716  339  2.99292  342  -3.4  90    -4.8  0     0     1011.6   NA       0.0000   9999     5050  6170  0    
2019/07/07  20:46:02  BASE  2.87532  339  3.1458   338  -3.4  90    -4.8  0     0     1011.6   NA       0.0000   9999     4890  6270  0    
2019/07/07  20:47:02  BASE  3.19872  337  3.69264  337  -3.3  90    -4.8  0     0     1011.6   NA       0.0000   9999     5020  0     0    
2019/07/07  20:48:02  BASE  3.66324  339  4.29828  343  -3.3  90    -4.7  0     0     1011.6   NA       0.0000   9999     5120  0     0    
2019/07/07  20:49:02  BASE  4.03956  342  4.41588  343  -3.3  90    -4.7  0     0     1011.6   NA       0.0000   9999     5090  0     0    
2019/07/07  20:50:01  BASE  3.92196  344  4.41588  343  -3.4  90    -4.8  0     0     1011.6   NA       0.0000   9999     5220  0     0    
2019/07/07  20:51:02  BASE  3.3516   347  4.41588  343  -3.4  90    -4.8  0     0     1011.6   NA       0.0000   9999     5220  0     0    
2019/07/07  20:52:02  BASE  2.8518   349  4.41588  343  -3.4  90    -4.8  0     0     1011.6   NA       0.0000   9999     5220  0     0    
2019/07/07  20:53:01  BASE  2.54016  349  4.41588  343  -3.4  91    -4.8  0     0     1011.6   NA       0.0000   9999     5220  0     0    
2019/07/07  20:54:01  BASE  2.38728  349  4.41588  343  -3.4  91    -4.7  0     0     1011.6   NA       0.0000   9999     5320  0     0    
2019/07/07  20:55:01  BASE  2.40492  357  4.41588  343  -3.4  91    -4.6  0     0     1011.6   NA       0.0000   9999     5280  0     0    
2019/07/07  20:56:02  BASE  2.66364  359  4.41588  343  -3.3  92    -4.5  0     0     1011.6   NA       0.0000   9999     5280  0     0    
2019/07/07  20:57:02  BASE  2.91648  351  4.41588  343  -3.3  92    -4.4  0     0     1011.6   NA       0.0000   9999     5280  0     0    
2019/07/07  20:58:02  BASE  2.9106   344  4.41588  343  -3.3  92    -4.4  0     0     1011.6   NA       0.0000   9999     5250  0     0    
2019/07/07  20:59:02  BASE  2.78712  347  3.99252  347  -3.3  92    -4.4  0     0     1011.6   NA       0.0000   9999     5250  0     0    
2019/07/07  21:00:03  BASE  2.62836  350  3.41628  346  -3.3  92    -4.4  0     0     1011.7   NA       0.0000   9999     5320  0     0    
2019/07/07  21:01:02  BASE  2.38728  357  3.1458   355  -3.3  92    -4.3  0     0     1011.6   NA       0.0000   9999     5250  0     0    
2019/07/07  21:02:02  BASE  2.3226   358  3.1458   355  -3.3  93    -4.4  0     0     1011.6   NA       0.0000   9999     5280  0     0    
2019/07/07  21:03:01  BASE  2.39904  351  3.1458   355  -3.3  93    -4.3  0     0     1011.6   NA       0.0000   9999     5280  0     0    
2019/07/07  21:04:02  BASE  2.45784  347  3.1458   355  -3.3  93    -4.3  0     0     1011.6   NA       0.0000   9999     5250  0     0    
2019/07/07  21:05:02  BASE  2.56956  349  3.1458   355  -3.3  93    -4.2  0     0     1011.6   NA       0.0000   9999     5350  0     0    
2019/07/07  21:06:02  BASE  2.77536  349  3.1458   355  -3.3  93    -4.2  0     0     1011.6   NA       0.0000   9999     5180  0     0    
2019/07/07  21:07:02  BASE  3.08112  349  3.38688  348  -3.3  94    -4.2  0     0     1011.6   NA       0.0000   9999     5280  0     0    
2019/07/07  21:08:02  BASE  3.12228  348  3.38688  348  -3.2  94    -4.1  0     0     1011.6   NA       0.0000   9999     5350  0     0    
2019/07/07  21:09:02  BASE  2.98704  348  3.38688  348  -3.2  94    -4.1  0     0     1011.6   NA       0.0000   9999     5350  0     0    
2019/07/07  21:10:02  BASE  2.84004  349  3.38688  348  -3.3  94    -4.1  0     0     1011.6   NA       0.0000   9999     5350  0     0    
2019/07/07  21:11:02  BASE  2.793    351  3.38688  348  -3.3  94    -4.1  0     0     1011.6   NA       0.0000   9999     5320  0     0    
2019/07/07  21:12:01  BASE  2.87532  350  3.38688  348  -3.3  94    -4.1  0     0     1011.6   NA       0.0000   9999     5220  0     0    
2019/07/07  21:13:01  BASE  2.93412  349  3.38688  348  -3.4  94    -4.1  0     0     1011.6   NA       0.0000   9999     5250  0     0    
2019/07/07  21:14:02  BASE  3.12228  348  3.38688  348  -3.4  95    -4.1  0     0     1011.6   NA       0.0000   9999     5250  0     0    
2019/07/07  21:15:02  BASE  3.37512  349  3.75144  351  -3.4  95    -4.1  0     0     1011.6   NA       0.0000   9999     5350  0     0    
2019/07/07  21:16:02  BASE  3.59856  354  3.90432  355  -3.3  95    -4.0  0     0     1011.6   NA       0.0000   9999     5250  0     0    
2019/07/07  21:17:02  BASE  3.78084  357  4.1454   353  -3.3  95    -4.0  0     0     1011.6   NA       0.0000   9999     5350  0     0    
2019/07/07  21:18:01  BASE  3.77496  357  4.1454   353  -3.3  95    -4.0  0     0     1011.6   NA       0.0000   9999     5350  0     0    
2019/07/07  21:19:02  BASE  3.58092  353  4.1454   353  -3.4  95    -4.0  0     0     1011.6   NA       0.0000   9999     5280  0     0    
2019/07/07  21:20:01  BASE  3.37512  350  4.1454   353  -3.4  96    -4.0  0     0     1011.6   NA       0.0000   9999     5250  0     0    
2019/07/07  21:21:02  BASE  3.42804  351  4.1454   353  -3.4  96    -4.0  0     0     1011.7   NA       0.0000   9999     5180  0     0    
2019/07/07  21:22:01  BASE  3.381    349  4.1454   353  -3.4  96    -4.0  0     0     1011.7   NA       0.0000   9999     5320  0     0    
2019/07/07  21:23:01  BASE  3.33396  353  4.1454   353  -3.4  96    -4.0  0     0     1011.7   NA       0.0000   9999     5320  0     0    
2019/07/07  21:24:01  BASE  3.528    359  4.1454   353  -3.4  96    -4.0  0     0     1011.7   NA       0.0000   9999     5280  0     0    
2019/07/07  21:25:02  BASE  3.6162   2    4.1454   353  -3.4  96    -4.0  0     0     1011.7   NA       0.0000   9999     5320  0     0    
2019/07/07  21:26:02  BASE  3.55152  5    4.1454   353  -3.5  96    -4.0  0     0     1011.7   NA       0.0000   9999     5350  0     0    
2019/07/07  21:27:02  BASE  3.43392  7    4.02192  346  -3.5  96    -4.0  0     0     1011.7   NA       0.0000   9999     5320  0     0    
2019/07/07  21:28:02  BASE  3.47508  5    4.02192  346  -3.5  96    -4.0  0     0     1011.7   NA       0.0000   9999     5350  0     0    
2019/07/07  21:29:02  BASE  3.42804  4    4.02192  346  -3.5  96    -4.0  0     0     1011.7   NA       0.0000   9999     5320  0     0    
2019/07/07  21:30:02  BASE  3.38688  6    4.02192  346  -3.5  96    -4.0  0     0     1011.7   NA       0.0000   9999     5280  0     0    
2019/07/07  21:31:02  BASE  3.3222   7    3.86904  1    -3.5  96    -4.0  0     0     1011.7   NA       0.0000   9999     5280  0     0    
2019/07/07  21:32:02  BASE  3.3222   9    3.86904  1    -3.5  96    -4.0  0     0     1011.7   NA       0.0000   9999     5320  0     0    
2019/07/07  21:33:02  BASE  3.18696  17   3.86904  1    -3.5  96    -4.0  0     0     1011.7   NA       0.0000   9999     5320  0     0    
2019/07/07  21:34:02  BASE  3.09288  25   3.86904  1    -3.6  97    -4.0  0     0     1011.7   NA       0.0000   9999     5050  0     0    
2019/07/07  21:35:03  BASE  3.23988  21   3.75144  2    -3.7  97    -4.1  0     0     1011.7   NA       0.0000   9999     5150  0     0    
2019/07/07  21:36:02  BASE  3.19284  18   3.75144  2    -3.7  97    -4.2  0     0     1011.8   NA       0.0000   9999     5090  0     0    
2019/07/07  21:37:02  BASE  3.1458   20   3.75144  2    -3.8  97    -4.2  0     0     1011.7   NA       0.0000   9999     5280  0     0    
2019/07/07  21:38:02  BASE  3.1752   21   3.59856  12   -3.9  97    -4.2  0     0     1011.7   NA       0.0000   9999     4890  0     0    
2019/07/07  21:39:02  BASE  3.21048  23   3.59856  12   -3.9  98    -4.2  0     0     1011.7   NA       0.0000   9999     5280  0     0    
2019/07/07  21:40:02  BASE  3.19872  20   3.59856  12   -3.9  98    -4.2  0     0     1011.7   NA       0.0000   9999     5280  0     0    
2019/07/07  21:41:02  BASE  3.19284  14   3.59856  12   -3.9  98    -4.1  0     0     1011.7   NA       0.0000   9999     5050  0     0    
2019/07/07  21:42:03  BASE  3.4104   10   3.83964  6    -3.9  98    -4.1  0     0     1011.7   NA       0.0000   9999     5280  0     0    
2019/07/07  21:43:01  BASE  3.34572  6    3.83964  6    -3.9  98    -4.1  0     0     1011.8   NA       0.0000   9999     5380  0     0    
2019/07/07  21:44:01  BASE  3.31044  3    3.99252  6    -3.8  98    -4.1  0     0     1011.9   NA       0.0000   9999     4760  0     0    
2019/07/07  21:45:02  BASE  3.48096  4    3.99252  6    -3.7  98    -4.0  0     0     1011.9   NA       0.0000   9999     5350  0     0    
2019/07/07  21:46:02  BASE  3.29868  6    3.99252  6    -3.7  98    -3.9  0     0     1011.9   NA       0.0000   9999     5380  0     0    
2019/07/07  21:47:02  BASE  3.25164  8    3.99252  6    -3.6  98    -3.8  0     0     1011.9   NA       0.0000   9999     4920  0     0    
2019/07/07  21:48:01  BASE  3.35748  12   3.99252  6    -3.6  99    -3.8  0     0     1011.9   NA       0.0000   9999     5380  0     0    
2019/07/07  21:49:01  BASE  3.21048  15   3.99252  6    -3.6  99    -3.7  0     0     1011.9   NA       0.0000   9999     5320  0     0    
2019/07/07  21:50:01  BASE  2.94588  18   3.99252  6    -3.5  99    -3.7  0     0     1011.9   NA       0.0000   9999     4860  0     0    
2019/07/07  21:51:01  BASE  2.68128  22   3.99252  6    -3.5  99    -3.7  0     0     1011.9   NA       0.0000   9999     4920  0     0    
2019/07/07  21:52:01  BASE  2.3226   21   3.99252  6    -3.5  99    -3.7  0     0     1011.9   NA       0.0000   9999     5380  0     0    
2019/07/07  21:53:02  BASE  2.205    15   3.99252  6    -3.6  99    -3.7  0     0     1011.9   NA       0.0000   9999     4920  0     0    
2019/07/07  21:54:01  BASE  2.39316  12   3.65736  9    -3.6  99    -3.7  0     0     1011.8   NA       0.0000   9999     5450  0     0    
2019/07/07  21:55:02  BASE  2.5284   13   3.65736  9    -3.6  99    -3.7  0     0     1011.8   NA       0.0000   9999     4860  0     0    
2019/07/07  21:56:01  BASE  2.53428  13   3.65736  9    -3.6  99    -3.7  0     0     1011.7   NA       0.0000   9999     4820  0     0    
2019/07/07  21:57:02  BASE  2.46372  15   3.62796  11   -3.6  100   -3.7  0     0     1011.8   NA       0.0000   9999     4890  0     0    
2019/07/07  21:58:01  BASE  2.2932   18   3.2046   21   -3.5  100   -3.6  0     0     1011.8   NA       0.0000   9999     5450  0     0    
2019/07/07  21:59:01  BASE  2.18148  20   2.99292  17   -3.5  100   -3.5  0     0     1011.8   NA       0.0000   9999     5090  0     0    
2019/07/07  22:00:02  BASE  2.25204  24   2.96352  9    -3.5  100   -3.5  0     0     1011.7   NA       0.0000   9999     4660  0     0    
2019/07/07  22:01:02  BASE  2.32848  26   2.96352  9    -3.5  100   -3.5  0     0     1011.8   NA       0.0000   9999     4790  0     0    
2019/07/07  22:02:01  BASE  2.37552  25   2.96352  9    -3.4  100   -3.4  0     0     1011.8   NA       0.0000   9999     4690  0     0    
2019/07/07  22:03:02  BASE  2.41668  24   2.96352  9    -3.5  100   -3.5  0     0     1011.9   NA       0.0000   9999     4590  0     0    
2019/07/07  22:04:01  BASE  2.31672  24   2.81064  13   -3.5  100   -3.5  0     0     1011.9   NA       0.0000   9999     5410  0     0    
2019/07/07  22:05:01  BASE  2.22264  24   2.81064  13   -3.5  100   -3.5  0     0     1011.9   NA       0.0000   9999     5380  0     0    
2019/07/07  22:06:02  BASE  2.10504  26   2.56956  23   -3.5  100   -3.5  0     0     1011.9   NA       0.0000   9999     4530  0     0    
2019/07/07  22:07:02  BASE  2.04036  27   2.56956  23   -3.5  100   -3.5  0     0     1011.9   NA       0.0000   9999     4460  0     0    
2019/07/07  22:08:01  BASE  2.05212  29   2.56956  23   -3.4  100   -3.4  0     0     1011.9   NA       0.0000   9999     4430  5350  0    
2019/07/07  22:09:01  BASE  2.11092  30   2.56956  23   -3.4  100   -3.4  0     0     1011.9   NA       0.0000   9999     4430  5350  0    
2019/07/07  22:10:02  BASE  2.15796  28   2.56956  23   -3.4  100   -3.4  0     0     1011.9   NA       0.0000   9999     4490  0     0    
2019/07/07  22:11:02  BASE  2.08152  26   2.56956  23   -3.4  100   -3.4  0     0     1011.9   NA       0.0000   9999     5380  0     0    
2019/07/07  22:12:01  BASE  1.86396  26   2.56956  23   -3.4  100   -3.4  0     0     1011.9   NA       0.0000   9999     4460  0     0    
2019/07/07  22:13:01  BASE  1.7346   23   2.48136  14   -3.4  100   -3.4  0     0     1011.9   NA       0.0000   9999     5380  0     0    
2019/07/07  22:14:01  BASE  1.84044  17   2.48136  14   -3.4  100   -3.4  0     0     1011.9   NA       0.0000   9999     4360  0     0    
2019/07/07  22:15:01  BASE  1.93452  12   2.29908  26   -3.4  100   -3.4  0     0     1011.9   NA       0.0000   9999     4300  0     0    
2019/07/07  22:16:01  BASE  2.06388  9    2.29908  26   -3.4  100   -3.4  0     0     1011.8   NA       0.0000   9999     4400  0     0    
2019/07/07  22:17:01  BASE  2.2932   9    2.59896  6    -3.4  100   -3.4  0     0     1011.8   NA       0.0000   9999     4460  5320  0    
2019/07/07  22:18:02  BASE  2.41668  7    2.78124  360  -3.4  100   -3.4  0     0     1011.7   NA       0.0000   9999     4560  5320  0    
2019/07/07  22:19:02  BASE  2.4108   7    2.78124  14   -3.4  99    -3.4  0     0     1011.7   NA       0.0000   9999     4460  5320  0    
2019/07/07  22:20:02  BASE  2.47548  6    2.78124  14   -3.3  99    -3.4  0     0     1011.7   NA       0.0000   9999     4530  0     0    
2019/07/07  22:21:02  BASE  2.51076  5    2.78124  14   -3.3  99    -3.4  0     0     1011.7   NA       0.0000   9999     4530  0     0    
2019/07/07  22:22:01  BASE  2.42256  6    2.78124  14   -3.3  99    -3.4  0     0     1011.7   NA       0.0000   9999     4490  0     0    
2019/07/07  22:23:02  BASE  2.25204  9    2.78124  14   -3.3  99    -3.4  0     0     1011.7   NA       0.0000   9999     4560  0     0    
2019/07/07  22:24:02  BASE  2.05212  11   2.78124  14   -3.3  99    -3.4  0     0     1011.8   NA       0.0000   9999     4660  0     0    
2019/07/07  22:25:01  BASE  2.058    14   2.78124  14   -3.2  98    -3.5  0     0     1011.8   NA       0.0000   9999     5250  0     0    
2019/07/07  22:26:02  BASE  2.21676  15   2.78124  14   -3.2  98    -3.5  0     0     1011.8   NA       0.0000   9999     5250  0     0    
2019/07/07  22:27:01  BASE  2.27556  15   2.78124  14   -3.2  98    -3.5  0     0     1011.8   NA       0.0000   9999     5220  0     0    
2019/07/07  22:28:02  BASE  2.13444  8    2.78124  14   -3.3  98    -3.5  0     0     1011.8   NA       0.0000   9999     5250  0     0    
2019/07/07  22:29:01  BASE  1.72284  4    2.69304  9    -3.2  98    -3.5  0     0     1011.8   NA       0.0000   9999     5280  0     0    
2019/07/07  22:30:01  BASE  1.42296  9    2.63424  3    -3.2  98    -3.5  0     0     1011.8   NA       0.0000   9999     5320  0     0    
2019/07/07  22:31:02  BASE  1.47588  13   2.54016  4    -3.2  98    -3.6  0     0     1011.8   NA       0.0000   9999     5280  0     0    
2019/07/07  22:32:01  BASE  1.68756  16   2.48136  14   -3.2  97    -3.6  0     0     1011.8   NA       0.0000   9999     5280  0     0    
2019/07/07  22:33:02  BASE  1.96392  12   2.48136  14   -3.1  97    -3.6  0     0     1011.8   NA       0.0000   9999     5180  0     0    
2019/07/07  22:34:01  BASE  2.16384  9    2.48136  14   -3.1  97    -3.6  0     0     1011.8   NA       0.0000   9999     5180  0     0    
2019/07/07  22:35:03  BASE  2.3226   10   2.54016  7    -3.1  96    -3.6  0     0     1011.8   NA       0.0000   9999     5220  0     0    
2019/07/07  22:36:02  BASE  2.43432  10   2.63424  9    -3.1  96    -3.6  0     0     1011.8   NA       0.0000   9999     5180  0     0    
2019/07/07  22:37:01  BASE  2.43432  12   2.63424  9    -3.1  96    -3.6  0     0     1011.8   NA       0.0000   9999     5220  0     0    
2019/07/07  22:38:02  BASE  2.38728  19   2.63424  9    -3.1  96    -3.6  0     0     1011.8   NA       0.0000   9999     5220  0     0    
2019/07/07  22:39:01  BASE  2.25792  30   2.63424  9    -3.1  96    -3.7  0     0     1011.8   NA       0.0000   9999     5220  0     0    
2019/07/07  22:40:01  BASE  1.84632  38   2.63424  9    -3.1  95    -3.7  0     0     1011.8   NA       0.0000   9999     5220  0     0    
2019/07/07  22:41:01  BASE  1.24068  44   2.63424  9    -3.1  95    -3.8  0     0     1011.8   NA       0.0000   9999     5220  0     0    
2019/07/07  22:42:01  BASE  1.0584   47   2.63424  9    -3.2  95    -3.9  0     0     1011.7   NA       0.0000   9999     5220  0     0    
2019/07/07  22:43:01  BASE  1.34652  36   2.63424  9    -3.2  95    -3.9  0     0     1011.7   NA       0.0000   9999     5220  0     0    
2019/07/07  22:44:02  BASE  1.617    23   2.63424  9    -3.2  95    -3.9  0     0     1011.7   NA       0.0000   9999     5250  0     0    
2019/07/07  22:45:02  BASE  1.86396  17   2.63424  9    -3.3  95    -4.0  0     0     1011.7   NA       0.0000   9999     5220  0     0    
2019/07/07  22:46:02  BASE  2.04036  16   2.54016  12   -3.3  95    -4.0  0     0     1011.7   NA       0.0000   9999     5220  0     0    
2019/07/07  22:47:01  BASE  2.02272  20   2.48136  17   -3.3  94    -4.1  0     0     1011.7   NA       0.0000   9999     5180  0     0    
2019/07/07  22:48:02  BASE  1.90512  26   2.29908  32   -3.3  94    -4.1  0     0     1011.7   NA       0.0000   9999     5150  0     0    
2019/07/07  22:49:02  BASE  1.74636  40   2.1462   18   -3.3  94    -4.2  0     0     1011.7   NA       0.0000   9999     5120  0     0    
2019/07/07  22:50:02  BASE  1.62288  47   2.1462   18   -3.3  93    -4.2  0     0     1011.7   NA       0.0000   9999     5090  0     0    
2019/07/07  22:51:02  BASE  1.47588  46   2.1462   18   -3.3  93    -4.2  0     0     1011.7   NA       0.0000   9999     5180  0     0    
2019/07/07  22:52:01  BASE  1.43472  45   2.1462   18   -3.3  93    -4.2  0     0     1011.7   NA       0.0000   9999     5150  0     0    
2019/07/07  22:53:02  BASE  1.59936  48   2.1462   18   -3.3  93    -4.3  0     0     1011.7   NA       0.0000   9999     5150  0     0    
2019/07/07  22:54:02  BASE  1.74048  56   2.1462   18   -3.2  93    -4.3  0     0     1011.7   NA       0.0000   9999     5150  0     0    
2019/07/07  22:55:02  BASE  1.90512  56   2.29908  43   -3.2  92    -4.3  0     0     1011.7   NA       0.0000   9999     5150  0     0    
2019/07/07  22:56:02  BASE  2.03448  51   2.29908  43   -3.2  92    -4.2  0     0     1011.7   NA       0.0000   9999     5120  0     0    
2019/07/07  22:57:02  BASE  1.9992   48   2.29908  43   -3.1  92    -4.3  0     0     1011.8   NA       0.0000   9999     5090  0     0    
2019/07/07  22:58:02  BASE  1.99332  47   2.29908  43   -3.1  92    -4.3  0     0     1011.7   NA       0.0000   9999     5120  0     0    
2019/07/07  22:59:01  BASE  1.9992   50   2.29908  43   -3.1  91    -4.3  0     0     1011.7   NA       0.0000   9999     5150  0     0    
2019/07/07  23:00:02  BASE  1.86984  50   2.29908  43   -3.0  91    -4.3  0     0     1011.7   NA       0.0000   9999     5050  0     0    
2019/07/07  23:01:02  BASE  1.85808  46   2.29908  43   -3.0  90    -4.4  0     0     1011.7   NA       0.0000   9999     5090  0     0    
2019/07/07  23:02:02  BASE  1.88748  46   2.29908  43   -3.0  90    -4.4  0     0     1011.7   NA       0.0000   9999     5050  0     0    
2019/07/07  23:03:02  BASE  1.96392  49   2.29908  43   -3.0  90    -4.4  0     0     1011.7   NA       0.0000   9999     5020  0     0    
2019/07/07  23:04:02  BASE  2.15796  54   2.32848  55   -3.0  90    -4.5  0     0     1011.7   NA       0.0000   9999     5050  0     0    
2019/07/07  23:05:02  BASE  2.15796  53   2.32848  55   -3.0  89    -4.5  0     0     1011.7   NA       0.0000   9999     5090  0     0    
2019/07/07  23:06:02  BASE  2.08152  54   2.32848  55   -3.1  89    -4.6  0     0     1011.7   NA       0.0000   9999     4950  0     0    
2019/07/07  23:07:01  BASE  2.14032  62   2.42256  62   -3.1  89    -4.7  0     0     1011.7   NA       0.0000   9999     5020  0     0    
2019/07/07  23:08:01  BASE  2.30496  67   2.56956  67   -3.1  89    -4.7  0     0     1011.7   NA       0.0000   9999     4990  0     0    
2019/07/07  23:09:01  BASE  2.35788  69   2.56956  67   -3.1  89    -4.7  0     0     1011.7   NA       0.0000   9999     5020  0     0    
2019/07/07  23:10:02  BASE  2.21088  69   2.56956  67   -3.1  89    -4.7  0     0     1011.7   NA       0.0000   9999     5020  0     0    
2019/07/07  23:11:02  BASE  1.85808  68   2.56956  67   -3.0  89    -4.6  0     0     1011.7   NA       0.0000   9999     5020  0     0    
2019/07/07  23:12:02  BASE  1.72284  66   2.56956  67   -3.0  89    -4.6  0     0     1011.7   NA       0.0000   9999     5090  0     0    
2019/07/07  23:13:01  BASE  1.9404   70   2.56956  67   -2.9  89    -4.6  0     0     1011.7   NA       0.0000   9999     5120  0     0    
2019/07/07  23:14:01  BASE  1.9698   75   2.56956  67   -2.9  88    -4.6  0     0     1011.7   NA       0.0000   9999     4990  0     0    
2019/07/07  23:15:02  BASE  1.92276  79   2.56956  67   -2.9  88    -4.6  0     0     1011.7   NA       0.0000   9999     5090  0     0    
2019/07/07  23:16:01  BASE  2.03448  80   2.56956  67   -2.9  88    -4.7  0     0     1011.7   NA       0.0000   9999     5090  0     0    
2019/07/07  23:17:01  BASE  2.04624  76   2.56956  67   -2.9  87    -4.7  0     0     1011.7   NA       0.0000   9999     5090  0     0    
2019/07/07  23:18:01  BASE  1.9992   71   2.54016  68   -2.8  87    -4.7  0     0     1011.7   NA       0.0000   9999     5050  0     0    
2019/07/07  23:19:02  BASE  2.15796  72   2.48136  73   -2.8  87    -4.7  0     0     1011.7   NA       0.0000   9999     4990  0     0    
2019/07/07  23:20:03  BASE  2.34612  76   2.45196  76   -2.8  87    -4.7  0     0     1011.7   NA       0.0000   9999     4990  0     0    
2019/07/07  23:21:02  BASE  2.3814   75   2.51076  81   -2.8  86    -4.7  0     0     1011.7   NA       0.0000   9999     5020  0     0    
2019/07/07  23:22:02  BASE  2.34024  75   2.51076  76   -2.8  86    -4.8  0     0     1011.7   NA       0.0000   9999     4990  0     0    
2019/07/07  23:23:02  BASE  2.28144  77   2.51076  84   -2.8  86    -4.9  0     0     1011.7   NA       0.0000   9999     5020  0     0    
2019/07/07  23:24:02  BASE  2.27556  81   2.51076  84   -2.8  85    -4.9  0     0     1011.7   NA       0.0000   9999     5050  0     0    
2019/07/07  23:25:02  BASE  2.11092  85   2.51076  84   -2.8  85    -5.1  0     0     1011.7   NA       0.0000   9999     4920  0     0    
2019/07/07  23:26:02  BASE  1.8522   90   2.51076  84   -2.8  84    -5.2  0     0     1011.7   NA       0.0000   9999     4890  0     0    
2019/07/07  23:27:02  BASE  1.56996  94   2.51076  84   -2.8  83    -5.3  0     0     1011.7   NA       0.0000   9999     4990  0     0    
2019/07/07  23:28:02  BASE  1.25244  105  2.51076  84   -2.8  83    -5.3  0     0     1011.7   NA       0.0000   9999     5020  0     0    
2019/07/07  23:29:01  BASE  1.07016  118  2.51076  84   -2.7  82    -5.3  0     0     1011.7   NA       0.0000   9999     5020  0     0    
2019/07/07  23:30:02  BASE  1.02312  122  2.51076  84   -2.6  82    -5.3  0     0     1011.8   NA       0.0000   9999     4990  0     0    
2019/07/07  23:31:02  BASE  1.25244  125  2.51076  84   -2.6  82    -5.3  0     0     1011.9   NA       0.0000   9999     4950  0     0    
2019/07/07  23:32:01  BASE  1.62876  130  2.51076  84   -2.6  81    -5.4  0     0     1011.9   NA       0.0000   9999     4990  0     0    
2019/07/07  23:33:01  BASE  2.05212  136  2.51076  140  -2.7  81    -5.4  0     0     1011.9   NA       0.0000   9999     5050  0     0    
2019/07/07  23:34:02  BASE  2.39904  140  2.63424  138  -2.7  81    -5.5  0     0     1011.9   NA       0.0000   9999     5120  0     0    
2019/07/07  23:35:04  BASE  2.5284   144  2.63424  141  -2.8  81    -5.5  0     0     1011.9   NA       0.0000   9999     5020  0     0    
2019/07/07  23:36:02  BASE  2.61072  143  2.87532  142  -2.9  82    -5.6  0     0     1011.8   NA       0.0000   9999     5090  0     0    
2019/07/07  23:37:01  BASE  2.7636   140  3.087    143  -2.9  82    -5.6  0     0     1011.8   NA       0.0000   9999     5020  0     0    
2019/07/07  23:38:01  BASE  2.8518   138  3.087    140  -2.9  83    -5.5  0     0     1011.8   NA       0.0000   9999     4990  0     0    
2019/07/07  23:39:01  BASE  2.85768  135  3.087    130  -3.0  83    -5.4  0     0     1011.8   NA       0.0000   9999     4990  0     0    
2019/07/07  23:40:02  BASE  2.6754   131  3.087    130  -3.0  83    -5.4  0     0     1011.9   NA       0.0000   9999     4920  0     0    
2019/07/07  23:41:02  BASE  2.48136  126  3.087    130  -2.9  84    -5.3  0     0     1011.9   NA       0.0000   9999     4860  0     0    
2019/07/07  23:42:01  BASE  2.48136  125  3.087    130  -2.8  84    -5.2  0     0     1011.9   NA       0.0000   9999     4920  0     0    
2019/07/07  23:43:01  BASE  2.49312  124  3.087    130  -2.8  84    -5.1  0     0     1011.9   NA       0.0000   9999     4890  0     0    
2019/07/07  23:44:01  BASE  2.32848  126  3.087    130  -2.7  84    -5.0  0     0     1011.9   NA       0.0000   9999     4860  0     0    
2019/07/07  23:45:01  BASE  2.2638   128  3.087    130  -2.7  84    -5.0  0     0     1011.9   NA       0.0000   9999     4760  0     0    
2019/07/07  23:46:01  BASE  2.33436  130  3.087    130  -2.7  84    -5.0  0     0     1011.9   NA       0.0000   9999     4790  0     0    
2019/07/07  23:47:01  BASE  2.39316  130  3.087    130  -2.6  84    -5.0  0     0     1011.9   NA       0.0000   9999     4820  0     0    
2019/07/07  23:48:01  BASE  2.65188  126  3.1458   121  -2.6  84    -5.0  0     0     1011.9   NA       0.0000   9999     4790  0     0    
2019/07/07  23:49:01  BASE  2.9106   122  3.234    123  -2.7  84    -5.0  0     0     1011.9   NA       0.0000   9999     4790  0     0    
2019/07/07  23:50:02  BASE  2.97528  121  3.234    123  -2.7  84    -5.0  0     0     1011.9   NA       0.0000   9999     4790  0     0    
2019/07/07  23:51:01  BASE  3.0282   121  3.234    123  -2.7  84    -5.0  0     0     1011.9   NA       0.0000   9999     4760  0     0    
2019/07/07  23:52:01  BASE  3.09288  123  3.234    123  -2.7  84    -5.0  0     0     1011.9   NA       0.0000   9999     4790  0     0    
2019/07/07  23:53:01  BASE  3.1164   124  3.29868  118  -2.7  85    -4.9  0     0     1011.9   NA       0.0000   9999     4820  0     0    
2019/07/07  23:54:01  BASE  3.16932  122  3.41628  120  -2.7  85    -4.9  0     0     1011.9   NA       0.0000   9999     4790  0     0    
2019/07/07  23:55:01  BASE  2.9988   120  3.41628  120  -2.8  86    -4.8  0     0     1011.9   NA       0.0000   9999     4760  0     0    
2019/07/07  23:56:02  BASE  2.62248  120  3.41628  120  -2.8  86    -4.8  0     0     1011.9   NA       0.0000   9999     4760  0     0    
2019/07/07  23:57:01  BASE  2.46372  123  3.41628  120  -2.8  86    -4.8  0     0     1011.9   NA       0.0000   9999     4760  0     0    
2019/07/07  23:58:02  BASE  2.36964  124  3.41628  120  -2.9  86    -4.9  0     0     1011.9   NA       0.0000   9999     4760  0     0    
2019/07/07  23:59:02  BASE  2.43432  121  3.41628  120  -2.9  86    -4.9  0     0     1011.9   NA       0.0000   9999     4820  0     0